     2.11           OBSERVATION DATA    G (GPS)             RINEX VERSION / TYPE
teqc 2010Oct21 OPUS Account 20111027 20:45:31UTC            PGM / RUN BY / DATE
B 1526                                                      MARKER NAME
3038                                                        MARKER NUMBER
CSMIDDLETON NGS                                             OBSERVER / AGENCY
4624K01615 TRIMBLE NETR5 4.41                               REC # / TYPE / VERS
12338145 TRM41249.00 NONE                                   ANT # / TYPE
  -755942.4695 -5562258.3779  3018221.7649                  APPROX POSITION XYZ
        2.0000        0.0000        0.0000                  ANTENNA: DELTA H/E/N
     1     1                                                WAVELENGTH FACT L1/2
     5    L1    L2    C1    P1    P2                        # / TYPES OF OBSERV
    15                                                      LEAP SECONDS
  2011     8    20     0     0    0.0000000     GPS         TIME OF FIRST OBS
                                                            END OF HEADER
 11  8 20  0  0  0.0000000  0  7G10G04G17G12G05G09G02
 110309181.62718  85955332.43556  20991130.438                    20991138.422
 111050191.90918  86532730.77256  21132133.352                    21132140.527
 119792716.01117  93345022.83717  22795786.727                    22795795.508
 115505788.71617  90004549.72317  21980018.055                    21980025.070
 119405345.23617  93043193.13717  22722074.227                    22722083.152
 121288354.65517  94510551.65754  23080430.828                    23080440.805
 108631250.07418  84647828.93356  20671821.867                    20671827.297
 11  8 20  0  0 30.0000000  0  7G10G04G17G12G05G09G02
 110284198.512 8  85935865.09746  20986376.078                    20986384.262
 111119602.854 8  86586817.21046  21145341.641                    21145349.781
 119839269.141 7  93381297.912 7  22804645.664                    22804653.586
 115430139.737 7  89945602.495 7  21965622.438                    21965629.672
 119305603.793 7  92965472.615 7  22703094.109                    22703103.477
 121356775.785 7  94563866.76444  23093451.281                    23093460.512
 108618410.264 8  84637823.90446  20669378.531                    20669383.742
 11  8 20  0  1  0.0000000  0  7G10G04G17G12G05G09G02
 110259811.374 8  85916862.14946  20981735.188                    20981742.961
 111189237.635 8  86641078.06046  21158592.875                    21158600.480
 119885952.768 7  93417674.733 7  22813529.492                    22813536.672
 115354816.863 7  89886909.368 7  21951288.844                    21951296.090
 119206046.581 7  92887895.649 7  22684148.789                    22684158.145
 121425501.511 7  94617419.21744  23106528.742                    23106538.605
 108605900.557 8  84628076.09346  20666998.070                    20667003.313
 11  8 20  0  1 30.0000000  0  7G10G04G17G12G05G09G02
 110236022.026 8  85898325.01146  20977208.852                    20977216.172
 111259093.901 8  86695511.49646  21171885.969                    21171894.004
 119932767.585 7  93454153.772 7  22822437.133                    22822445.762
 115279822.768 7  89828472.428 7  21937017.758                    21937025.332
 119106676.490 7  92810464.498 7  22665239.125                    22665248.641
 121494528.633 7  94671206.51244  23119664.672                    23119674.430
 108593719.930 8  84618584.70246  20664680.023                    20664685.250
 11  8 20  0  2  0.0000000  0  7G10G04G17G12G05G09G02
 110212832.017 8  85880254.89346  20972795.492                    20972803.566
 111329169.435 8  86750115.79146  21185221.141                    21185228.906
 119979714.458 7  93490735.683 7  22831371.570                    22831379.797
 115205160.175 8  89770293.813 7  21922809.984                    21922817.410
 119007496.729 7  92733181.668 7  22646366.078                    22646375.203
 121563853.802 7  94725226.04844  23132857.078                    23132865.688
 108581867.751 8  84609349.25446  20662424.555                    20662429.980
 11  8 20  0  2 30.0000000  0  7G10G04G17G12G05G09G02
 110190242.557 8  85862652.73246  20968497.156                    20968505.113
 111399462.155 8  86804889.31946  21198597.008                    21198605.340
 120026793.633 7  93527420.744 6  22840330.375                    22840337.930
 115130831.769 7  89712375.601 7  21908665.945                    21908673.008
 118908510.375 7  92656049.525 7  22627529.242                    22627538.859
 121633473.740 7  94779475.29044  23146104.734                    23146114.527
 108570343.014 8  84600368.94746  20660231.305                    20660236.844
 11  8 20  0  3  0.0000000  0  7G10G04G17G12G05G09G02
 110168254.823 8  85845519.45246  20964313.094                    20964320.672
 111469969.574 8  86859830.15046  21212014.438                    21212022.426
 120074005.895 7  93564209.494 6  22849314.422                    22849322.098
 115056839.711 8  89654719.475 7  21894585.430                    21894592.473
 118809720.061 7  92579070.161 7  22608729.930                    22608739.633
 121703384.889 7  94833951.43644  23159408.695                    23159418.730
 108559144.561 8  84591642.89046  20658100.563                    20658105.938
 11  8 20  0  3 30.0000000  0  7G10G04G17G12G05G09G02
 110146870.575 8  85828856.42446  20960243.461                    20960251.520
 111540689.860 8  86914936.84846  21225471.930                    21225479.840
 120121352.331 7  93601102.758 7  22858324.828                    22858332.301
 114983187.305 8  89597328.016 7  21880570.031                    21880577.059
 118711129.308 7  92502246.294 7  22589968.148                    22589978.203
 121773584.185 7  94888652.10444  23172767.297                    23172777.242
 108548272.322 8  84583171.02746  20656031.789                    20656037.000
 11  8 20  0  4  0.0000000  0  7G10G04G17G12G05G09G02
 110126090.971 8  85812664.55046  20956289.117                    20956297.086
 111611620.744 8  86970207.65346  21238969.719                    21238977.414
 120168833.623 7  93638101.122 7  22867359.586                    22867367.703
 114909876.888 7  89540203.044 7  21866619.719                    21866627.215
 118612741.313 7  92425580.415 7  22571246.211                    22571254.984
 121844068.235 7  94943574.65144  23186179.680                    23186190.023
 108537725.397 8  84574952.64846  20654024.430                    20654029.957
 11  8 20  0  4 30.0000000  0  8G10G30G04G17G12G05G09G02
 110105916.821 8  85796944.45046  20952450.109                    20952457.930
 128018215.88116  99754530.99853  24361067.500                    24361076.594
 111682759.755 8  87025640.62245  21252506.617                    21252515.043
 120216449.817 7  93675204.607 6  22876420.266                    22876427.863
 114836910.757 8  89483346.345 7  21852734.359                    21852741.582
 118514558.483 7  92349074.403 7  22552562.641                    22552571.723
 121914833.702 7  94998716.50444  23199646.141                    23199656.152
 108527502.263 8  84566986.57846  20652079.078                    20652084.516
 11  8 20  0  5  0.0000000  0  8G10G30G04G17G12G05G09G02
 110086349.843 8  85781697.48046  20948726.688                    20948734.664
 127912875.546 6  99672447.65243  24341021.594                    24341030.738
 111754105.195 8  87081234.44846  21266083.484                    21266091.359
 120264202.095 7  93712414.113 6  22885507.734                    22885515.828
 114764291.899 7  89426760.250 7  21838915.227                    21838922.301
 118416584.650 7  92272731.252 7  22533918.797                    22533928.020
 121985877.453 7  95054075.19144  23213165.297                    23213175.375
 108517602.524 8  84559272.50046  20650195.234                    20650200.773
 11  8 20  0  5 30.0000000  0  8G10G30G04G17G12G05G09G02
 110067391.911 8  85766925.08046  20945119.063                    20945126.828
 127807707.398 6  99590498.49242  24321009.281                    24321018.141
 111825654.801 8  87136987.37045  21279698.930                    21279706.750
 120312091.555 7  93749730.530 7  22894621.023                    22894629.344
 114692023.029 7  89370446.875 7  21825163.344                    21825170.719
 118318822.630 7  92196553.136 7  22515314.930                    22515324.328
 122057196.403 7  95109648.33644  23226736.859                    23226746.789
 108508025.297 8  84551809.73346  20648373.102                    20648378.520
 11  8 20  0  6  0.0000000  0  8G10G30G04G17G12G05G09G02
 110049043.065 8  85752627.29746  20941627.734                    20941635.586
 127702713.449 6  99508685.06842  24301029.422                    24301038.277
 111897405.746 8  87192897.17946  21293352.648                    21293360.918
 120360118.003 7  93787153.671 6  22903759.719                    22903768.172
 114620106.142 7  89314407.776 7  21811477.766                    21811485.156
 118221274.805 7  92120541.936 7  22496752.328                    22496761.188
 122128786.382 7  95165432.65844  23240360.203                    23240370.254
 108498768.870 8  84544596.94246  20646611.531                    20646616.922
 11  8 20  0  6 30.0000000  0  8G10G30G04G17G12G05G09G02
 110031304.403 8  85738804.99646  20938252.094                    20938259.637
 127597896.532 5  99427009.54242  24281083.086                    24281091.711
 111969355.573 8  87248961.96046  21307044.563                    21307051.934
 120408281.855 7  93824683.931 6  22912925.352                    22912932.613
 114548543.946 7  89258645.056 7  21797860.086                    21797867.363
 118123944.087 7  92044699.902 7  22478230.734                    22478239.730
 122200644.018 7  95221425.53444  23254034.422                    23254044.520
 108489832.391 8  84537633.45546  20644910.539                    20644916.637
 11  8 20  0  7  0.0000000  0  9G10G30G04G17G12G05G25G09G02
 110014176.890 8  85725458.90146  20934992.594                    20935000.391
 127493259.433 5  99345474.13142  24261171.563                    24261180.305
 112041502.474 8  87305180.30746  21320773.813                    21320781.156
 120456583.852 7  93862321.822 7  22922116.352                    22922124.871
 114477338.652 7  89203160.445 7  21784309.984                    21784317.348
 118026833.395 7  91969029.310 7  22459751.063                    22459760.355
 129636036.46317 101015206.05016  24668941.523                    24668952.281
 122272765.820 7  95277624.25544  23267758.461                    23267769.359
 108481214.878 8  84530918.51446  20643270.766                    20643276.465
 11  8 20  0  7 30.0000000  0  9G10G30G04G17G12G05G25G09G02
 109997661.638 8  85712589.89946  20931849.883                    20931857.496
 127388804.876 6  99264081.03942  24241293.633                    24241303.621
 112113844.106 8  87361550.38845  21334539.875                    21334547.449
 120505024.756 7  93900067.901 7  22931334.641                    22931343.617
 114406492.733 7  89147955.869 7  21770828.109                    21770835.730
 117929945.684 7  91893532.473 7  22441313.813                    22441322.289
 129532752.002 6 100934724.688 6  24649286.336                    24649297.922
 122345148.395 7  95334026.19144  23281532.992                    23281542.695
 108472915.543 8  84524451.50946  20641691.563                    20641697.176
 11  8 20  0  8  0.0000000  0  9G10G30G04G17G12G05G25G09G02
 109981759.970 8  85700199.01246  20928823.938                    20928831.473
 127284535.732 6  99182832.41342  24221452.719                    24221461.668
 112186378.171 8  87418070.42345  21348342.375                    21348350.461
 120553605.240 7  93937922.814 6  22940579.727                    22940587.785
 114336008.995 7  89093033.508 7  21757416.094                    21757423.418
 117833284.376 7  91818212.052 7  22422920.008                    22422929.043
 129429571.321 6 100854324.226 6  24629651.945                    24629663.695
 122417788.639 7  95390628.88844  23295356.109                    23295365.965
 108464933.410 8  84518231.66646  20640172.789                    20640178.070
 11  8 20  0  8 30.0000000  0  9G10G30G04G17G12G05G25G09G02
 109966472.768 8  85688286.92446  20925914.953                    20925922.270
 127180454.794 6  99101730.44943  24201646.586                    24201656.055
 112259102.718 8  87474738.87745  21362181.758                    21362189.699
 120602325.861 7  93975886.922 6  22949850.195                    22949857.895
 114265890.022 7  89038395.375 7  21744072.633                    21744080.035
 117736852.259 7  91743070.229 7  22404569.203                    22404578.250
 129326496.814 6 100774006.503 6  24610036.742                    24610048.547
 122490682.814 7  95447429.46844  23309226.727                    23309237.031
 108457267.338 8  84512258.11146  20638713.977                    20638719.309
 11  8 20  0  9  0.0000000  0  9G10G30G04G17G12G05G25G09G02
 109951800.709 8  85676854.17646  20923122.789                    20923130.336
 127076564.703 6  99020777.21143  24181876.195                    24181886.422
 112332015.311 8  87531553.86745  21376056.414                    21376064.148
 120651187.243 7  94013960.677 7  22959148.648                    22959157.309
 114196138.161 7  88984043.298 7  21730799.234                    21730806.582
 117640652.273 7  91668109.271 7  22386263.078                    22386272.160
 129223530.967 6 100693773.407 5  24590443.391                    24590454.785
 122563827.653 7  95504425.37144  23323145.398                    23323156.219
 108449916.309 8  84506530.04446  20637314.891                    20637320.289
 11  8 20  0  9 30.0000000  0  9G10G30G04G17G12G05G25G09G02
 109937744.919 8  85665901.62646  20920448.117                    20920456.098
 126972868.253 6  98939974.82743  24162144.406                    24162153.426
 112405113.969 8  87588513.83645  21389966.664                    21389974.660
 120700189.924 7  94052144.537 7  22968473.945                    22968482.188
 114126756.054 7  88929979.349 7  21717596.359                    21717603.535
 117544687.377 7  91593331.513 7  22368001.469                    22368010.578
 129120676.177 6 100613626.845 5  24570871.336                    24570881.625
 122637220.023 6  95561614.15344  23337111.578                    23337122.328
 108442879.397 8  84501046.74546  20635975.906                    20635981.176
 11  8 20  0 10  0.0000000  0  9G10G30G04G17G12G05G25G09G02
 109924306.591 8  85655430.22546  20917890.398                    20917898.316
 126869368.304 6  98859325.58243  24142449.117                    24142458.145
 112478396.234 8  87645616.88145  21403911.773                    21403919.586
 120749334.437 7  94090438.963 6  22977825.656                    22977833.520
 114057746.048 7  88876205.334 7  21704464.000                    21704471.371
 117448960.332 7  91518739.087 7  22349785.250                    22349794.418
 129017935.048 6 100533568.819 6  24551319.383                    24551330.734
 122710856.250 7  95618992.92444  23351124.867                    23351135.313
 108436155.472 8  84495807.33346  20634696.117                    20634701.801
 11  8 20  0 10 30.0000000  0  9G10G30G04G17G12G05G25G09G02
 109911486.240 8  85645440.35146  20915451.633                    20915458.941
 126766067.576 6  98778831.56443  24122790.977                    24122800.496
 112551859.902 8  87702861.27845  21417891.430                    21417899.258
 120798621.709 7  94128844.609 6  22987204.570                    22987211.973
 113989110.538 7  88822723.138 7  21691403.055                    21691410.465
 117353474.365 7  91444334.514 7  22331614.961                    22331623.531
 128915309.885 6 100453601.220 6  24531790.422                    24531802.020
 122784733.210 7  95676559.30544  23365183.219                    23365193.180
 108429743.804 8  84490811.24346  20633476.500                    20633481.891
 11  8 20  0 11  0.0000000  0  9G10G30G04G17G12G05G25G09G02
 109899284.844 8  85635932.78246  20913129.305                    20913137.012
 126662968.878 6  98698494.98343  24103172.352                    24103181.223
 112625503.210 8  87760245.65845  21431905.617                    21431913.602
 120848052.226 7  94167361.869 7  22996610.859                    22996619.578
 113920852.454 8  88769535.039 7  21678414.273                    21678421.395
 117258232.353 7  91370120.028 7  22313490.719                    22313499.504
 128812803.369 6 100373726.079 6  24512284.203                    24512295.953
 122858847.359 7  95734310.51444  23379286.961                    23379297.238
 108423643.107 8  84486057.47046  20632315.453                    20632320.773
 11  8 20  0 11 30.0000000  0  9G10G30G04G17G12G05G25G09G02
 109887703.322 8  85626908.23846  20910925.375                    20910932.824
 126560075.014 6  98618317.97943  24083592.141                    24083601.289
 112699323.752 8  87817768.14545  21445952.633                    21445960.555
 120897626.664 7  94205991.264 6  23006044.602                    23006052.375
 113852973.782 7  88716642.587 7  21665497.109                    21665504.402
 117163237.251 7  91296097.941 7  22295413.727                    22295422.625
 128710417.990 6 100293945.321 6  24492801.469                    24492812.500
 122933195.112 7  95792243.74244  23393435.164                    23393445.137
 108417852.475 8  84481545.29946  20631213.711                    20631218.793
 11  8 20  0 12  0.0000000  0  9G10G30G04G17G12G05G25G09G02
 109876742.547 8  85618367.39246  20908839.367                    20908847.164
 126457388.866 6  98538302.86743  24064052.250                    24064060.680
 112773319.526 8  87875427.17845  21460033.555                    21460041.594
 120947345.441 7  94244733.132 6  23015505.828                    23015513.863
 113785477.321 7  88664047.961 7  21652653.141                    21652660.656
 117068491.879 7  91222270.461 7  22277384.430                    22277393.090
 128608156.262 6 100214260.935 6  24473341.273                    24473352.852
 123007773.192 7  95850356.44444  23407626.578                    23407636.367
 108412370.730 8  84477273.82546  20630170.125                    20630175.777
 11  8 20  0 12 30.0000000  0  9G10G30G04G17G12G05G25G09G02
 109866403.180 8  85610310.75246  20906872.180                    20906879.906
 126354913.242 6  98458451.81643  24044550.922                    24044560.289
 112847488.377 8  87933221.07345  21474147.828                    21474155.414
 120997209.210 7  94283588.018 6  23024995.398                    23025003.188
 113718365.672 7  88611753.188 7  21639882.125                    21639889.316
 116973999.943 7  91148640.458 7  22259402.781                    22259411.922
 128506020.764 6 100134674.896 6  24453905.922                    24453916.895
 123082578.333 7  95908646.08544  23421861.586                    23421871.738
 108407197.140 8  84473242.47046  20629185.563                    20629191.086
 11  8 20  0 13  0.0000000  0  9G10G30G04G17G12G05G25G09G02
 109856686.000 8  85602738.93246  20905022.750                    20905030.383
 126252650.836 6  98378766.87743  24025090.758                    24025100.125
 112921828.007 8  87991148.04145  21488294.047                    21488302.129
 121047218.838 7  94322556.499 7  23034511.344                    23034520.188
 113651641.162 8  88559760.073 7  21627184.766                    21627191.957
 116879763.767 7  91075209.752 7  22241470.734                    22241479.832
 128404013.761 6 100055188.985 6  24434494.242                    24434505.469
 123157606.801 7  95967109.73344  23436139.141                    23436149.480
 108402330.400 8  84469450.22346  20628259.430                    20628264.969
 11  8 20  0 13 30.0000000  0  9G10G30G04G17G12G05G25G09G02
 109847592.125 8  85595652.81146  20903292.461                    20903300.430
 126150604.677 6  98299250.46443  24005672.383                    24005681.180
 112996336.583 8  88049206.65545  21502472.547                    21502480.488
 121097375.028 7  94361639.196 6  23044055.813                    23044063.910
 113585306.231 7  88508070.532 7  21614561.891                    21614569.078
 116785786.142 7  91001980.521 7  22223586.547                    22223595.637
 128302138.071 6  99975805.380 6  24415107.805                    24415119.469
 123232855.344 7  96025744.87444  23450458.727                    23450468.516
 108397769.629 8  84465896.38846  20627391.820                    20627397.148
 11  8 20  0 14  0.0000000  0  9G10G30G04G17G12G05G25G09G02
 109839121.906 8  85589052.64646  20901680.453                    20901688.340
 126048777.475 6  98219904.67443  23986294.977                    23986304.008
 113071011.870 8  88107395.17045  21516682.672                    21516690.773
 121147678.212 7  94400836.464 6  23053628.203                    23053636.039
 113519363.483 7  88456686.585 7  21602013.039                    21602020.176
 116692070.347 7  90928955.298 7  22205753.336                    22205762.133
 128200396.222 6  99896526.080 6  24395747.086                    24395758.348
 123308320.783 7  96084549.04744  23464818.828                    23464829.352
 108393513.845 8  84462580.20546  20626581.750                    20626587.500
 11  8 20  0 14 30.0000000  0  9G10G30G04G17G12G05G25G09G02
 109831275.527 8  85582938.59046  20900187.570                    20900195.305
 125947171.838 6  98140731.52943  23966959.664                    23966968.965
 113145851.461 8  88165711.72545  21530924.063                    21530932.270
 121198128.717 7  94440148.523 7  23063228.094                    23063236.965
 113453815.030 7  88405609.888 7  21589539.930                    21589546.781
 116598619.720 7  90856136.705 7  22187970.203                    22187979.133
 128098790.443 7  99817352.813 6  24376412.086                    24376423.703
 123383999.419 7  96143519.31644  23479219.781                    23479230.594
 108389561.691 8  84459500.61746  20625829.891                    20625835.590
 11  8 20  0 15  0.0000000  0  9G10G30G04G17G12G05G25G09G02
 109824054.211 8  85577311.59546  20898813.305                    20898820.895
 125845790.763 6  98061733.34343  23947667.875                    23947676.613
 113220853.524 8  88224154.87745  21545196.258                    21545204.488
 121248727.544 7  94479576.115 7  23072856.500                    23072865.930
 113388663.658 7  88354842.594 7  21577141.891                    21577149.492
 116505436.572 7  90783526.539 7  22170238.039                    22170246.305
 127997323.526 7  99738287.744 6  24357103.781                    24357114.566
 123459888.056 7  96202653.23644  23493661.797                    23493671.621
 108385912.309 8  84456656.95546  20625135.508                    20625140.801
 11  8 20  0 15 30.0000000  0  9G10G30G04G17G12G05G25G09G02
 109817458.475 8  85572172.06746  20897558.203                    20897565.910
 125744637.206 6  97982912.42643  23928418.984                    23928427.898
 113296016.088 8  88282723.09145  21559499.773                    21559507.750
 121299475.092 7  94519119.626 6  23082514.195                    23082522.285
 113323911.910 7  88304386.696 7  21564819.891                    21564826.945
 116412523.693 7  90711126.972 7  22152557.203                    22152566.094
 127895998.047 7  99659332.899 6  24337821.898                    24337833.195
 123535983.373 7  96261948.19244  23508142.117                    23508152.344
 108382564.626 8  84454048.37946  20624498.352                    20624503.742
 11  8 20  0 16  0.0000000  0  9G10G30G04G17G12G05G25G09G02
 109811488.806 7  85567520.38746  20896422.180                    20896430.070
 125643713.762 6  97904270.87543  23909213.977                    23909222.648
 113371336.955 8  88341414.66345  21573832.586                    21573840.871
 121350372.178 7  94558779.662 6  23092199.484                    23092207.398
 113259562.041 7  88254243.953 7  21552574.445                    21552581.664
 116319884.432 7  90638940.606 7  22134928.305                    22134936.938
 127794816.514 6  99580490.203 6  24318567.516                    24318579.324
 123612281.586 7  96321401.26244  23522661.180                    23522671.617
 108379517.522 7  84451674.02646  20623918.781                    20623923.836
 11  8 20  0 16 30.0000000  0  9G10G30G04G17G12G05G25G09G02
 109806146.040 8  85563357.20146  20895405.141                    20895413.227
 125543023.422 6  97825810.95143  23890052.680                    23890061.816
 113446813.847 8  88400227.80945  21588195.461                    21588203.746
 121401419.513 7  94598556.729 7  23101913.656                    23101922.168
 113195616.438 7  88204416.214 7  21540406.055                    21540413.313
 116227521.565 7  90566969.622 7  22117352.234                    22117360.969
 127693781.484 6  99501761.689 6  24299341.266                    24299352.066
 123688779.558 7  96381009.97843  23537217.984                    23537228.547
 108376770.112 7  84449533.19946  20623395.789                    20623400.984
 11  8 20  0 17  0.0000000  0  9G10G30G04G17G12G05G25G09G02
 109801430.127 7  85559682.47946  20894507.961                    20894515.992
 125442568.999 6  97747534.79943  23870937.734                    23870946.137
 113522445.064 8  88459161.20045  21602587.570                    21602595.648
 121452617.166 7  94638450.957 6  23111655.961                    23111664.742
 113132077.356 7  88154905.257 7  21528315.203                    21528322.352
 116135438.038 7  90495216.293 7  22099829.398                    22099837.930
 127592895.424 6  99423149.246 6  24280142.820                    24280154.016
 123765474.042 6  96440771.82343  23551812.430                    23551823.836
 108374320.951 7  84447624.77846  20622929.406                    20622934.805
 11  8 20  0 17 30.0000000  0  9G10G30G04G17G12G05G25G09G02
 109797341.878 8  85556496.83046  20893730.203                    20893737.828
 125342353.302 6  97669444.69943  23851866.875                    23851876.098
 113598228.353 8  88518213.10045  21617008.891                    21617017.137
 121503966.037 7  94678463.018 6  23121426.883                    23121435.977
 113068947.484 7  88105713.167 7  21516301.820                    21516308.852
 116043637.002 7  90423683.086 7  22082360.336                    22082369.148
 127492161.126 6  99344655.040 6  24260973.625                    24260984.914
 123842361.342 7  96500683.92144  23566444.188                    23566454.301
 108372169.347 8  84445948.21846  20622520.117                    20622525.590
 11  8 20  0 18  0.0000000  0  9G10G30G04G17G12G05G25G09G02
 109793881.718 8  85553800.61446  20893071.430                    20893079.102
 125242378.907 7  97591542.61543  23832842.602                    23832851.676
 113674161.543 8  88577381.79845  21631458.359                    21631466.387
 121555466.637 7  94718593.315 6  23131228.438                    23131236.074
 113006228.945 8  88056841.595 7  21504366.820                    21504374.051
 115952121.019 7  90352372.006 7  22064944.906                    22064953.859
 127391580.835 6  99266280.854 6  24241833.945                    24241845.180
 123919437.912 7  96560743.49244  23581111.016                    23581121.438
 108370313.484 8  84444502.10246  20622167.000                    20622172.359
 11  8 20  0 18 30.0000000  0  9G10G30G04G17G12G05G25G09G02
 109791050.122 8  85551594.19346  20892533.031                    20892540.441
 125142648.806 7  97513830.89043  23813863.969                    23813873.164
 113750242.557 8  88636665.67945  21645936.211                    21645944.246
 121607119.434 7  94758842.241 6  23141056.914                    23141065.563
 112943924.186 7  88008292.444 7  21492510.516                    21492517.512
 115860893.093 7  90281285.385 7  22047584.961                    22047593.617
 127291157.133 6  99188028.691 6  24222724.305                    24222734.980
 123996700.733 6  96620948.21144  23595813.688                    23595824.754
 108368752.623 8  84443285.86146  20621870.000                    20621875.375
 11  8 20  0 19  0.0000000  0  9G10G30G04G17G12G05G25G09G02
 109788847.474 7  85549877.84946  20892113.508                    20892121.195
 125043166.094 7  97436311.92544  23794933.141                    23794942.359
 113826469.646 8  88696063.39045  21660441.797                    21660450.102
 121658925.356 7  94799210.441 6  23150915.039                    23150924.082
 112882035.935 8  87960067.854 7  21480733.820                    21480741.031
 115769956.185 7  90210425.530 7  22030280.320                    22030289.070
 127190892.990 6  99109900.793 6  24203644.211                    24203655.137
 124074146.262 7  96681295.27244  23610551.148                    23610562.117
 108367486.140 8  84442299.01646  20621629.023                    20621634.051
 11  8 20  0 19 30.0000000  0  9G10G30G04G17G12G05G25G09G02
 109787274.097 8  85548651.84646  20891814.188                    20891821.848
 124943933.414 7  97358987.80744  23776049.969                    23776059.047
 113902840.758 8  88755573.33145  21674974.328                    21674982.773
 121710884.856 7  94839698.310 6  23160803.461                    23160810.676
 112820566.405 8  87912169.529 7  21469036.211                    21469043.043
 115679313.176 7  90139794.683 7  22013031.594                    22013040.121
 127090790.724 6  99031899.098 6  24184595.219                    24184606.836
 124151771.003 7  96741781.98844  23625323.219                    23625333.742
 108366512.605 8  84441540.42446  20621443.570                    20621448.887
 11  8 20  0 20  0.0000000  0  9G10G30G04G17G12G05G25G09G02
 109786330.088 8  85547916.26246  20891634.328                    20891642.340
 124844953.484 6  97281860.64644  23757215.008                    23757223.543
 113979353.495 8  88815193.62445  21689534.664                    21689542.855
 121762998.195 7  94880306.087 6  23170719.906                    23170728.031
 112759517.521 8  87864598.985 7  21457418.961                    21457426.164
 115588966.831 7  90069395.004 7  21995839.344                    21995847.977
 126990852.878 6  98954025.489 6  24165577.789                    24165589.004
 124229571.572 7  96802405.72944  23640128.406                    23640139.016
 108365830.529 8  84441008.95446  20621313.734                    20621319.172
 11  8 20  0 20 30.0000000  0  9G10G30G04G17G12G05G25G09G02
 109786016.127 8  85547671.62546  20891575.141                    20891582.816
 124746229.297 6  97204932.76844  23738427.813                    23738437.105
 114056006.045 8  88874922.85745  21704121.289                    21704129.094
 121815266.426 7  94921034.534 6  23180666.094                    23180674.977
 112698892.266 8  87817358.543 7  21445882.570                    21445889.617
 115498920.197 7  89999228.871 7  21978703.305                    21978711.973
 126891082.199 6  98876282.133 6  24146592.000                    24146603.664
 124307544.605 7  96863163.85644  23654966.617                    23654976.754
 108365439.232 8  84440704.06146  20621239.219                    20621244.699
 11  8 20  0 21  0.0000000  0  9G10G30G04G17G12G05G25G09G02
 109786332.126 8  85547917.86946  20891635.023                    20891642.637
 124647763.506 6  97128206.23044  23719691.148                    23719699.402
 114132796.274 8  88934759.36545  21718733.680                    21718741.465
 121867690.000 7  94961883.986 7  23190641.984                    23190650.797
 112638692.390 8  87770449.573 7  21434426.898                    21434433.715
 115409176.355 7  89929298.672 7  21961626.164                    21961634.992
 126791481.108 7  98798670.927 6  24127638.914                    24127650.125
 124385686.642 7  96924053.67344  23669835.859                    23669846.953
 108365337.368 8  84440624.69246  20621219.867                    20621225.723
 11  8 20  0 21 30.0000000  0  9G10G30G04G17G12G05G25G09G02
 109787278.421 8  85548655.24546  20891815.188                    20891822.992
 124549559.056 6  97051683.35643  23701003.000                    23701012.156
 114209722.394 8  88994701.75545  21733372.352                    21733380.473
 121920269.258 7  95002854.801 6  23200647.672                    23200655.941
 112578920.546 8  87723874.137 7  21423052.742                    21423059.883
 115319737.729 7  89859606.312 7  21944605.844                    21944614.707
 126692052.351 7  98721194.040 7  24108718.242                    24108729.609
 124463994.487 7  96985072.65344  23684737.961                    23684748.238
 108365523.877 8  84440770.02646  20621255.391                    20621260.730
 11  8 20  0 22  0.0000000  0  9G10G30G04G17G12G05G25G09G02
 109788855.486 8  85549884.13746  20892115.023                    20892122.879
 124451618.828 6  96975366.38243  23682365.156                    23682374.531
 114286782.381 8  89054748.47145  21748036.469                    21748044.473
 121973004.941 7  95043947.501 6  23210682.031                    23210691.555
 112519579.165 8  87677634.118 7  21411760.445                    21411767.527
 115230607.625 7  89790154.354 7  21927645.352                    21927653.781
 126592798.581 7  98643853.471 6  24089830.672                    24089841.613
 124542464.580 6  97046218.05544  23699670.008                    23699681.262
 108365997.745 8  84441139.27746  20621345.695                    20621350.926
 11  8 20  0 22 30.0000000  0  9G10G30G04G17G12G05G25G09G02
 109791063.657 7  85551604.79446  20892535.531                    20892543.063
 124353945.902 6  96899257.67443  23663778.711                    23663787.527
 114363974.555 8  89114898.18945  21762725.430                    21762733.922
 122025897.603 7  95085162.499 7  23220747.961                    23220757.258
 112460670.676 8  87631731.417 7  21400550.836                    21400557.609
 115141788.720 7  89720944.888 7  21910743.094                    21910752.219
 126493722.498 7  98566651.389 7  24070977.039                    24070988.219
 124621093.857 6  97107487.53044  23714633.047                    23714643.418
 108366758.054 8  84441731.73446  20621490.430                    20621495.648
 11  8 20  0 23  0.0000000  0  9G10G30G04G17G12G05G25G09G02
 109793902.804 7  85553817.11946  20893075.563                    20893083.371
 124256543.040 6  96823359.42943  23645243.219                    23645252.293
 114441296.669 7  89175149.15445  21777439.766                    21777447.660
 122078947.997 7  95126500.410 6  23230843.578                    23230851.898
 112402197.249 8  87586167.723 7  21389423.500                    21389430.426
 115053284.096 7  89651980.313 7  21893901.500                    21893910.371
 126394826.729 7  98489589.826 7  24052158.281                    24052169.465
 124699878.751 6  97168878.28143  23729624.359                    23729635.969
 108367803.692 8  84442546.52346  20621689.203                    20621694.617
 11  8 20  0 23 30.0000000  0  9G10G30G04G17G12G05G25G09G02
 109797372.912 7  85556521.10546  20893736.172                    20893743.813
 124159412.789 6  96747673.58743  23626759.547                    23626769.254
 114518746.898 8  89235499.94445  21792177.750                    21792186.148
 122132156.490 7  95167961.553 6  23240968.523                    23240976.934
 112344160.920 7  87540944.630 7  21378379.508                    21378386.539
 114965096.274 7  89583262.596 7  21877119.883                    21877128.523
 126296113.674 6  98412670.638 7  24033372.633                    24033384.598
 124778815.573 6  97230387.40343  23744646.203                    23744657.070
 108369132.975 7  84443582.33146  20621942.328                    20621947.480
 11  8 20  0 24  0.0000000  0  9G10G30G04G17G12G05G25G09G02
 109801473.890 7  85559716.67646  20894516.281                    20894524.188
 124062558.090 7  96672202.46243  23608329.195                    23608338.352
 114596322.891 7  89295948.73845  21806940.305                    21806948.438
 122185523.472 7  95209546.175 6  23251124.016                    23251131.891
 112286564.109 7  87496064.022 7  21367419.141                    21367425.996
 114877228.290 7  89514794.110 7  21860399.133                    21860407.953
 126197586.057 7  98335895.935 7  24014623.766                    24014635.066
 124857901.098 6  97292012.36343  23759696.117                    23759706.090
 108370744.867 8  84444838.35146  20622248.977                    20622254.344
 11  8 20  0 24 30.0000000  0  9G10G30G04G17G12G05G25G09G02
 109806206.218 7  85563404.22146  20895416.398                    20895424.500
 123965981.729 7  96596948.19543  23589951.000                    23589959.543
 114674022.947 8  89356494.20545  21821726.227                    21821734.133
 122239049.752 7  95251254.927 6  23261310.563                    23261318.324
 112229409.061 8  87451527.637 7  21356542.750                    21356550.262
 114789682.806 7  89446576.917 7  21843739.617                    21843748.227
 126099246.306 6  98259267.630 6  23995909.563                    23995922.023
 124937131.903 6  97353750.52743  23774772.188                    23774783.688
 108372638.161 7  84446313.65346  20622609.375                    20622614.574
 11  8 20  0 25  0.0000000  0  9G10G30G04G17G12G05G25G09G02
 109811569.953 7  85567583.75646  20896437.383                    20896445.453
 123869686.671 7  96521913.13243  23571626.781                    23571635.828
 114751845.029 7  89417134.75145  21836535.195                    21836543.133
 122292735.640 7  95293088.059 6  23271525.766                    23271533.879
 112172697.985 7  87407337.208 7  21345751.094                    21345758.355
 114702462.714 7  89378613.264 7  21827142.383                    21827150.789
 126001097.207 6  98182787.907 6  23977232.273                    23977244.406
 125016504.756 6  97415599.41743  23789877.516                    23789888.031
 108374811.749 8  84448007.35546  20623022.734                    20623027.934
 11  8 20  0 25 30.0000000  0  9G10G30G04G17G12G05G25G09G02
 109817564.753 7  85572255.03546  20897578.234                    20897586.258
 123773675.596 7  96447099.36943  23553356.891                    23553365.324
 114829787.127 8  89477868.82845  21851367.008                    21851375.070
 122346582.144 7  95335046.318 6  23281772.602                    23281780.789
 112116433.201 7  87363494.536 7  21335043.891                    21335051.066
 114615570.813 7  89310905.358 7  21810607.594                    21810615.738
 125903141.383 7  98106458.766 6  23958592.789                    23958603.785
 125096016.081 7  97477556.20144  23805007.734                    23805018.844
 108377264.658 8  84449918.71546  20623489.469                    20623494.930
 11  8 20  0 26  0.0000000  0  9G10G30G04G17G12G05G25G09G02
 109824190.828 7  85577418.21846  20898838.711                    20898846.887
 123677951.752 7  96372509.40743  23535140.813                    23535149.637
 114907847.751 8  89538695.25345  21866221.391                    21866229.797
 122400589.401 7  95377129.877 6  23292050.094                    23292058.445
 112060617.197 8  87320001.566 7  21324422.875                    21324429.840
 114529009.981 7  89243455.418 7  21794135.203                    21794143.926
 125805381.711 6  98030282.483 6  23939989.031                    23940000.809
 125175662.797 6  97539618.50043  23820163.797                    23820174.352
 108379995.975 7  84452047.02246  20624009.453                    20624014.668
 11  8 20  0 26 30.0000000  0  9G10G30G04G17G12G05G25G09G02
 109831448.167 7  85583073.29146  20900220.266                    20900228.215
 123582517.631 7  96298145.18743  23516980.203                    23516988.758
 114986024.707 8  89599612.34045  21881098.219                    21881106.273
 122454757.902 7  95419339.066 6  23302357.852                    23302366.809
 112005252.050 7  87276859.909 7  21313887.188                    21313894.191
 114442783.017 7  89176265.632 7  21777726.719                    21777735.258
 125707820.626 7  97954260.923 6  23921423.867                    23921435.609
 125255441.563 7  97601783.66143  23835346.297                    23835356.371
 108383004.178 8  84454391.08846  20624581.523                    20624587.141
 11  8 20  0 27  0.0000000  0  9G10G30G04G17G12G05G25G09G02
 109839336.415 8  85589219.98746  20901721.367                    20901729.063
 123487375.966 7  96224008.85644  23498875.250                    23498883.930
 115064316.255 8  89660618.72045  21895996.633                    21896004.902
 122509088.231 7  95461674.301 6  23312696.398                    23312705.289
 111950339.595 8  87234070.996 7  21303437.539                    21303444.621
 114356892.642 7  89109338.124 7  21761382.336                    21761390.895
 125610460.619 7  97878396.063 6  23902897.531                    23902908.383
 125335348.915 7  97664049.02543  23850551.875                    23850562.121
 108386288.091 8  84456949.98746  20625206.727                    20625211.871
 11  8 20  0 27 30.0000000  0  9G10G30G04G17G12G05G25G09G02
 109847855.263 8  85595858.06146  20903342.633                    20903350.008
 123392529.643 7  96150102.66544  23480826.234                    23480835.027
 115142720.291 8  89721712.73945  21910916.203                    21910924.793
 122563581.133 7  95504136.247 6  23323066.219                    23323075.219
 111895882.212 7  87191636.683 7  21293074.656                    21293081.527
 114271341.588 7  89042675.030 7  21745102.633                    21745110.801
 125513304.396 7  97802689.936 6  23884409.414                    23884419.742
 125415381.331 7  97726411.86143  23865781.320                    23865792.512
 108389846.503 8  84459722.78946  20625883.953                    20625889.238
 11  8 20  0 28  0.0000000  0  9G10G30G04G17G12G05G25G09G02
 109857005.196 8  85602987.88346  20905083.313                    20905091.414
 123297981.721 6  96076429.00143  23462834.680                    23462843.570
 115221234.972 8  89782892.99145  21925857.523                    21925865.488
 122618237.020 7  95546725.224 6  23333466.563                    23333475.164
 111841882.354 7  87149558.885 7  21282799.055                    21282806.129
 114186132.959 8  88976278.749 7  21728887.781                    21728896.168
 125416354.682 7  97727144.753 6  23865960.320                    23865970.621
 125495535.444 7  97788869.52644  23881033.844                    23881045.285
 108393678.374 8  84462708.66546  20626612.828                    20626618.020
 11  8 20  0 28 30.0000000  0  9G10G30G04G17G12G05G25G09G02
 109866785.881 8  85610609.20746  20906944.625                    20906952.504
 123203734.903 6  96002989.96543  23444899.203                    23444909.285
 115299858.613 7  89844158.14845  21940818.961                    21940826.898
 122673056.212 7  95589441.396 7  23343898.977                    23343907.930
 111788342.480 7  87107839.506 7  21272610.313                    21272617.457
 114101269.316 7  88910151.295 7  21712739.078                    21712747.121
 125319614.271 7  97651762.661 6  23847551.047                    23847562.055
 125575807.934 6  97851419.42043  23896309.469                    23896321.172
 108397782.107 8  84465906.39446  20627393.797                    20627399.117
 11  8 20  0 29  0.0000000  0  9G10G30G04G17G12G05G25G09G02
 109877197.160 8  85618721.89346  20908925.836                    20908933.656
 123109792.127 6  95929787.83743  23427022.898                    23427032.703
 115378589.292 8  89905506.71145  21955800.711                    21955809.188
 122728039.441 7  95632285.391 7  23354362.602                    23354371.543
 111735263.939 8  87066479.607 7  21262509.914                    21262517.313
 114016753.773 8  88844295.085 7  21696656.047                    21696664.297
 125223085.711 7  97576545.625 6  23829183.180                    23829193.016
 125656195.494 7  97914058.97944  23911606.641                    23911617.949
 108402157.201 8  84469315.55946  20628226.430                    20628231.805
 11  8 20  0 29 30.0000000  0  9G10G30G04G17G12G05G25G09G02
 109888238.447 8  85627325.50146  20911026.938                    20911034.523
 123016156.186 6  95856824.82043  23409205.195                    23409214.137
 115457425.044 8  89966937.14145  21970802.875                    21970810.957
 122783187.203 7  95675257.632 6  23364856.328                    23364864.609
 111682649.289 8  87025481.185 7  21252497.500                    21252505.016
 113932588.805 7  88778712.046 7  21680639.766                    21680648.344
 125126771.634 7  97501495.719 6  23810854.234                    23810864.961
 125736694.903 7  97976785.68044  23926925.680                    23926936.773
 108406802.313 8  84472935.13346  20629110.195                    20629115.703
 11  8 20  0 30  0.0000000  0  9G10G30G04G17G12G05G25G09G02
 109899909.709 8  85636420.00746  20913248.086                    20913255.484
 122922829.868 6  95784103.07843  23391445.945                    23391454.809
 115536364.042 8  90028448.03045  21985824.500                    21985832.703
 122838500.123 7  95718358.561 6  23375381.859                    23375390.422
 111630500.887 7  86984846.069 7  21242574.391                    21242581.258
 113848777.143 7  88713404.319 7  21664690.734                    21664699.180
 125030674.713 7  97426615.047 6  23792567.727                    23792578.535
 125817302.753 6  98039596.87244  23942264.711                    23942275.820
 108411716.261 8  84476764.18246  20630045.531                    20630050.770
 11  8 20  0 30 30.0000000  0  9G10G30G04G17G12G05G25G09G02
 109912210.850 8  85646005.32146  20915589.086                    20915596.664
 122829816.162 6  95711624.90444  23373745.594                    23373754.375
 115615404.603 7  90090038.05045  22000865.070                    22000873.461
 122893978.710 7  95761588.572 6  23385939.766                    23385948.184
 111578820.605 8  86944575.720 7  21232739.688                    21232746.895
 113765321.506 7  88648374.020 7  21648809.828                    21648818.039
 124934797.734 7  97351905.751 6  23774322.359                    23774333.766
 125898015.791 6  98102490.04344  23957623.523                    23957635.402
 108416897.961 8  84480801.87046  20631031.500                    20631036.930
 11  8 20  0 31  0.0000000  0  9G10G30G04G17G12G05G25G09G02
 109925141.337 8  85656081.04446  20918049.383                    20918056.961
 122737117.568 7  95639392.28444  23356105.883                    23356113.965
 115694544.545 7  90151705.52145  22015925.016                    22015933.281
 122949623.456 7  95804948.057 6  23396528.531                    23396537.152
 111527610.250 8  86904671.549 7  21222994.484                    21223001.992
 113682224.399 7  88583623.089 7  21632997.195                    21633005.207
 124839143.032 7  97277369.660 6  23756119.953                    23756131.000
 125978830.349 7  98165462.30743  23973002.422                    23973014.008
 108422345.659 8  84485046.82946  20632068.391                    20632073.496
 11  8 20  0 31 30.0000000  0  9G10G30G04G17G12G05G25G09G02
 109938700.863 8  85666646.92446  20920629.406                    20920637.145
 122644737.101 6  95567407.55544  23338526.508                    23338534.504
 115773782.395 7  90213449.28045  22031003.227                    22031011.859
 123005434.659 7  95848437.285 6  23407147.922                    23407157.117
 111476872.407 7  86865135.571 7  21213339.609                    21213346.457
 113599489.032 7  88519154.026 7  21617253.086                    21617261.289
 124743713.515 7  97203009.031 6  23737960.648                    23737971.684
 126059743.146 6  98228511.14744  23988399.711                    23988411.086
 108428058.359 8  84489498.28846  20633155.297                    20633160.324
 11  8 20  0 32  0.0000000  0  9G10G30G04G17G12G05G25G09G02
 109952889.205 8  85677702.78246  20923329.461                    20923337.266
 122552677.833 6  95495673.10344  23321008.227                    23321016.203
 115853116.526 7  90275268.06045  22046100.398                    22046108.566
 123061413.048 7  95892056.773 6  23417800.953                    23417808.766
 111426609.188 8  86825969.431 7  21203774.797                    21203782.031
 113517118.059 7  88454968.909 7  21601577.945                    21601586.367
 124648512.112 7  97128826.174 6  23719843.813                    23719855.246
 126140751.294 6  98291634.27243  24003815.641                    24003826.277
 108434035.625 8  84494155.91246  20634292.773                    20634297.910
 11  8 20  0 32 30.0000000  0  9G10G30G04G17G12G05G25G09G02
 109967705.226 8  85689247.75646  20926148.961                    20926156.613
 122460942.047 7  95424190.70943  23303551.578                    23303559.387
 115932544.568 7  90337160.01245  22061215.094                    22061223.238
 123117558.455 7  95935806.363 6  23428484.914                    23428493.617
 111376822.047 8  86787174.260 7  21194300.852                    21194307.773
 113435113.928 7  88391069.646 7  21585973.148                    21585981.590
 124553540.829 7  97054822.613 6  23701771.516                    23701783.031
 126221851.008 7  98354828.74243  24019248.000                    24019259.496
 108440274.904 8  84499017.69346  20635480.039                    20635485.375
 11  8 20  0 33  0.0000000  0  9G10G30G04G17G12G05G25G09G02
 109983148.793 8  85701281.72046  20929087.680                    20929095.266
 122369532.705 7  95352962.70443  23286156.078                    23286165.102
 116012064.968 7  90399123.94545  22076347.297                    22076355.898
 123173872.069 6  95979687.032 6  23439201.070                    23439210.313
 111327513.492 8  86748752.019 7  21184917.852                    21184924.699
 113353479.487 7  88327458.457 7  21570438.172                    21570446.867
 124458802.652 7  96981000.706 6  23683743.117                    23683754.805
 126303039.161 6  98418092.11444  24034697.695                    24034709.391
 108446775.815 8  84504083.34246  20636716.953                    20636722.219
 11  8 20  0 33 30.0000000  0  9G10G30G04G17G12G05G25G09G02
 109999219.797 8  85713804.59546  20932146.047                    20932153.559
 122278452.914 7  95281991.48044  23268824.219                    23268832.086
 116091676.220 7  90461158.66845  22091496.711                    22091505.199
 123230354.272 6  96023699.052 6  23449949.625                    23449957.863
 111278685.776 8  86710704.462 7  21175626.328                    21175632.754
 113272217.495 7  88264137.479 7  21554974.891                    21554983.426
 124364300.469 7  96907362.701 6  23665760.594                    23665771.422
 126384312.631 6  98481421.96843  24050164.258                    24050174.746
 108453537.304 8  84509352.04446  20638003.703                    20638008.770
 11  8 20  0 34  0.0000000  0  9G10G30G04G17G12G05G25G09G02
 110015917.818 8  85726816.06146  20935323.383                    20935331.219
 122187705.454 7  95211279.23043  23251555.883                    23251564.594
 116171376.441 7  90523262.71745  22106663.000                    22106671.867
 123287005.336 7  96067842.680 6  23460729.891                    23460738.625
 111230340.797 8  86673033.053 7  21166426.391                    21166433.555
 113191330.890 7  88201109.009 7  21539582.688                    21539590.969
 124270036.970 7  96833910.686 7  23647822.992                    23647833.695
 126465668.003 6  98544815.68043  24065644.859                    24065656.512
 108460558.252 8  84514822.92446  20639339.836                    20639344.344
 11  8 20  0 34 30.0000000  0  9G10G30G04G17G12G05G25G09G02
 110033241.882 8  85740315.35646  20938619.820                    20938628.051
 122097292.903 7  95140827.93843  23234350.438                    23234359.102
 116251163.817 7  90585434.65745  22121846.133                    22121854.777
 123343826.076 7  96112118.528 6  23471542.813                    23471551.582
 111182480.519 8  86635739.340 7  21157318.563                    21157325.801
 113110821.683 7  88138374.615 7  21524262.336                    21524270.250
 124176014.614 7  96760646.570 6  23629930.500                    23629941.523
 126547101.723 6  98608270.40943  24081142.492                    24081153.113
 108467837.051 8  84520494.72346  20640724.797                    20640730.113
 11  8 20  0 35  0.0000000  0  9G10G30G04G17G12G05G25G09G02
 110051191.430 8  85754302.03846  20942035.859                    20942043.660
 122007217.878 6  95070639.67143  23217209.781                    23217218.512
 116331036.306 7  90647672.93445  22137045.508                    22137053.828
 123400816.942 7  96156526.916 6  23482387.766                    23482396.629
 111135106.629 8  86598824.631 7  21148303.859                    21148310.695
 113030692.456 7  88075936.310 7  21509014.563                    21509022.430
 124082235.851 7  96687572.260 6  23612085.141                    23612095.738
 126628610.295 6  98671783.49343  24096652.828                    24096663.145
 108475372.186 8  84526366.26846  20642158.445                    20642163.629
 11  8 20  0 35 30.0000000  0  9G10G30G04G17G12G05G25G09G02
 110069766.317 8  85768775.99046  20945570.383                    20945578.031
 121917483.613 7  95000716.92144  23200134.086                    23200142.727
 116410992.491 7  90709976.43045  22152260.609                    22152268.945
 123457977.706 7  96201067.723 6  23493265.555                    23493274.090
 111088221.302 8  86562290.618 7  21139381.664                    21139388.391
 112950946.707 7  88013796.817 7  21493839.250                    21493847.387
 123988703.761 7  96614690.168 6  23594286.813                    23594297.559
 126710191.139 6  98735352.87343  24112176.391                    24112187.980
 108483163.001 8  84532437.04946  20643641.539                    20643646.555
 11  8 20  0 36  0.0000000  0  9G10G30G04G17G12G05G25G09G02
 110088965.814 8  85783736.65546  20949223.930                    20949231.582
 121828092.732 7  94931061.75144  23183123.234                    23183132.637
 116491030.763 7  90772343.88945  22167491.477                    22167500.012
 123515309.414 7  96245741.718 6  23504175.211                    23504184.188
 111041826.580 8  86526138.892 7  21130552.883                    21130560.137
 112871586.467 7  87951957.724 7  21478736.930                    21478745.258
 123895420.915 7  96542002.288 6  23576535.492                    23576545.980
 126791840.763 6  98798975.83643  24127714.094                    24127725.355
 108491208.364 8  84538706.16246  20645172.195                    20645177.711
 11  8 20  0 36 30.0000000  0  9G10G30G04G17G12G05G25G09G02
 110108789.042 8  85799183.34045  20952996.156                    20953003.773
 121739047.927 7  94861676.25044  23166178.773                    23166187.539
 116571149.218 7  90834773.82645  22182737.539                    22182745.953
 123572812.577 6  96290549.296 6  23515117.438                    23515126.012
 110995924.317 8  86490370.905 7  21121818.438                    21121825.293
 112792614.444 8  87890421.142 7  21463709.164                    21463717.535
 123802389.934 7  96469510.661 6  23558832.516                    23558842.465
 126873555.767 6  98862649.78443  24143264.117                    24143275.688
 108499506.970 8  84545172.61646  20646751.445                    20646756.988
 11  8 20  0 37  0.0000000  0  9G10G30G04G17G12G05G25G09G02
 110129235.567 8  85815115.71746  20956887.180                    20956894.539
 121650352.153 7  94792562.68644  23149300.586                    23149309.457
 116651346.213 7  90897264.96245  22197998.625                    22198006.535
 123630487.234 6  96335490.497 6  23526092.820                    23526102.129
 110950516.732 8  86454988.377 7  21113177.813                    21113184.598
 112714033.307 8  87829189.144 7  21448755.570                    21448763.922
 123709613.558 7  96397217.428 6  23541177.555                    23541187.910
 126955332.940 6  98926372.15043  24158825.656                    24158836.902
 108508057.373 8  84551835.27646  20648378.570                    20648383.613
 11  8 20  0 37 30.0000000  0  9G10G30G04G17G12G05G25G09G02
 110150304.946 8  85831533.43346  20960896.430                    20960903.949
 121562008.220 6  94723723.29844  23132489.164                    23132497.930
 116731620.061 7  90959815.97645  22213274.133                    22213282.723
 123688334.088 6  96380565.887 6  23537099.641                    23537109.547
 110905605.655 8  86419992.737 7  21104631.344                    21104638.098
 112635845.553 7  87768263.672 7  21433876.953                    21433885.297
 123617094.543 7  96325124.748 6  23523571.281                    23523582.230
 127037169.208 6  98990140.58443  24174398.664                    24174410.148
 108516858.749 8  84558693.50146  20650053.477                    20650058.688
 11  8 20  0 38  0.0000000  0  9G10G30G04G17G12G05G25G09G02
 110171996.176 8  85848435.71946  20965024.375                    20965031.543
 121474018.790 7  94655160.13544  23115745.164                    23115754.098
 116811969.229 7  91022425.69445  22228564.648                    22228572.477
 123746353.591 6  96425775.841 6  23548140.469                    23548149.855
 110861193.010 8  86385385.482 7  21096179.961                    21096186.629
 112558053.927 7  87707646.871 7  21419073.414                    21419081.836
 123524835.522 7  96253234.639 6  23506015.500                    23506025.777
 127119061.202 6  99053952.42943  24189982.195                    24189994.160
 108525909.789 8  84565746.26046  20651775.867                    20651780.809
 11  8 20  0 38 30.0000000  0  9G10G30G04G17G12G05G25G09G02
 110194308.166 8  85865821.70146  20969269.930                    20969277.516
 121386386.665 7  94586875.40944  23099069.602                    23099078.223
 116892391.819 7  91085092.62045  22243868.320                    22243876.430
 123804546.207 6  96471120.683 6  23559214.969                    23559223.426
 110817280.457 8  86351167.910 7  21087823.391                    21087830.344
 112480661.006 7  87647340.752 7  21404346.359                    21404354.348
 123432839.151 7  96181549.208 6  23488508.500                    23488519.195
 127201005.460 6  99117804.99143  24205575.813                    24205587.863
 108535209.309 8  84572992.64746  20653545.516                    20653550.500
 11  8 20  0 39  0.0000000  0  9G10G30G04G17G12G05G25G09G02
 110217240.154 8  85883690.80446  20973633.727                    20973640.988
 121299114.542 7  94518871.17944  23082462.477                    23082470.922
 116972886.001 7  91147815.33345  22259185.797                    22259194.398
 123862912.055 7  96516600.503 6  23570322.313                    23570330.258
 110773869.677 8  86317341.328 7  21079562.602                    21079569.711
 112403669.306 8  87587347.269 7  21389695.367                    21389703.414
 123341107.889 7  96110070.349 6  23471053.219                    23471063.375
 127282998.775 6  99181695.79443  24221179.266                    24221190.215
 108544755.641 8  84580431.34846  20655361.758                    20655367.215
 11  8 20  0 39 30.0000000  0  9G10G30G04G17G12G05G25G09G02
 110240791.434 8  85902042.45946  20978115.023                    20978122.809
 121212204.980 7  94451149.46744  23065923.695                    23065932.402
 117053450.218 7  91210592.61445  22274516.547                    22274524.789
 123921451.776 6  96562215.817 6  23581461.531                    23581470.402
 110730962.579 8  86283907.226 7  21071397.805                    21071404.328
 112327081.487 8  87527668.498 7  21375121.320                    21375129.012
 123249644.372 7  96038800.115 6  23453647.609                    23453658.684
 127365037.763 6  99245622.17143  24236791.070                    24236802.074
 108554547.448 8  84588061.32646  20657225.398                    20657230.406
 11  8 20  0 40  0.0000000  0  9G10G30G04G17G12G05G25G09G02
 110264961.242 8  85920876.09546  20982714.703                    20982722.020
 121125661.005 7  94383712.61444  23049455.227                    23049464.254
 117134082.707 7  91273423.08645  22289860.227                    22289868.824
 123980165.776 7  96607966.940 6  23592635.445                    23592642.734
 110688561.260 8  86250867.242 7  21063329.344                    21063336.418
 112250899.803 8  87468306.207 7  21360623.789                    21360632.375
 123158451.517 7  95967740.778 6  23436294.781                    23436305.375
 127447119.508 6  99309581.86243  24252410.094                    24252421.805
 108564583.853 8  84595881.90846  20659134.984                    20659140.543
 11  8 20  0 40 30.0000000  0  9G10G30G04G17G12G05G25G09G02
 110289748.936 8  85940191.18946  20987431.508                    20987439.152
 121039485.396 7  94316562.82744  23033056.469                    23033065.500
 117214782.213 7  91336305.79245  22305217.492                    22305225.160
 124039054.677 7  96653854.365 6  23603840.664                    23603849.234
 110646667.767 8  86218222.961 7  21055356.898                    21055364.023
 112175127.039 8  87409262.543 7  21346204.852                    21346213.133
 123067532.060 7  95896894.476 7  23418993.281                    23419003.695
 127529240.812 6  99373572.40143  24268037.406                    24268048.844
 108574864.200 8  84603892.57146  20661091.641                    20661096.836
 11  8 20  0 41  0.0000000  0  9G10G30G04G17G12G05G25G09G02
 110315153.522 8  85959986.98146  20992265.758                    20992273.523
 120953681.088 7  94249702.36544  23016728.734                    23016736.734
 117295547.062 7  91399239.42745  22320586.430                    22320594.547
 124098118.599 7  96699878.140 6  23615080.742                    23615089.707
 110605283.656 8  86185975.603 7  21047482.203                    21047488.988
 112099765.794 8  87350539.547 7  21331863.984                    21331872.336
 122976888.798 7  95826263.409 7  23401744.211                    23401755.332
 127611398.191 6  99437591.04543  24283671.328                    24283683.500
 108585386.995 8  84612092.15346  20663094.219                    20663099.094
 11  8 20  0 41 30.0000000  0  9G10G30G04G17G12G05G25G09G02
 110341174.047 8  85980262.72346  20997217.711                    20997224.707
 120868250.474 7  94183133.08344  23000471.781                    23000479.660
 117376375.581 7  91462222.67445  22335967.008                    22335975.754
 124157358.042 7  96746038.676 6  23626353.320                    23626362.367
 110564410.790 8  86154126.613 7  21039703.938                    21039711.102
 112024818.347 8  87292138.990 7  21317602.063                    21317609.914
 122886524.205 7  95755849.461 7  23384549.125                    23384559.766
 127693588.657 6  99501635.43343  24299310.977                    24299323.152
 108596150.878 8  84620479.59546  20665142.086                    20665147.164
 11  8 20  0 42  0.0000000  0  9G10G30G04G17G12G05G25G09G02
 110367809.207 8  86001017.39446  21002286.039                    21002293.473
 120783196.233 7  94116857.08844  22984285.734                    22984294.488
 117457265.944 7  91525254.10645  22351360.117                    22351368.539
 124216773.148 7  96792336.117 6  23637660.375                    23637668.930
 110524050.596 8  86122677.114 7  21032023.633                    21032030.383
 111950287.386 8  87234062.955 7  21303419.203                    21303427.309
 122796440.723 7  95685654.587 7  23367406.078                    23367416.844
 127775808.831 6  99565702.98443  24314957.906                    24314969.961
 108607154.206 8  84629053.61046  20667235.992                    20667241.488
 11  8 20  0 42 30.0000000  0  9G10G30G04G17G12G05G25G09G02
 110395058.285 8  86022250.44646  21007471.070                    21007478.871
 120698521.140 7  94050876.53544  22968173.453                    22968180.734
 117538216.662 7  91588332.55645  22366764.750                    22366773.344
 124276364.518 6  96838770.913 6  23648999.453                    23649008.781
 110484204.924 8  86091628.539 7  21024441.297                    21024448.352
 111876175.139 8  87176313.205 7  21289316.250                    21289324.309
 122706641.263 7  95615681.003 7  23350317.391                    23350328.438
 127858055.484 6  99629791.19843  24330609.203                    24330620.859
 108618395.988 8  84637813.43846  20669375.547                    20669380.719
 11  8 20  0 43  0.0000000  0  9G10G30G04G17G12G05G25G09G02
 110422920.667 7  86043961.39946  21012773.289                    21012780.828
 120614228.184 7  93985193.75444  22952132.211                    22952141.043
 117619226.254 7  91651456.89345  22382180.273                    22382188.871
 124336132.467 6  96885343.285 6  23660372.344                    23660382.707
 110444875.863 8  86060982.526 7  21016956.984                    21016964.168
 111802484.450 8  87118891.945 7  21275293.664                    21275301.539
 122617128.616 7  95545930.932 6  23333284.109                    23333295.031
 127940325.344 6  99693897.48543  24346264.625                    24346276.313
 108629875.073 8  84646758.18746  20671559.680                    20671565.125
 11  8 20  0 43 30.0000000  0  9G10G30G04G17G12G05G25G09G02
 110451395.176 8  86066149.32845  21018191.617                    21018199.508
 120530319.994 7  93919810.77444  22936165.336                    22936173.602
 117700293.188 7  91714625.90744  22397606.758                    22397614.941
 124396077.757 6  96932053.802 6  23671780.063                    23671790.070
 110406065.120 8  86030740.393 7  21009571.875                    21009578.605
 111729217.650 8  87061800.974 7  21261351.008                    21261359.336
 122527905.449 7  95476406.427 7  23316305.273                    23316316.355
 128022615.792 6  99758019.78343  24361924.258                    24361935.840
 108641590.889 8  84655887.39646  20673789.094                    20673794.570
 11  8 20  0 44  0.0000000  0  9G10G30G04G17G12G05G25G09G02
 110480480.486 8  86088813.21546  21023726.320                    21023734.258
 120446799.140 7  93854729.64744  22920271.594                    22920279.871
 117781415.779 7  91777838.29844  22413043.938                    22413052.613
 124456200.337 6  96978902.514 6  23683220.695                    23683230.688
 110367774.059 8  86000903.206 7  21002285.180                    21002291.875
 111656377.040 8  87005042.113 7  21247489.898                    21247497.984
 122438974.324 7  95407109.499 6  23299382.656                    23299393.102
 128104923.424 6  99822155.50043  24377586.141                    24377598.246
 108653541.759 8  84665199.75746  20676063.070                    20676068.176
 11  8 20  0 44 30.0000000  0  9G10G30G04G17G12G05G25G09G02
 110510175.880 8  86111952.48246  21029377.219                    21029385.086
 120363668.359 7  93789952.44844  22904452.719                    22904460.930
 117862592.625 7  91841092.96744  22428491.531                    22428499.586
 124516500.626 6  97025889.712 6  23694695.766                    23694704.594
 110330004.255 8  85971472.192 7  20995097.859                    20995104.707
 111583964.842 8  86948617.066 7  21233710.375                    21233718.348
 122350337.856 7  95338042.170 6  23282515.641                    23282526.305
 128187244.835 6  99886301.96943  24393252.656                    24393264.016
 108665726.324 8  84674694.23546  20678381.680                    20678386.801
 11  8 20  0 45  0.0000000  0  9G10G30G04G17G12G05G25G09G02
 110540480.036 8  86135566.11446  21035144.016                    21035151.781
 120280930.520 7  93725481.46244  22888707.938                    22888716.285
 117943822.214 7  91904388.72245  22443949.422                    22443957.172
 124576979.196 7  97073015.836 6  23706204.969                    23706213.324
 110292757.792 8  85942448.986 7  20988010.477                    20988017.156
 111511983.828 8  86892528.010 7  21220012.766                    21220020.559
 122261998.969 7  95269206.707 6  23265704.797                    23265715.242
 128269577.074 6  99950456.83343  24408919.375                    24408930.711
 108678143.815 8  84684370.20346  20680744.992                    20680750.098
 11  8 20  0 45 30.0000000  0  9G10G30G04G17G12G05G25G09G02
 110571391.753 8  86159653.15846  21041026.258                    21041033.918
 120198588.319 7  93661318.74644  22873038.258                    22873046.594
 118025102.970 7  91967724.36244  22459416.172                    22459424.879
 124637636.511 7  97120281.211 6  23717747.680                    23717756.840
 110256036.415 8  85913834.934 7  20981022.320                    20981029.332
 111440436.539 8  86836776.924 7  21206397.922                    21206405.473
 122173960.310 7  95200605.212 6  23248951.852                    23248962.078
 128351917.063 6 100014617.78142  24424588.563                    24424598.891
 108690792.620 8  84694226.42046  20683151.930                    20683157.234
 11  8 20  0 46  0.0000000  0  9G10G30G04G17G12G05G25G09G02
 110602910.328 8  86184213.09145  21047023.914                    21047031.727
 120116644.724 7  93597466.62244  22857444.859                    22857453.574
 118106433.702 7  92031098.94245  22474892.406                    22474901.086
 124698473.013 7  97167686.239 6  23729324.703                    23729333.773
 110219841.646 8  85885631.230 7  20974134.359                    20974141.379
 111369325.693 8  86781365.921 7  21192865.891                    21192873.852
 122086224.833 7  95132239.959 6  23232256.555                    23232266.520
 128434261.831 6 100078782.42143  24440258.500                    24440269.309
 108703671.903 8  84704262.23146  20685602.672                    20685607.617
 11  8 20  0 46 30.0000000  0  9G10G30G04G17G12G05G25G09G02
 110635033.908 8  86209244.44346  21053137.039                    21053144.621
 120035101.701 7  93533926.64344  22841928.047                    22841936.848
 118187812.245 7  92094510.78545  22490378.938                    22490387.348
 124759488.459 6  97215230.737 6  23740935.430                    23740944.082
 110184174.776 8  85857838.871 7  20967347.414                    20967354.363
 111298652.647 8  86726296.063 7  21179417.016                    21179425.023
 121998794.486 7  95064112.461 6  23215618.844                    23215629.043
 128516607.783 6 100142947.99043  24455927.695                    24455940.195
 108716779.781 8  84714476.17246  20688097.328                    20688102.422
 11  8 20  0 47  0.0000000  0  9G10G30G04G17G12G05G25G09G02
 110667761.690 8  86234746.60846  21059364.781                    21059372.535
 119953962.238 7  93470701.12844  22826487.375                    22826496.148
 118269237.470 7  92157958.99144  22505873.305                    22505881.637
 124820683.672 7  97262915.291 6  23752580.172                    23752589.598
 110149037.916 8  85830459.509 7  20960660.977                    20960667.898
 111228420.471 8  86671569.740 7  21166052.422                    21166060.711
 121911672.250 7  94996225.046 6  23199039.633                    23199049.891
 128598951.910 6 100207112.13443  24471598.672                    24471609.855
 108730115.814 8  84724867.89946  20690634.688                    20690639.719
 11  8 20  0 47 30.0000000  0  9G10G30G04G17G12G05G25G09G02
 110701092.059 8  86260718.31846  21065707.734                    21065715.516
 119873228.647 7  93407791.88744  22811123.977                    22811133.156
 118350707.610 7  92221442.20245  22521377.008                    22521384.848
 124882058.439 6  97310739.732 6  23764259.688                    23764269.148
 110114431.874 8  85803493.777 7  20954075.391                    20954082.355
 111158631.227 8  86617188.556 7  21152771.938                    21152779.621
 121824860.609 7  94928579.646 6  23182519.977                    23182530.113
 128681290.759 6 100271272.15042  24487266.328                    24487277.430
 108743678.012 8  84735435.86146  20693215.625                    20693221.008
 11  8 20  0 48  0.0000000  0  9G10G30G04G17G12G05G25G09G02
 110735024.052 8  86287158.83546  21072164.531                    21072172.527
 119792903.977 7  93345201.28644  22795839.438                    22795848.109
 118432221.416 7  92284959.44444  22536888.070                    22536896.117
 124943613.268 6  97358704.455 6  23775972.570                    23775982.336
 110080358.538 8  85776943.134 7  20947591.852                    20947599.141
 111089287.256 8  86563154.332 7  21139576.313                    21139584.176
 121738362.374 7  94861178.478 6  23166060.117                    23166070.234
 128763621.503 6 100335425.83243  24502933.414                    24502944.965
 108757465.854 8  84746179.65046  20695839.227                    20695844.574
 11  8 20  0 48 30.0000000  0  9G10G30G04G17G12G05G25G09G02
 110769556.085 8  86314066.90346  21078735.570                    21078743.297
 119712990.733 7  93282931.26244  22780632.383                    22780640.867
 118513777.305 7  92348509.47144  22552407.922                    22552415.961
 125005348.829 6  97406810.009 6  23787720.828                    23787730.512
 110046819.543 8  85750808.871 7  20941209.609                    20941216.598
 111020390.544 8  86509468.637 7  21126465.539                    21126473.125
 121652180.167 7  94794023.560 6  23149659.820                    23149670.379
 128845941.129 6 100399570.88543  24518598.469                    24518609.855
 108771478.175 8  84757098.35346  20698505.484                    20698511.031
 11  8 20  0 49  0.0000000  0  9G10G30G04G17G12G05G25G09G02
 110804686.420 8  86341441.18945  21085420.633                    21085428.410
 119633491.195 7  93220983.62044  22765504.539                    22765512.582
 118595373.495 7  92412090.90844  22567935.156                    22567942.859
 125067264.721 6  97455056.090 6  23799502.867                    23799513.063
 110013815.892 8  85725091.749 7  20934929.242                    20934936.043
 110951943.682 8  86456133.466 7  21113440.500                    21113448.223
 121566316.304 7  94727116.690 6  23133320.563                    23133331.176
 128928246.107 6 100463704.49943  24534260.734                    24534273.059
 108785712.596 8  84768190.12346  20701214.594                    20701219.785
 11  8 20  0 49 30.0000000  0  9G10G30G04G17G12G05G25G09G02
 110840414.348 8  86369281.13246  21092219.758                    21092227.359
 119554408.314 7  93159360.63844  22750454.688                    22750463.500
 118677008.892 7  92475702.89544  22583469.523                    22583478.742
 125129361.450 6  97503443.070 6  23811319.664                    23811329.668
 109981349.495 8  85699793.266 7  20928750.984                    20928757.918
 110883949.338 8  86403150.901 7  21100501.680                    21100509.359
 121480773.800 7  94660460.232 7  23117042.734                    23117053.074
 129010533.634 6 100527824.54343  24549919.586                    24549931.773
 108800168.730 8  84779454.65646  20703965.531                    20703970.875
 11  8 20  0 50  0.0000000  0  9G10G30G04G17G12G05G25G09G02
 110876738.533 8  86397585.69246  21099131.914                    21099139.828
 119475744.719 7  93098064.37944  22735485.586                    22735494.516
 118758682.075 7  92539344.31844  22599012.055                    22599020.563
 125191639.616 6  97551971.420 6  23823170.742                    23823180.508
 109949421.568 8  85674914.376 7  20922675.375                    20922682.211
 110816409.168 8  86350522.244 7  21087648.977                    21087656.758
 121395555.155 7  94594056.140 7  23100825.992                    23100835.938
 129092800.603 6 100591928.53443  24565573.961                    24565586.020
 108814845.522 8  84790891.12346  20706758.195                    20706763.422
 11  8 20  0 50 30.0000000  0  9G10G30G04G17G12G05G25G09G02
 110913657.466 8  86426353.68246  21106157.219                    21106164.926
 119397502.905 7  93037096.79944  22720596.766                    22720605.023
 118840391.584 7  92603014.02844  22614560.719                    22614569.352
 125254099.608 6  97600641.517 6  23835056.797                    23835066.711
 109918034.066 8  85650456.596 7  20916702.281                    20916709.559
 110749325.501 8  86298249.303 7  21074883.500                    21074891.203
 121310663.139 7  94527906.569 7  23084671.852                    23084682.145
 129175044.102 6 100656014.24843  24581224.969                    24581237.316
 108829741.836 8  84802498.65346  20709593.273                    20709598.570
 11  8 20  0 51  0.0000000  0  9G10G30G04G17G12G05G25G09G02
 110951169.495 8  86455583.83946  21113295.859                    21113303.520
 119319685.401 7  92976459.82744  22705788.836                    22705797.320
 118922135.804 7  92666710.82844  22630115.531                    22630124.121
 125316741.424 6  97649453.261 6  23846977.914                    23846986.840
 109887187.753 8  85626420.513 7  20910832.625                    20910839.699
 110682700.449 8  86246333.717 7  21062204.992                    21062212.641
 121226100.142 7  94462013.371 7  23068579.664                    23068590.090
 129257260.819 6 100720079.09343  24596870.445                    24596882.664
 108844855.826 8  84814275.80246  20712468.922                    20712474.148
 11  8 20  0 51 30.0000000  0  9G10G30G04G17G12G05G25G09G02
 110989273.415 8  86485275.20546  21120546.320                    21120554.711
 119242294.803 7  92916155.50944  22691061.797                    22691069.949
 119003913.553 7  92730433.69744  22645678.125                    22645686.273
 125379565.275 6  97698406.896 6  23858932.305                    23858941.250
 109856884.480 8  85602807.583 7  20905066.008                    20905073.293
 110616536.567 8  86194777.492 7  21049614.453                    21049622.227
 121141868.857 7  94396378.654 7  23052551.086                    23052561.406
 129339447.969 6 100784120.88543  24612510.195                    24612522.953
 108860186.655 8  84826221.91546  20715386.008                    20715391.582
 11  8 20  0 52  0.0000000  0  9G10G30G04G17G12G05G25G09G02
 111027967.617 8  86515426.53646  21127909.867                    21127917.516
 119165333.776 7  92856185.93944  22676416.625                    22676424.332
 119085723.335 7  92794181.55944  22661245.883                    22661254.488
 125442571.558 6  97747502.670 6  23870922.367                    23870931.059
 109827125.378 8  85579618.674 7  20899402.813                    20899410.047
 110550836.154 8  86143582.413 7  21037112.359                    21037119.863
 121057972.031 7  94331004.545 7  23036585.961                    23036596.367
 129421602.280 6 100848137.10043  24628143.891                    24628156.168
 108875733.165 8  84838336.08446  20718344.578                    20718350.188
 11  8 20  0 52 30.0000000  0  9G10G30G04G17G12G05G25G09G02
 111067250.811 8  86546036.82546  21135385.063                    21135392.773
 119088804.799 7  92796553.01944  22661852.875                    22661861.523
 119167563.748 7  92857953.31144  22676819.211                    22676827.887
 125505760.657 7  97796740.892 6  23882946.555                    23882955.883
 109797911.818 8  85556854.871 7  20893843.828                    20893850.957
 110485601.263 8  86092750.070 7  21024698.273                    21024706.070
 120974412.237 7  94265893.072 7  23020685.344                    23020695.676
 129503720.781 6 100912125.41443  24643770.617                    24643783.215
 108891494.218 8  84850617.43346  20721344.273                    20721349.195
 11  8 20  0 53  0.0000000  0  9G10G30G04G17G12G05G25G09G02
 111107121.342 8  86577104.77245  21142972.477                    21142980.105
 119012710.411 7  92737258.73444  22647373.008                    22647381.387
 119249433.418 7  92921747.82745  22692399.289                    22692407.660
 125569132.610 6  97846121.648 6  23895006.133                    23895014.926
 109769245.165 8  85534517.223 7  20888388.773                    20888395.879
 110420833.858 8  86042282.015 7  21012373.430                    21012380.754
 120891192.085 7  94201046.247 7  23004848.859                    23004859.289
 129585800.446 6 100976083.44543  24659389.242                    24659402.738
 108907468.504 8  84863064.92746  20724383.688                    20724389.219
 11  8 20  0 53 30.0000000  0  9G10G30G04G17G12G05G25G09G02
 111147578.256 8  86608629.63946  21150671.313                    21150678.836
 118937053.288 7  92678305.18744  22632975.922                    22632984.449
 119331331.305 7  92985564.33344  22707983.359                    22707991.926
 125632687.691 6  97895645.092 6  23907100.031                    23907108.789
 109741127.020 8  85512606.981 7  20883038.023                    20883045.148
 110356536.528 8  85992180.246 7  21000137.789                    21000145.789
 120808314.290 7  94136466.199 7  22989077.484                    22989087.996
 129667838.203 6 101040008.82743  24675001.383                    24675013.582
 108923654.926 8  84875677.73746  20727464.117                    20727469.105
 11  8 20  0 54  0.0000000  0  9G10G30G04G17G12G05G25G09G02
 111188619.661 8  86640609.95946  21158481.063                    21158488.730
 118861836.053 7  92619694.39244  22618662.328                    22618671.133
 119413255.844 7  93049401.63044  22723572.688                    22723582.129
 125696426.558 6  97945311.751 6  23919229.156                    23919237.414
 109713558.780 8  85491125.247 7  20877791.844                    20877799.086
 110292711.297 8  85942446.347 7  20987992.414                    20988000.020
 120725781.583 7  94072155.037 7  22973371.922                    22973382.184
 129749831.158 6 101103899.30443  24690604.195                    24690616.836
 108940052.550 8  84888455.10346  20730584.320                    20730589.695
 11  8 20  0 54 30.0000000  0  9G10G30G04G17G12G05G25G09G02
 111230243.571 8  86673044.18145  21166401.711                    21166409.773
 118787061.047 7  92561428.19044  22604433.461                    22604441.156
 119495205.684 7  93113258.59844  22739168.000                    22739176.363
 125760349.142 6  97995121.531 6  23931393.500                    23931402.695
 109686541.382 8  85470072.732 7  20872651.156                    20872658.031
 110229360.167 8  85893081.870 7  20975937.016                    20975944.844
 120643596.358 7  94008114.648 7  22957732.758                    22957743.027
 129831776.184 6 101167752.44743  24706197.648                    24706210.383
 108956660.039 8  84901396.01046  20733744.398                    20733750.000
 11  8 20  0 55  0.0000000  0  9G10G30G04G17G12G05G25G09G02
 111272448.266 8  86705930.95746  21174433.164                    21174440.547
 118712730.687 7  92503508.46644  22590288.773                    22590297.246
 119577179.380 7  93177134.18544  22754767.039                    22754775.383
 125824455.430 6  98045074.429 6  23943591.656                    23943601.844
 109660076.054 8  85449450.400 7  20867614.586                    20867621.758
 110166485.134 8  85844088.380 7  20963971.938                    20963979.973
 120561761.103 7  93944346.961 7  22942159.844                    22942170.262
 129913670.306 6 101231565.91442  24721781.461                    24721793.820
 108973475.798 8  84914499.20546  20736944.461                    20736949.578
 11  8 20  0 55 30.0000000  0  9G10G30G04G17G12G05G25G09G02
 111315232.294 8  86739269.17246  21182574.188                    21182582.094
 118638847.550 7  92445937.21444  22576229.953                    22576237.191
 119659175.667 7  93241027.38244  22770370.031                    22770378.793
 125888745.896 6  98095170.873 6  23955826.898                    23955835.918
 109634164.072 8  85429259.246 7  20862683.383                    20862690.738
 110104088.308 8  85795467.529 7  20952098.563                    20952106.215
 120480278.545 7  93880854.089 7  22926654.430                    22926664.516
 129995510.502 6 101295337.34542  24737355.711                    24737367.945
 108990498.959 8  84927764.00946  20740183.672                    20740189.098
 11  8 20  0 56  0.0000000  0  9G10G30G04G17G12G05G25G09G02
 111358594.519 7  86773057.92946  21190826.219                    21190833.887
 118565414.264 7  92388716.49644  22562255.195                    22562263.895
 119741193.473 7  93304937.36244  22785977.672                    22785986.012
 125953220.788 6  98145411.017 6  23968095.484                    23968105.391
 109608807.058 8  85409500.534 7  20857858.648                    20857865.375
 110042171.908 8  85747221.020 7  20940316.086                    20940323.906
 120399151.465 7  93817638.203 7  22911216.547                    22911226.715
 130077294.074 6 101359064.68742  24752919.500                    24752930.637
 109007728.675 8  84941189.76246  20743462.695                    20743467.734
 11  8 20  0 56 30.0000000  0  9G10G30G04G17G12G05G25G09G02
 111402532.745 8  86807295.51545  21199186.969                    21199194.863
 118492433.042 7  92331848.02844  22548367.133                    22548375.648
 119823231.236 7  93368862.88644  22801588.555                    22801596.973
 126017880.145 7  98195794.883 6  23980399.641                    23980409.738
 109584005.601 8  85390174.726 7  20853138.836                    20853145.547
 109980737.727 8  85699350.278 7  20928625.523                    20928633.207
 120318382.070 7  93754701.049 7  22895846.289                    22895856.816
 130159017.827 6 101422745.48342  24768469.914                    24768482.461
 109025163.250 8  84954775.14746  20746780.430                    20746785.430
 11  8 20  0 57  0.0000000  0  9G10G30G04G17G12G05G25G09G02
 111447045.157 8  86841980.52945  21207657.813                    21207665.133
 118419906.149 7  92275333.58744  22534566.430                    22534574.180
 119905287.481 7  93432802.80744  22817203.891                    22817212.199
 126082724.242 7  98246322.697 6  23992739.531                    23992748.902
 109559760.732 8  85371282.618 8  20848525.125                    20848532.402
 109919787.703 8  85651856.781 7  20917027.070                    20917035.133
 120237972.892 7  93692044.566 7  22880544.961                    22880555.324
 130240678.596 6 101486377.08542  24784010.336                    24784021.828
 109042801.322 8  84968519.09746  20750136.672                    20750141.848
 11  8 20  0 57 30.0000000  0  9G10G30G04G17G12G05G25G09G02
 111492130.578 7  86877112.03645  21216237.109                    21216244.922
 118347836.484 7  92219175.42744  22520851.672                    22520859.625
 119987361.290 7  93496756.38644  22832822.039                    22832830.063
 126147753.453 6  98296994.784 6  24005114.547                    24005123.410
 109536074.023 8  85352825.438 7  20844017.945                    20844025.262
 109859324.312 8  85604742.500 7  20905521.063                    20905529.195
 120157926.791 7  93629671.012 6  22865312.953                    22865322.883
 130322273.572 6 101549957.48242  24799536.266                    24799549.418
 109060642.220 8  84982421.09046  20753531.641                    20753536.961
 11  8 20  0 58  0.0000000  0  9G10G30G04G17G12G05G25G09G02
 111537786.856 7  86912688.36745  21224925.406                    21224932.926
 118276226.393 7  92163375.37645  22507224.906                    22507232.914
 120069451.194 7  93560722.54844  22848442.617                    22848451.496
 126212967.833 6  98347811.200 6  24017523.414                    24017533.234
 109512946.534 8  85334804.024 7  20839616.711                    20839624.078
 109799349.370 8  85558008.820 7  20894108.461                    20894115.996
 120078246.373 7  93567582.392 7  22850149.828                    22850160.102
 130403799.960 6 101613484.38342  24815050.852                    24815063.070
 109078684.899 8  84996480.31546  20756965.352                    20756970.230
 11  8 20  0 58 30.0000000  0  9G10G30G04G17G12G05G25G09G02
 111584012.125 7  86948708.07345  21233721.734                    21233729.207
 118205078.064 7  92107935.14344  22493685.594                    22493694.012
 120151555.944 7  93624700.22844  22864067.547                    22864075.711
 126278367.354 6  98398771.796 6  24029968.016                    24029978.184
 109490379.208 8  85317219.085 7  20835322.156                    20835329.422
 109739864.822 8  85511657.263 7  20882788.852                    20882796.641
 119998933.932 7  93505780.498 7  22835057.625                    22835066.957
 130485254.668 6 101676955.44042  24830551.531                    24830563.516
 109096927.489 8  85010695.32246  20760436.586                    20760441.879
 11  8 20  0 59  0.0000000  0  9G10G30G04G17G12G05G25G09G02
 111630805.140 7  86985170.17945  21242625.719                    21242633.727
 118134394.117 7  92052856.77345  22480234.797                    22480243.152
 120233674.441 7  93688688.67044  22879693.508                    22879702.699
 126343952.380 6  98449876.952 6  24042449.289                    24042458.941
 109468373.364 8  85300071.675 7  20831134.930                    20831141.918
 109680872.600 8  85465689.337 8  20871562.984                    20871570.387
 119919992.183 7  93444267.467 7  22820035.703                    22820045.406
 130566635.014 6 101740368.61342  24846038.070                    24846050.164
 109115369.288 8  85025065.54846  20763945.695                    20763951.047
 11  8 20  0 59 30.0000000  0  9G10G30G04G17G12G05G25G09G02
 111678163.838 8  87022073.07645  21251637.766                    21251645.570
 118064176.931 7  91998142.09945  22466873.313                    22466880.879
 120315805.350 7  93752686.73744  22895323.266                    22895331.410
 126409723.142 6  98501126.843 5  24054964.813                    24054974.398
 109446930.156 8  85283362.680 8  20827054.484                    20827061.922
 109622374.582 8  85420106.497 7  20860431.320                    20860438.996
 119841423.708 7  93383045.289 7  22805084.180                    22805094.152
 130647938.017 6 101803721.47943  24861509.391                    24861522.102
 109134009.445 8  85039590.34546  20767493.156                    20767498.688
 11  8 20  1  0  0.0000000  0  8G10G30G04G17G12G05G25G02
 111726087.897 8  87059416.51445  21260757.703                    21260765.277
 117994430.140 7  91943793.95744  22453600.188                    22453608.930
 120397948.885 6  93816694.65944  22910954.492                    22910962.262
 126475681.203 6  98552522.719 5  24067516.578                    24067525.316
 109426051.654 8  85267093.718 7  20823081.281                    20823088.332
 109564374.177 8  85374911.423 7  20849393.828                    20849401.895
 119763232.394 7  93322117.018 7  22790204.969                    22790215.172
 109152847.673 8  85054269.47546  20771077.867                    20771083.246
 11  8 20  1  0 30.0000000  0  8G10G30G04G17G12G05G25G02
 111774573.600 8  87097197.59745  21269984.125                    21269991.605
 117925154.834 7  91889813.22544  22440417.703                    22440426.066
 120480102.526 7  93880710.43744  22926587.281                    22926596.004
 126541825.232 6  98604063.528 6  24080102.422                    24080111.977
 109405737.530 8  85251264.535 7  20819215.602                    20819222.602
 109506871.976 8  85330104.548 8  20838451.531                    20838459.477
 119685419.304 7  93261483.455 7  22775397.305                    22775407.805
 109171881.756 8  85069101.23046  20774699.867                    20774705.262
 11  8 20  1  1  0.0000000  0  8G10G30G04G17G12G05G25G02
 111823619.643 8  87135415.30846  21279317.328                    21279324.977
 117856353.316 7  91836201.65745  22427325.008                    22427333.676
 120562265.083 7  93944733.18444  22942222.680                    22942230.137
 126608155.265 6  98655749.200 6  24092724.375                    24092735.027
 109385988.896 8  85235875.987 8  20815457.727                    20815464.500
 109449869.617 8  85285687.168 7  20827604.398                    20827612.223
 119607987.004 7  93201146.617 7  22760662.438                    22760672.797
 109191110.567 8  85084084.71646  20778359.063                    20778364.301
 11  8 20  1  1 30.0000000  0  8G10G30G04G17G12G05G25G02
 111873223.417 8  87174067.59745  21288756.641                    21288764.438
 117788027.446 7  91782960.74345  22414323.320                    22414331.418
 120644434.546 7  94008761.29144  22957858.563                    22957868.031
 126674671.122 6  98707579.665 6  24105383.398                    24105393.230
 109366806.367 8  85220928.567 7  20811807.180                    20811814.164
 109393368.849 8  85241660.624 7  20816852.898                    20816860.359
 119530937.585 7  93141108.128 7  22746000.164                    22746010.992
 109210531.821 8  85099218.16346  20782054.688                    20782060.094
 11  8 20  1  2  0.0000000  0  8G10G30G04G17G12G05G25G02
 111923382.964 8  87213152.97145  21298301.617                    21298309.586
 117720179.803 7  91730092.45745  22401412.570                    22401420.664
 120726610.112 7  94072794.16444  22973496.594                    22973504.699
 126741373.212 6  98759555.291 6  24118076.648                    24118085.844
 109348190.617 8  85206422.784 7  20808264.813                    20808271.363
 109337371.530 8  85198026.389 7  20806196.602                    20806204.113
 119454273.655 7  93081370.018 7  22731411.969                    22731422.086
 109230145.082 8  85114501.22746  20785787.047                    20785791.984
 11  8 20  1  2 30.0000000  0  8G10G30G04G17G12G05G25G02
 111974097.337 7  87252670.66345  21307952.336                    21307960.059
 117652813.161 7  91677598.98345  22388592.602                    22388600.703
 120808791.150 7  94136831.27244  22989134.602                    22989144.082
 126808261.855 6  98811676.286 6  24130804.945                    24130814.563
 109330143.389 8  85192360.008 7  20804830.438                    20804837.656
 109281879.724 8  85154786.060 7  20795637.016                    20795644.578
 119377998.346 7  93021934.732 7  22716897.383                    22716907.469
 109249949.866 8  85129933.52346  20789555.992                    20789560.973
 11  8 20  1  3  0.0000000  0  8G10G30G04G17G12G05G25G02
 112025363.794 8  87292618.55045  21317707.992                    21317715.398
 117585929.415 7  91625481.78145  22375865.750                    22375873.500
 120890975.910 7  94200871.29844  23004774.203                    23004782.910
 126875336.982 6  98863942.562 6  24143569.203                    24143578.508
 109312665.344 8  85178740.762 7  20801504.406                    20801511.684
 109226895.471 8  85111941.227 7  20785173.750                    20785181.359
 119302113.715 7  92962803.875 7  22702456.352                    22702466.867
 109269944.487 8  85145513.74646  20793360.547                    20793365.852
 11  8 20  1  3 30.0000000  0  8G10G30G04G17G12G05G25G02
 112077180.695 7  87332995.35045  21327568.313                    21327575.859
 117519531.100 7  91573742.84445  22363230.445                    22363238.000
 120973163.802 7  94264913.75644  23020414.102                    23020423.309
 126942598.741 6  98916354.272 6  24156368.961                    24156378.441
 109295757.352 8  85165565.702 7  20798287.164                    20798294.266
 109172420.293 8  85069493.069 8  20774807.281                    20774814.977
 119226622.392 7  92903979.477 7  22688091.078                    22688101.258
 109290128.136 8  85161241.26446  20797201.313                    20797206.613
 11  8 20  1  4  0.0000000  0  8G10G30G04G17G12G05G25G02
 112129545.969 7  87373799.45745  21337533.289                    21337540.652
 117453620.259 7  91522383.75545  22350688.055                    22350695.977
 121055353.409 7  94328957.54344  23036054.164                    23036063.336
 127010047.286 6  98968911.529 6  24169203.352                    24169213.344
 109279420.042 8  85152835.332 7  20795177.992                    20795185.238
 109118455.727 8  85027442.791 7  20764538.297                    20764545.570
 119151526.740 7  92845463.408 7  22673801.148                    22673810.941
 109310499.390 8  85177114.98146  20801077.914                    20801082.988
 11  8 20  1  4 30.0000000  0  8G10G30G04G17G12G05G25G02
 112182456.955 8  87415028.79945  21347601.680                    21347609.406
 117388198.949 7  91471406.11045  22338238.680                    22338246.621
 121137543.292 7  94393001.56444  23051694.438                    23051703.168
 127077682.452 6  99021614.209 6  24182073.250                    24182083.809
 109263653.949 8  85140550.062 7  20792178.063                    20792184.734
 109065003.539 8  84985791.775 7  20754366.688                    20754374.027
 119076828.955 7  92787257.354 7  22659586.500                    22659596.633
 109331056.657 8  85193133.62846  20804989.906                    20804995.219
 11  8 20  1  5  0.0000000  0  8G10G30G04G17G12G05G25G02
 112235912.138 7  87456682.18445  21357774.070                    21357781.699
 117323269.634 7  91420811.85245  22325882.945                    22325891.082
 121219732.636 7  94457045.16944  23067333.813                    23067343.375
 127145504.663 6  99074462.648 6  24194980.195                    24194989.672
 109248460.289 8  85128710.843 7  20789286.695                    20789293.832
 109012065.627 8  84944541.482 7  20744292.906                    20744300.520
 119002531.834 7  92729363.512 7  22645447.984                    22645458.223
 109351799.495 8  85209296.88346  20808937.219                    20808942.281
 11  8 20  1  5 30.0000000  0  8G10G30G04G17G12G05G25G02
 112289909.867 8  87498758.33545  21368049.492                    21368056.719
 117258834.814 7  91370602.91445  22313621.117                    22313629.313
 121301920.616 7  94521087.71344  23082975.109                    23082982.629
 127213513.843 6  99127456.780 6  24207921.844                    24207931.211
 109233840.254 8  85117318.607 7  20786504.656                    20786511.363
 108959643.879 8  84903693.409 7  20734317.555                    20734324.875
 118928638.209 7  92671784.076 7  22631386.555                    22631396.840
 109372726.933 8  85225603.98746  20812919.758                    20812924.859
 11  8 20  1  6  0.0000000  0  8G10G30G04G17G12G05G25G02
 112344447.551 7  87541255.22345  21378427.508                    21378435.117
 117194896.314 7  91320780.72645  22301454.148                    22301462.375
 121384105.641 7  94585127.95644  23098613.641                    23098622.785
 127281709.950 6  99180596.558 6  24220898.367                    24220908.602
 109219793.850 8  85106373.347 7  20783831.836                    20783838.738
 108907739.744 8  84863248.658 8  20724440.609                    20724447.938
 118855149.817 7  92614520.410 7  22617401.977                    22617412.336
 109393837.181 8  85242053.53146  20816936.297                    20816941.824
 11  8 20  1  6 30.0000000  0  8G10G30G04G17G12G05G25G02
 112399523.396 7  87584171.45845  21388908.250                    21388915.797
 117131456.460 7  91271347.09445  22289381.617                    22289390.098
 121466286.758 7  94649165.13844  23114253.102                    23114260.875
 127350093.326 6  99233882.248 6  24233912.398                    24233922.488
 109206321.973 8  85095875.778 8  20781267.914                    20781275.090
 108856354.941 8  84823208.596 8  20714662.266                    20714669.547
 118782069.431 8  92557574.675 7  22603495.656                    22603505.504
 109415129.549 8  85258644.98846  20820988.242                    20820993.660
 11  8 20  1  7  0.0000000  0  8G10G30G04G17G12G05G25G02
 112455135.133 8  87627505.27045  21399490.570                    21399498.344
 117068517.491 7  91222303.76345  22277405.398                    22277412.797
 121548463.181 7  94713198.68844  23129890.359                    23129899.180
 127418663.697 6  99287313.685 5  24246960.836                    24246970.391
 109193425.166 8  85085826.318 7  20778813.750                    20778820.984
 108805491.140 8  84783574.493 8  20704983.156                    20704990.598
 118709399.501 7  92500948.772 7  22589666.977                    22589676.781
 109436602.895 8  85275377.46846  20825074.758                    20825079.844
 11  8 20  1  7 30.0000000  0  8G10G30G04G17G12G05G25G02
 112511280.298 7  87671254.74845  21410174.852                    21410182.484
 117006081.168 7  91173652.13145  22265523.906                    22265532.078
 121630633.373 7  94777227.32844  23145526.578                    23145536.008
 127487421.475 7  99340891.254 5  24260044.680                    24260053.203
 109181104.358 8  85076225.680 7  20776469.320                    20776476.629
 108755149.583 8  84744347.350 7  20695403.008                    20695410.820
 118637142.090 7  92444644.325 7  22575917.188                    22575926.430
 109458255.796 8  85292249.85846  20829194.914                    20829200.344
 11  8 20  1  8  0.0000000  0  8G10G30G04G17G12G05G25G02
 112567957.044 7  87715418.45145  21420960.281                    21420967.516
 116944149.954 7  91125394.07345  22253738.813                    22253747.035
 121712796.518 6  94841250.52144  23161161.586                    23161170.402
 127556366.330 6  99394614.523 5  24273164.516                    24273173.895
 109169360.210 8  85067074.375 7  20774234.727                    20774241.438
 108705332.212 8  84705528.651 7  20685923.211                    20685930.859
 118565299.861 7  92388663.391 7  22562245.469                    22562255.973
 109480087.332 8  85309261.44146  20833349.555                    20833354.465
 11  8 20  1  8 30.0000000  0  8G10G30G04G17G12G05G25G02
 112625163.613 7  87759994.99245  21431845.758                    21431853.898
 116882726.166 7  91077531.41445  22242050.172                    22242057.766
 121794951.883 7  94905267.62144  23176796.227                    23176804.918
 127625498.627 6  99448483.832 6  24286320.023                    24286329.828
 109158193.247 8  85058372.839 7  20772109.648                    20772116.227
 108656040.781 8  84667119.778 8  20676543.352                    20676550.906
 118493875.489 7  92333008.057 7  22548653.953                    22548664.117
 109502096.969 8  85326411.80646  20837537.852                    20837542.965
 11  8 20  1  9  0.0000000  0  8G10G30G04G17G12G05G25G02
 112682897.540 7  87804982.47045  21442832.789                    21442839.746
 116821811.742 7  91030065.66045  22230458.406                    22230466.352
 121877098.145 7  94969277.62644  23192427.273                    23192436.430
 127694818.142 6  99502499.016 6  24299511.742                    24299520.512
 109147604.150 8  85050121.589 7  20770094.578                    20770101.273
 108607276.679 8  84629121.815 8  20667263.867                    20667271.254
 118422871.127 7  92277680.008 7  22535142.422                    22535152.754
 109524283.007 8  85343699.62946  20841759.484                    20841764.477
 11  8 20  1  9 30.0000000  0  8G10G30G04G17G12G05G25G02
 112741156.553 7  87850379.11245  21453919.227                    21453926.633
 116761408.792 7  90982998.46745  22218964.031                    22218972.133
 121959234.212 7  95033279.77244  23208058.094                    23208066.148
 127764325.050 6  99556660.202 6  24312737.398                    24312747.457
 109137593.777 8  85042321.293 7  20768189.719                    20768196.766
 108559041.717 8  84591536.160 8  20658084.836                    20658092.563
 118352289.260 7  92222681.185 7  22521710.898                    22521720.793
 109546644.728 8  85361124.34246  20846015.211                    20846019.871
 11  8 20  1 10  0.0000000  0  9G10G30G04G17G12G05G25G29G02
 112799938.444 7  87896183.18845  21465104.688                    21465112.309
 116701519.317 7  90936331.38045  22207567.406                    22207575.691
 122041359.248 7  95097273.25544  23223685.492                    23223694.094
 127834019.349 6  99610967.368 6  24326000.195                    24326010.516
 109128162.460 8  85034972.213 7  20766395.016                    20766401.734
 108511336.834 8  84554363.559 7  20649007.117                    20649014.324
 118282132.055 7  92168013.270 7  22508360.414                    22508370.324
 129551920.59016 100949644.89615  24652923.734                    24652932.602
 109569180.850 8  85378684.96346  20850303.000                    20850308.438
 11  8 20  1 10 30.0000000  0  9G10G30G04G17G12G05G25G29G02
 112859240.744 7  87942392.76945  21476389.492                    21476396.672
 116642145.325 7  90890065.97745  22196268.508                    22196276.773
 122123472.211 7  95161257.38644  23239311.016                    23239318.930
 127903900.920 6  99665420.503 6  24339298.742                    24339308.145
 109119310.344 8  85028074.449 7  20764710.445                    20764717.426
 108464164.062 8  84517605.589 8  20640030.258                    20640037.703
 118212401.877 7  92113678.102 7  22495091.383                    22495101.211
 129472428.985 6 100887703.448 6  24637796.773                    24637806.477
 109591890.204 8  85396380.55646  20854624.930                    20854630.176
 11  8 20  1 11  0.0000000  0  9G10G30G04G17G12G05G25G29G02
 112919061.968 7  87989006.72145  21487773.078                    21487780.918
 116583289.203 7  90844204.10445  22185068.844                    22185077.406
 122205572.288 6  95225231.39044  23254933.281                    23254943.488
 127973970.113 6  99720019.829 6  24352633.094                    24352642.328
 109111038.583 8  85021628.919 7  20763136.227                    20763143.121
 108417525.199 8  84481263.659 8  20631155.250                    20631163.086
 118143101.462 7  92059677.826 7  22481903.273                    22481914.004
 129392859.478 6 100825701.289 6  24622656.078                    24622664.625
 109614772.272 8  85414210.74346  20858979.289                    20858984.504
 11  8 20  1 11 30.0000000  0  9G10G30G04G17G12G05G25G29G02
 112979399.125 8  88036022.69345  21499254.633                    21499262.227
 116524952.680 7  90798747.11445  22173967.563                    22173976.086
 122287658.096 6  95289194.33343  23270553.914                    23270563.293
 128044226.497 6  99774765.031 6  24366001.078                    24366011.309
 109103347.182 8  85015635.613 7  20761672.820                    20761680.023
 108371420.810 8  84445338.196 8  20622381.828                    20622389.270
 118074232.727 7  92006013.921 7  22468798.031                    22468808.742
 129313212.022 6 100763638.392 6  24607499.016                    24607508.605
 109637825.260 8  85432174.11146  20863365.852                    20863370.938
 11  8 20  1 12  0.0000000  0  9G10G30G04G17G12G05G25G29G02
 113040250.126 7  88083439.06745  21510834.359                    21510841.945
 116467137.548 7  90753696.39345  22162966.188                    22162974.223
 122369728.921 6  95353145.58043  23286171.914                    23286180.941
 128114670.162 6  99829656.089 6  24379406.273                    24379415.977
 109096236.397 8  85010094.743 7  20760319.766                    20760326.527
 108325852.489 8  84409830.443 8  20613710.430                    20613718.152
 118005797.902 7  91952688.127 7  22455775.867                    22455786.219
 129233487.232 6 100701515.251 6  24592327.648                    24592337.254
 109661048.277 8  85450269.96546  20867785.320                    20867790.434
 11  8 20  1 12 30.0000000  0  9G10G30G04G17G12G05G25G29G02
 113101612.718 7  88131254.09045  21522511.359                    21522518.996
 116409846.123 7  90709053.75745  22152063.945                    22152071.875
 122451783.704 6  95417084.32344  23301787.117                    23301795.785
 128185301.054 6  99884693.102 6  24392847.438                    24392856.887
 109089707.215 8  85005007.063 7  20759077.063                    20759083.875
 108280822.000 8  84374741.786 7  20605141.563                    20605148.801
 117937799.622 7  91899702.503 7  22442836.000                    22442846.266
 129153685.744 7 100639332.369 6  24577142.625                    24577151.730
 109684440.396 8  85468497.59146  20872236.750                    20872242.090
 11  8 20  1 13  0.0000000  0  9G10G30G04G17G12G05G25G29G02
 113163484.551 7  88179465.91645  21534285.000                    21534292.684
 116353080.158 7  90664820.56245  22141261.898                    22141269.656
 122533821.419 6  95481009.78344  23317398.234                    23317407.410
 128256119.040 6  99939875.951 6  24406323.602                    24406332.789
 109083759.673 8  85000372.622 7  20757945.563                    20757952.336
 108236330.214 8  84340072.895 8  20596674.797                    20596682.613
 117870239.897 7  91847058.607 7  22429979.836                    22429989.980
 129073808.221 6 100577090.203 6  24561942.156                    24561951.328
 109708000.447 8  85486856.07946  20876719.891                    20876724.891
 11  8 20  1 13 30.0000000  0  9G10G30G04G17G12G05G25G29G02
 113225863.449 7  88228072.85645  21546155.266                    21546163.262
 116296841.659 7  90620998.38445  22130559.570                    22130567.816
 122615841.145 7  95544921.24644  23333006.211                    23333014.711
 128327124.130 7  99995204.575 6  24419835.539                    24419844.566
 109078394.418 8  84996191.896 7  20756924.211                    20756931.211
 108192378.865 8  84305825.122 8  20588311.383                    20588318.570
 117803121.180 7  91794758.345 7  22417207.570                    22417217.105
 128993855.291 6 100514789.315 6  24546727.883                    24546737.145
 109731727.451 8  85505344.64946  20881235.359                    20881240.078
 11  8 20  1 14  0.0000000  0  9G10G30G04G17G12G05G25G29G02
 113288746.924 7  88277072.97145  21558122.008                    21558129.418
 116241132.484 7  90577588.65045  22119958.750                    22119967.066
 122697841.942 6  95608817.95844  23348610.055                    23348619.195
 128398316.230 6 100050678.916 5  24433383.078                    24433392.371
 109073611.293 8  84992464.791 7  20756014.164                    20756020.633
 108148969.234 8  84271999.469 8  20580050.563                    20580057.945
 117736445.654 7  91742803.423 7  22404519.422                    22404529.125
 128913827.277 5 100452429.914 6  24531497.813                    24531507.797
 109755620.234 8  85523962.40546  20885781.719                    20885786.902
 11  8 20  1 14 30.0000000  0  9G10G30G04G17G12G05G25G29G02
 113352132.759 7  88326464.53645  21570183.523                    21570191.340
 116185954.745 7  90534593.02145  22109458.414                    22109466.031
 122779823.114 6  95672699.42243  23364210.500                    23364218.863
 128469695.504 6 100106299.121 5  24446965.422                    24446975.074
 109069411.396 8  84989192.145 7  20755215.117                    20755222.031
 108106102.704 8  84238597.012 8  20571893.211                    20571901.000
 117670215.709 7  91691195.716 7  22391916.563                    22391926.438
 128833724.949 5 100390012.631 6  24516254.820                    24516264.902
 109779678.170 7  85542708.85146  20890359.586                    20890365.199
 11  8 20  1 15  0.0000000  0  9G10G30G04G17G12G05G25G29G02
 113416018.279 7  88376245.47745  21582340.773                    21582348.445
 116131309.972 7  90492012.69345  22099059.867                    22099067.563
 122861783.338 6  95736564.54143  23379806.734                    23379815.457
 128541261.801 6 100162065.173 5  24460584.641                    24460593.199
 109065793.897 8  84986373.303 7  20754527.078                    20754533.891
 108063780.215 8  84205618.483 8  20563839.359                    20563846.859
 117604433.328 7  91639936.748 7  22379398.055                    22379408.082
 128753548.613 6 100327537.655 5  24500998.461                    24501007.484
 109803899.653 8  85561582.73546  20894969.008                    20894973.707
 11  8 20  1 15 30.0000000  0  9G10G30G04G17G12G05G25G29G02
 113480400.996 7  88426413.83345  21594592.266                    21594600.063
 116077200.184 7  90449849.22545  22088763.117                    22088771.230
 122943721.999 6  95800412.82243  23395399.773                    23395407.953
 128613014.748 6 100217976.558 5  24474238.227                    24474247.406
 109062759.699 7  84984008.998 7  20753949.297                    20753955.867
 108022003.479 8  84173065.218 8  20555889.648                    20555896.840
 117539100.855 7  91589028.353 7  22366966.008                    22366976.066
 128673299.159 6 100265005.640 5  24485726.758                    24485736.520
 109828284.003 8  85580583.53246  20899609.094                    20899614.352
 11  8 20  1 16  0.0000000  0  9G10G30G04G17G12G05G25G29G02
 113545278.764 7  88476967.94145  21606937.859                    21606945.609
 116023627.322 7  90408104.15245  22078568.680                    22078576.621
 123025638.068 6  95864243.54243  23410987.930                    23410995.672
 128684954.429 6 100274033.452 6  24487927.766                    24487937.961
 109060308.892 8  84982099.278 7  20753482.906                    20753489.418
 107980773.373 8  84140937.892 8  20548043.688                    20548051.137
 117474220.512 7  91538472.250 7  22354619.789                    22354629.918
 128592976.984 6 100202416.939 5  24470442.500                    24470451.281
 109852829.944 8  85599710.24946  20904280.117                    20904285.348
 11  8 20  1 16 30.0000000  0  9G10G30G04G17G12G05G25G29G02
 113610649.278 7  88527905.99845  21619377.633                    21619385.059
 115970593.120 7  90366778.80345  22068476.516                    22068484.641
 123107530.774 6  95928056.00144  23426571.617                    23426580.246
 128757080.825 6 100330235.785 6  24501652.188                    24501664.098
 109058441.978 8  84980644.536 7  20753127.570                    20753134.250
 107940091.455 8  84109237.732 8  20540302.406                    20540309.672
 117409794.575 7  91488270.238 7  22342360.039                    22342369.965
 128512582.912 7 100139772.230 6  24455144.406                    24455152.906
 109877536.652 8  85618962.23946  20908981.648                    20908986.766
 11  8 20  1 17  0.0000000  0  8G10G30G04G12G05G25G29G02
 113676510.526 7  88579226.44545  21631910.445                    21631918.508
 115918100.014 7  90325875.08845  22058487.523                    22058495.379
 123189399.796 7  95991850.04544  23442150.367                    23442159.719
 109057159.497 8  84979645.201 7  20752883.516                    20752890.172
 107899959.259 8  84077965.924 8  20532665.125                    20532672.695
 117345825.843 7  91438424.490 7  22330186.625                    22330197.105
 128432118.119 7 100077072.395 6  24439832.469                    24439841.957
 109902403.541 8  85638339.03946  20913713.539                    20913719.145
 11  8 20  1 17 30.0000000  0  8G10G30G04G12G05G25G29G02
 113742859.567 7  88630927.00045  21644536.117                    21644544.113
 115866149.206 7  90285393.94145  22048601.867                    22048609.629
 123271243.562 6  96055624.41644  23457725.180                    23457734.211
 109056461.017 8  84979100.935 7  20752750.586                    20752757.570
 107860377.397 8  84047122.954 8  20525133.063                    20525140.672
 117282315.771 7  91388936.139 7  22318101.055                    22318111.391
 128351582.779 7 100014317.598 6  24424506.875                    24424516.477
 109927429.221 8  85657839.57446  20918476.141                    20918481.055
 11  8 20  1 18  0.0000000  0  8G10G30G04G12G05G25G29G02
 113809693.462 7  88683005.35945  21657254.820                    21657262.184
 115814742.387 7  90245336.68245  22038819.141                    22038827.047
 123353061.402 7  96119378.56844  23473294.516                    23473304.023
 109056346.711 8  84979011.862 7  20752728.664                    20752735.660
 107821347.030 8  84016709.716 8  20517705.695                    20517713.602
 117219266.638 7  91339806.955 7  22306103.555                    22306113.555
 128270977.352 7  99951508.234 6  24409168.250                    24409177.516
 109952612.654 8  85677463.03546  20923268.039                    20923273.008
 11  8 20  1 18 30.0000000  0  8G10G30G04G12G05G25G29G02
 113877009.765 7  88735459.61945  21670064.063                    21670071.863
 115763881.019 7  90205704.45145  22029140.656                    22029148.191
 123434852.057 7  96183111.53644  23488858.141                    23488867.734
 109056816.449 8  84979377.897 7  20752818.031                    20752825.348
 107782869.080 8  83986726.927 8  20510383.430                    20510391.066
 117156680.266 7  91291038.359 7  22294193.633                    22294203.125
 128190302.224 6  99888644.525 6  24393816.266                    24393825.602
 109977952.306 8  85697208.22846  20928090.000                    20928095.676
 11  8 20  1 19  0.0000000  0  8G10G30G04G12G05G25G29G02
 113944805.885 7  88788287.76045  21682965.359                    21682973.219
 115713566.681 7  90166498.46845  22019566.242                    22019574.070
 123516614.567 7  96246822.57143  23504417.250                    23504426.395
 109057870.041 8  84980198.883 7  20753018.609                    20753025.781
 107744944.757 8  83957175.546 8  20503166.828                    20503174.664
 117094558.529 7  91242631.806 7  22282371.977                    22282382.398
 128109558.106 6  99825727.073 6  24378450.703                    24378460.172
 110003447.119 8  85717074.32746  20932941.070                    20932946.934
 11  8 20  1 19 30.0000000  0  8G10G30G04G12G05G25G29G02
 114013080.516 7  88841488.75845  21695957.813                    21695965.625
 115663802.313 7  90127721.04645  22010096.047                    22010103.730
 123598349.229 6  96310511.89943  23519970.578                    23519979.484
 109059508.937 8  84981475.947 7  20753330.500                    20753337.426
 107707575.586 8  83928056.750 8  20496055.633                    20496063.488
 117032904.874 7  91194589.996 7  22270639.805                    22270649.695
 128028746.502 6  99762757.085 6  24363073.031                    24363082.113
 110029097.458 8  85737061.61446  20937822.563                    20937828.043
 11  8 20  1 20  0.0000000  0  8G10G30G04G12G05G25G29G02
 114081830.612 7  88895060.25045  21709040.664                    21709047.789
 115614588.953 7  90089372.96545  22000731.031                    22000738.875
 123680054.842 6  96374178.57343  23535519.031                    23535527.844
 109061732.556 8  84983208.645 7  20753753.625                    20753760.684
 107670762.313 8  83899371.111 8  20489050.266                    20489058.066
 116971720.826 7  91146914.104 7  22258996.914                    22259006.590
 127947867.712 6  99699734.770 6  24347681.648                    24347691.371
 110054901.757 8  85757168.86446  20942733.063                    20942738.227
 11  8 20  1 20 30.0000000  0  8G10G30G04G12G05G25G29G02
 114151053.523 7  88949000.17245  21722213.266                    21722220.691
 115565928.178 7  90051455.48245  21991471.781                    21991479.594
 123761730.391 7  96437821.88943  23551061.406                    23551069.980
 109064540.427 7  84985396.595 7  20754287.750                    20754295.105
 107634505.874 8  83871119.386 8  20482150.992                    20482158.527
 116911008.350 7  91099605.669 7  22247443.859                    22247453.805
 127866922.412 6  99636660.622 6  24332278.406                    24332287.961
 110080858.749 8  85777395.09346  20947672.148                    20947677.691
 11  8 20  1 21  0.0000000  0  8G10G30G04G12G05G25G29G02
 114220745.812 7  89003305.84745  21735475.289                    21735483.094
 115517820.742 7  90013969.16845  21982316.633                    21982324.703
 123843374.228 6  96501440.44243  23566597.344                    23566606.707
 109067931.965 8  84988039.363 7  20754933.227                    20754940.453
 107598806.772 8  83843301.938 8  20475357.641                    20475364.813
 116850768.718 7  91052665.704 7  22235980.594                    22235990.422
 127785910.586 6  99573534.583 5  24316862.422                    24316871.762
 110106966.574 8  85797738.85946  20952641.016                    20952645.641
 11  8 20  1 21 30.0000000  0  8G10G30G04G12G05G25G29G02
 114290905.833 7  89057975.99545  21748826.047                    21748834.117
 115470269.264 7  89976916.06945  21973268.078                    21973276.199
 123924986.330 7  96565034.28544  23582128.117                    23582136.957
 109071908.146 8  84991137.687 7  20755690.031                    20755696.711
 107563666.624 8  83815920.034 8  20468670.547                    20468678.324
 116791004.880 7  91006096.473 7  22224607.656                    22224617.379
 127704833.612 6  99510357.736 5  24301434.602                    24301442.703
 110133225.381 8  85818200.27546  20957637.367                    20957642.563
 11  8 20  1 22  0.0000000  0  8G10G30G04G12G05G25G29G02
 114361531.203 7  89113008.74945  21762265.719                    21762273.355
 115423275.313 7  89940297.41445  21964325.680                    21964333.512
 124006566.165 7  96628602.97343  23597651.672                    23597660.676
 109076468.819 8  84994691.460 7  20756557.617                    20756564.766
 107529086.501 8  83788974.520 8  20462090.625                    20462097.738
 116731718.943 7  90959899.653 7  22213325.383                    22213336.070
 127623692.305 6  99447130.740 5  24285993.648                    24286001.844
 110159634.340 8  85838778.68246  20962662.586                    20962668.070
 11  8 20  1 22 30.0000000  0  8G10G30G04G12G05G25G29G02
 114432618.834 7  89168401.70445  21775793.430                    21775800.898
 115376840.104 7  89904114.15045  21955488.891                    21955496.852
 124088112.559 7  96692145.59644  23613169.727                    23613178.969
 109081613.308 8  84998700.151 7  20757536.672                    20757543.578
 107495067.082 8  83762465.925 8  20455616.750                    20455623.996
 116672912.570 7  90914076.503 7  22202135.617                    22202145.777
 127542487.224 6  99383854.092 5  24270540.602                    24270549.574
 110186191.891 8  85859472.88046  20967716.539                    20967721.906
 11  8 20  1 23  0.0000000  0  8G10G30G04G12G05G25G29G02
 114504165.874 7  89224152.64345  21789408.578                    21789415.988
 115330964.959 7  89868367.29045  21946759.328                    21946767.051
 124169624.447 7  96755661.30244  23628680.820                    23628690.676
 109087341.387 8  85003163.588 7  20758627.078                    20758633.891
 107461609.224 8  83736394.903 8  20449249.984                    20449257.379
 116614587.513 7  90868628.425 7  22191036.688                    22191046.945
 127461218.811 6  99320528.175 6  24255075.688                    24255084.711
 110212896.719 8  85880281.83346  20972798.477                    20972803.801
 11  8 20  1 23 30.0000000  0  8G10G30G04G12G05G25G29G02
 114576170.644 7  89280260.24545  21803110.328                    21803117.961
 115285652.126 7  89833058.59645  21938136.641                    21938144.504
 124251102.052 6  96819150.31143  23644185.469                    23644194.848
 109093653.700 8  85008082.274 8  20759827.883                    20759835.141
 107428713.747 8  83710762.097 8  20442990.000                    20442997.277
 116556746.600 8  90823557.590 7  22180030.375                    22180040.289
 127379888.471 6  99257153.952 6  24239599.164                    24239608.117
 110239748.856 8  85901205.57846  20977908.508                    20977913.625
 11  8 20  1 24  0.0000000  0  8G10G30G04G12G05G25G29G02
 114648630.160 7  89336722.20445  21816898.563                    21816906.871
 115240903.226 7  89798189.33045  21929621.016                    21929628.949
 124332544.560 7  96882611.96343  23659684.336                    23659692.660
 109100550.220 8  85013456.184 7  20761140.516                    20761147.703
 107396382.166 8  83685568.691 8  20436837.250                    20436844.602
 116499391.811 7  90778865.568 7  22169115.648                    22169125.730
 127298496.556 6  99193731.792 6  24224110.297                    24224120.055
 110266747.411 8  85922243.40946  20983045.734                    20983051.078
 11  8 20  1 24 30.0000000  0  8G10G30G04G12G05G25G29G02
 114721541.413 7  89393536.16145  21830773.383                    21830781.074
 115196719.024 7  89763760.09345  21921213.047                    21921220.801
 124413950.666 7  96946045.26343  23675175.250                    23675183.969
 109108030.149 8  85019284.699 8  20762563.633                    20762570.559
 107364614.550 8  83660814.737 8  20430792.070                    20430799.668
 116442524.570 8  90734553.442 7  22158294.656                    22158304.293
 127217044.431 6  99130262.684 6  24208610.398                    24208620.023
 110293890.850 8  85943394.14046  20988211.266                    20988216.094
 11  8 20  1 25  0.0000000  0  8G10G30G04G12G05G25G29G02
 114794902.313 7  89450700.48145  21844733.406                    21844741.469
 115153101.288 7  89729772.24645  21912912.602                    21912920.703
 124495319.834 7  97009449.78543  23690659.039                    23690667.559
 109116093.273 8  85025567.643 7  20764098.063                    20764104.859
 107333411.941 7  83636501.048 8  20424854.813                    20424861.750
 116386147.020 8  90690622.912 7  22147566.219                    22147575.941
 127135532.362 7  99066746.857 6  24193099.781                    24193108.988
 110321178.429 7  85964657.18446  20993403.484                    20993408.738
 11  8 20  1 25 30.0000000  0  8G10G30G04G12G05G25G29G02
 114868709.651 7  89508212.67845  21858778.594                    21858786.246
 115110051.124 8  89696226.66645  21904720.977                    21904728.652
 124576651.175 7  97072824.87243  23706136.070                    23706144.313
 109124738.948 8  85032304.536 7  20765743.188                    20765750.504
 107302775.039 8  83612628.171 8  20419024.633                    20419031.922
 116330260.775 8  90647075.205 7  22136931.586                    22136941.273
 127053960.903 7  99003184.724 6  24177577.102                    24177585.773
 110348608.863 8  85986031.53846  20998623.703                    20998628.727
 11  8 20  1 26  0.0000000  0  8G10G30G04G12G05G25G29G02
 114942961.162 7  89566070.98445  21872908.227                    21872916.035
 115067570.359 7  89663124.77345  21896637.195                    21896644.773
 124657944.181 7  97136170.05643  23721605.719                    23721614.406
 109133967.609 8  85039495.690 7  20767499.352                    20767506.734
 107272704.799 8  83589196.841 8  20413302.008                    20413309.543
 116274868.238 8  90603912.213 7  22126390.508                    22126400.445
 126972331.402 7  98939577.328 6  24162044.414                    24162052.070
 110376181.739 8  86007516.88646  21003870.523                    21003875.793
 11  8 20  1 26 30.0000000  0  8G10G30G04G12G05G25G29G02
 115017653.780 7  89624273.01345  21887122.039                    21887129.293
 115025659.811 7  89630467.20045  21888661.672                    21888669.301
 124739197.837 7  97199484.60043  23737067.703                    23737076.004
 109143778.535 8  85047140.570 7  20769366.695                    20769373.594
 107243201.506 8  83566207.298 8  20407688.000                    20407695.324
 116219970.683 8  90561134.909 7  22115943.570                    22115953.555
 126890644.099 6  98875924.880 6  24146499.188                    24146507.340
 110403895.491 8  86029112.00846  21009144.156                    21009149.539
 11  8 20  1 27  0.0000000  0  8G10G30G04G12G05G25G29G02
 115092785.238 7  89682816.98845  21901418.836                    21901426.676
 114984321.528 7  89598255.54845  21880795.508                    21880803.125
 124820412.167 7  97262768.51043  23752522.250                    23752530.480
 109154171.560 8  85055239.019 7  20771344.156                    20771351.141
 107214266.365 8  83543660.456 8  20402181.906                    20402188.977
 116165570.696 8  90518745.326 7  22105591.758                    22105601.438
 126808900.340 6  98812228.484 6  24130943.469                    24130952.238
 110431750.106 8  86050816.89546  21014444.750                    21014449.930
 11  8 20  1 27 30.0000000  0  8G10G30G04G12G05G25G29G02
 115168352.793 7  89741700.77645  21915798.758                    21915806.730
 114943556.894 7  89566490.90345  21873038.305                    21873046.230
 124901586.422 6  97326021.14443  23767968.844                    23767977.660
 109165146.327 8  85063790.783 8  20773432.734                    20773439.824
 107185900.324 8  83521557.072 8  20396783.734                    20396791.441
 116111670.187 8  90476744.945 7  22095334.711                    22095344.887
 126727101.155 6  98748488.878 6  24115376.859                    24115386.129
 110459744.686 8  86072630.84146  21019771.719                    21019777.160
 11  8 20  1 28  0.0000000  0  8G10G30G04G12G05G25G29G02
 115244353.719 7  89800922.24645  21930261.531                    21930268.875
 114903366.847 8  89535173.97645  21865390.320                    21865397.914
 124982719.262 6  97389241.49843  23783408.461                    23783417.242
 109176702.316 8  85072795.445 8  20775631.461                    20775638.906
 107158103.800 8  83499897.467 8  20391494.336                    20391501.852
 116058270.647 8  90435134.932 7  22085173.195                    22085183.094
 126645246.841 6  98684706.362 6  24099800.766                    24099810.191
 110487877.614 8  86094552.59146  21025125.633                    21025130.848
 11  8 20  1 28 30.0000000  0  8G10G30G04G12G05G25G29G02
 115320785.212 7  89860479.23645  21944806.328                    21944813.715
 114863752.737 8  89504305.82445  21857851.992                    21857859.789
 125063810.656 7  97452429.60243  23798838.789                    23798847.980
 109188839.200 8  85082252.751 7  20777941.227                    20777948.156
 107130876.890 8  83478681.715 8  20386313.516                    20386320.477
 116005373.937 8  90393916.735 7  22075107.500                    22075117.199
 126563338.461 7  98620881.684 6  24084214.414                    24084223.371
 110516148.379 8  86116581.74846  21030505.008                    21030510.129
 11  8 20  1 29  0.0000000  0  8G10G30G04G12G05G25G29G02
 115397644.950 7  89920369.92245  21959431.539                    21959439.793
 114824716.138 8  89473887.70545  21850423.469                    21850431.387
 125144859.960 6  97515584.87043  23814263.195                    23814271.438
 109201556.927 8  85092162.666 7  20780361.336                    20780368.332
 107104220.765 8  83457910.733 8  20381240.906                    20381247.992
 115952982.269 8  90353092.063 7  22065137.414                    22065147.438
 126481377.082 7  98557015.720 6  24068617.992                    24068626.695
 110544556.410 8  86138717.87346  21035911.234                    21035916.309
 11  8 20  1 29 30.0000000  0  8G10G30G04G12G05G25G29G02
 115474929.479 7  89980591.60245  21974138.477                    21974146.301
 114786257.611 8  89443920.02145  21843104.906                    21843112.660
 125225865.822 7  97578706.29143  23829677.273                    23829686.645
 109214854.161 8  85102524.137 7  20782891.648                    20782898.758
 107078135.508 8  83437584.574 8  20376276.625                    20376284.152
 115901096.634 8  90312661.707 7  22055264.070                    22055273.996
 126399363.100 7  98493108.756 6  24053011.125                    24053019.805
 110573099.805 8  86160959.46946  21041342.891                    21041348.258
 11  8 20  1 30  0.0000000  0  8G10G30G04G12G05G25G29G02
 115552636.972 7  90041142.86545  21988925.836                    21988933.621
 114748379.245 7  89414404.42245  21835896.977                    21835904.902
 125306828.677 6  97641794.18043  23845084.047                    23845093.457
 109228731.285 8  85113337.479 7  20785532.344                    20785539.781
 107052622.480 8  83417704.310 8  20371421.727                    20371429.258
 115849719.794 8  90272627.814 7  22045487.484                    22045497.563
 126317298.189 6  98429162.132 6  24037394.359                    24037403.375
 110601779.206 8  86183307.05046  21046800.273                    21046805.621
 11  8 20  1 30 30.0000000  0  8G10G30G04G12G05G25G29G02
 115630764.184 7  90102021.19745  22003792.922                    22003801.004
 114711081.439 7  89385341.20045  21828799.016                    21828807.492
 125387747.085 6  97704847.46543  23860482.273                    23860491.207
 109243186.720 8  85124601.451 7  20788283.133                    20788290.492
 107027681.692 8  83398269.952 8  20366675.945                    20366683.273
 115798852.721 8  90232991.149 7  22035807.625                    22035817.578
 126235182.417 6  98365175.868 6  24021768.133                    24021777.148
 110630592.328 8  86205758.82246  21052283.383                    21052288.613
 11  8 20  1 31  0.0000000  0  8G10G30G04G12G05G25G29G02
 115709308.384 7  90163224.45145  22018739.711                    22018747.359
 114674365.612 7  89356731.47645  21821812.766                    21821820.762
 125468620.498 6  97767865.70043  23875872.313                    23875880.613
 109258220.337 8  85136315.953 7  20791143.695                    20791151.223
 107003313.215 8  83379281.550 8  20362038.391                    20362045.586
 115748497.310 8  90193753.174 7  22026225.086                    22026235.125
 126153016.877 6  98301150.811 6  24006132.680                    24006141.926
 110659538.439 8  86228314.24146  21057791.742                    21057796.543
 11  8 20  1 31 30.0000000  0  8G10G30G04G12G05G25G29G02
 115788267.433 7  90224750.95945  22033764.609                    22033772.246
 114638233.452 8  89328576.55345  21814936.664                    21814944.832
 125549448.972 6  97830848.88843  23891252.953                    23891262.090
 109273832.767 8  85148481.478 7  20794114.938                    20794122.043
 106979518.448 8  83360740.193 8  20357510.578                    20357518.012
 115698655.942 8  90154915.756 7  22016740.492                    22016750.531
 126070803.066 6  98237088.168 6  23990487.484                    23990496.434
 110688618.017 8  86250973.64546  21063325.234                    21063330.668
 11  8 20  1 32  0.0000000  0  8G10G30G04G12G05G25G29G02
 115867637.817 7  90286597.99145  22048868.219                    22048876.293
 114602685.661 8  89300877.00145  21808172.500                    21808180.520
 125630231.705 6  97893796.38443  23906625.648                    23906635.137
 109290022.316 8  85161096.699 7  20797196.031                    20797202.953
 106956297.500 8  83342645.964 8  20353091.852                    20353099.184
 115649329.855 8  90116479.861 7  22007354.477                    22007364.180
 125988541.814 6  98172988.511 6  23974834.273                    23974842.750
 110717829.559 8  86273735.88946  21068884.094                    21068889.160
 11  8 20  1 32 30.0000000  0  8G10G30G04G12G05G25G29G02
 115947416.572 7  90348763.24245  22064050.156                    22064057.453
 114567723.120 8  89273633.48745  21801519.141                    21801527.309
 125710967.594 6  97956707.45543  23921989.844                    23921998.410
 109306788.299 8  85174161.093 7  20800386.117                    20800393.652
 106933650.803 8  83324999.215 8  20348782.273                    20348789.582
 115600520.528 8  90078446.635 7  21998066.273                    21998075.930
 125906233.671 6  98108852.346 6  23959170.953                    23959180.371
 110747171.827 8  86296599.99146  21074467.469                    21074472.883
 11  8 20  1 33  0.0000000  0  8G10G30G04G12G05G25G29G02
 116027601.504 7  90411244.99445  22079308.641                    22079316.402
 114533347.202 7  89246847.08045  21794977.602                    21794985.250
 125791656.554 6  98019581.96343  23937343.984                    23937352.758
 109324130.309 8  85187674.347 7  20803686.422                    20803693.656
 106911578.659 8  83307800.157 8  20344582.047                    20344589.465
 115552229.910 8  90040817.598 7  21988876.859                    21988886.723
 125823879.884 6  98044680.611 6  23943498.938                    23943508.578
 110776644.310 8  86319565.56946  21080075.859                    21080081.691
 11  8 20  1 33 30.0000000  0  8G10G30G04G12G05G25G29G02
 116108189.823 7  90474041.08244  22094644.055                    22094651.676
 114499558.857 7  89220518.52245  21788547.844                    21788555.695
 125872297.945 6  98082419.36143  23952689.555                    23952698.324
 109342047.682 8  85201635.940 7  20807095.711                    20807103.410
 106890081.401 8  83291049.073 8  20340491.156                    20340498.438
 115504459.599 8  90003594.003 7  21979786.031                    21979796.555
 125741480.936 6  97980473.686 6  23927819.492                    23927828.594
 110806246.103 8  86342631.90246  21085709.172                    21085714.711
 11  8 20  1 34  0.0000000  0  8G10G30G04G12G05G25G29G02
 116189178.326 7  90537148.98445  22110055.930                    22110063.238
 114466358.665 7  89194648.26445  21782230.180                    21782238.191
 125952890.755 6  98145218.89743  23968025.523                    23968035.051
 109360539.350 8  85216045.024 7  20810614.602                    20810621.832
 106869159.265 8  83274746.136 8  20336509.766                    20336517.098
 115457210.817 8  89966776.800 7  21970794.961                    21970804.848
 125659038.038 6  97916232.508 6  23912130.578                    23912139.965
 110835975.917 8  86365797.99346  21091366.781                    21091371.477
 11  8 20  1 34 30.0000000  0  8G10G30G04G12G05G25G29G02
 116270564.462 7  90600566.73745  22125542.789                    22125550.938
 114433748.341 7  89169237.65745  21776024.422                    21776032.398
 126033435.234 6  98207980.77544  23983353.422                    23983362.301
 109379604.977 8  85230901.346 7  20814242.594                    20814249.742
 106848812.936 8  83258891.875 8  20332637.914                    20332645.195
 115410485.840 8  89930367.761 7  21961903.469                    21961913.328
 125576552.487 6  97851958.078 6  23896435.039                    23896443.340
 110865833.863 8  86389063.92446  21097048.266                    21097053.809
 11  8 20  1 35  0.0000000  0  8G10G30G04G12G05G25G29G02
 116352345.194 7  90664291.98245  22141105.531                    22141112.605
 114401728.335 7  89144287.03045  21769931.297                    21769939.273
 126113930.174 6  98270704.06843  23998670.938                    23998679.965
 109399243.426 8  85246204.019 7  20817979.750                    20817987.004
 106829042.322 8  83243486.232 8  20328875.688                    20328882.645
 115364285.758 8  89894367.730 7  21953111.914                    21953121.605
 125494024.806 7  97787650.793 6  23880730.352                    23880738.891
 110895818.259 8  86412428.39246  21102753.891                    21102759.375
 11  8 20  1 35 30.0000000  0  8G10G30G04G12G05G25G29G02
 116434517.746 7  90728322.52444  22156742.016                    22156750.094
 114370299.726 7  89119797.23445  21763950.391                    21763958.422
 126194375.271 6  98333388.52643  24013979.336                    24013988.211
 109419454.215 8  85261952.685 7  20821825.734                    20821832.914
 106809847.953 8  83228529.606 8  20325223.352                    20325230.652
 115318612.324 8  89858778.076 7  21944420.789                    21944430.457
 125411456.012 7  97723311.467 6  23865017.875                    23865026.703
 110925928.663 8  86435891.04546  21108484.008                    21108489.285
 11  8 20  1 36  0.0000000  0  8G10G30G04G12G05G25G29G02
 116517079.661 7  90792656.46645  22172453.383                    22172461.027
 114339463.679 7  89095769.17345  21758082.883                    21758090.652
 126274770.355 6  98396034.04643  24029277.336                    24029286.387
 109440236.448 8  85278146.622 7  20825780.570                    20825787.914
 106791230.264 8  83214022.349 8  20321680.320                    20321687.391
 115273467.337 8  89823600.199 7  21935829.648                    21935839.348
 125328847.188 7  97658940.953 6  23849298.359                    23849306.992
 110956164.497 8  86459451.43746  21114237.570                    21114242.719
 11  8 20  1 36 30.0000000  0  8G10G30G04G12G05G25G29G02
 116600027.635 7  90857291.24045  22188237.602                    22188245.477
 114309220.540 7  89072203.12245  21752327.398                    21752335.367
 126355114.267 6  98458639.64443  24044565.891                    24044575.469
 109461589.376 8  85294785.258 7  20829843.992                    20829851.047
 106773188.904 8  83199964.179 8  20318247.227                    20318254.781
 115228851.729 8  89788834.818 7  21927339.703                    21927349.457
 125246199.204 7  97594539.943 6  23833570.719                    23833579.441
 110986524.391 8  86483108.50246  21120014.844                    21120020.438
 11  8 20  1 37  0.0000000  0  8G10G30G04G12G05G25G29G02
 116683359.791 7  90922225.36044  22204095.508                    22204103.367
 114279571.997 7  89049100.38845  21746685.445                    21746693.832
 126435407.409 6  98521205.69643  24059845.844                    24059854.406
 109483512.159 8  85311867.933 7  20834015.500                    20834022.738
 106755724.909 8  83186355.900 8  20314923.906                    20314931.066
 115184767.912 8  89754483.813 7  21918950.789                    21918960.770
 125163514.031 7  97530109.969 6  23817835.945                    23817845.000
 111017008.739 8  86506862.53746  21125815.867                    21125821.152
 11  8 20  1 37 30.0000000  0  8G10G30G04G12G05G25G29G02
 116767072.322 7  90987455.88544  22220024.922                    22220032.789
 114250518.139 7  89026461.04345  21741156.820                    21741164.965
 126515648.535 6  98583731.22643  24075115.133                    24075124.324
 109506003.604 8  85329393.726 7  20838295.898                    20838303.008
 106738837.625 8  83173197.003 8  20311710.188                    20311717.293
 115141216.505 8  89720547.680 7  21910663.156                    21910672.867
 125080791.666 7  97465651.008 6  23802094.617                    23802103.570
 111047615.505 8  86530711.97446  21131640.141                    21131645.383
 11  8 20  1 38  0.0000000  0  8G10G30G04G12G05G25G29G02
 116851162.555 7  91052980.70245  22236027.086                    22236035.352
 114222059.970 7  89004285.86445  21735741.398                    21735749.242
 126595837.468 6  98646216.06443  24090374.656                    24090384.402
 109529062.894 8  85347361.993 7  20842683.789                    20842691.066
 106722527.610 8  83160487.935 8  20308606.781                    20308613.629
 115098199.326 8  89687027.834 7  21902477.367                    21902487.352
 124998033.526 7  97401164.181 6  23786346.172                    23786355.406
 111078344.400 8  86554656.57546  21137487.672                    21137492.715
 11  8 20  1 38 30.0000000  0  8G10G30G04G12G05G25G29G02
 116935628.268 7  91118798.12345  22252100.508                    22252107.988
 114194198.778 7  88982575.85445  21730439.633                    21730447.641
 126675973.928 6  98708660.01443  24105624.070                    24105633.270
 109552689.475 8  85365772.304 7  20847179.688                    20847187.094
 106706795.280 8  83148229.001 8  20305612.547                    20305620.117
 115055718.184 8  89653925.671 7  21894393.445                    21894403.094
 124915240.974 7  97336650.521 6  23770591.156                    23770600.078
 111109195.177 8  86578696.13546  21143358.492                    21143363.438
 11  8 20  1 39  0.0000000  0  8G10G30G04G12G05G25G29G02
 117020466.442 7  91184905.77644  22268244.422                    22268252.305
 114166935.074 7  88961331.42345  21725251.789                    21725259.512
 126756057.350 6  98771062.70943  24120863.789                    24120872.555
 109576882.453 8  85384623.964 7  20851783.719                    20851790.672
 106691640.546 8  83136420.150 8  20302729.211                    20302736.281
 115013774.314 8  89621242.152 7  21886411.703                    21886421.160
 124832415.033 7  97272110.866 6  23754830.133                    23754838.359
 111140166.933 8  86602829.97346  21149252.305                    21149257.867
 11  8 20  1 39 30.0000000  0  8G10G30G04G12G05G25G29G02
 117105673.600 7  91251300.95345  22284458.875                    22284467.348
 114140269.068 7  88940552.73445  21720177.336                    21720184.844
 126836086.971 7  98833423.44243  24136093.258                    24136101.730
 109601640.165 8  85403915.684 7  20856494.875                    20856501.891
 106677063.100 8  83125061.120 8  20299955.000                    20299962.285
 114972368.682 8  89588978.039 7  21878532.352                    21878542.469
 124749556.201 6  97207545.576 6  23739062.328                    23739071.648
 111171258.144 8  86627056.89146  21155168.453                    21155174.063
 11  8 20  1 40  0.0000000  0  8G10G30G04G12G05G25G29G02
 117191247.174 7  91317981.65044  22300742.773                    22300750.613
 114114201.744 7  88920240.54545  21715216.547                    21715224.797
 126916062.457 6  98895741.93543  24151311.188                    24151320.430
 109626962.047 8  85423647.020 7  20861313.453                    20861320.723
 106663063.014 8  83114151.987 8  20297290.719                    20297298.070
 114931502.900 8  89557134.583 7  21870755.859                    21870765.930
 124666665.903 6  97142955.777 6  23723288.445                    23723297.707
 111202468.514 8  86651376.66246  21161107.695                    21161112.766
 11  8 20  1 40 30.0000000  0  8G10G30G04G12G05G25G29G02
 117277184.732 7  91384945.95345  22317097.016                    22317104.711
 114088734.101 7  88900395.64045  21710370.438                    21710378.324
 126995983.827 6  98958018.32143  24166520.547                    24166528.816
 109652847.233 8  85443817.292 7  20866239.320                    20866246.094
 106649640.999 8  83103693.288 8  20294736.664                    20294743.863
 114891178.664 8  89525713.100 7  21863082.789                    21863092.719
 124583745.506 6  97078342.541 6  23707508.922                    23707518.770
 111233797.840 8  86675789.13146  21167069.406                    21167075.023
 11  8 20  1 41  0.0000000  0  8G10G30G04G12G05G25G29G02
 117363482.848 7  91452191.23644  22333518.750                    22333526.668
 114063866.408 7  88881018.22345  21705638.023                    21705646.059
 127075850.047 6  99020251.73443  24181717.813                    24181727.465
 109679294.179 8  85464425.295 7  20871271.875                    20871278.910
 106636796.463 8  83093684.583 8  20292292.789                    20292299.699
 114851396.934 8  89494714.360 7  21855512.578                    21855522.203
 124500795.583 6  97013706.320 6  23691724.117                    23691733.930
 111265244.522 8  86700293.04546  21173053.484                    21173058.836
 11  8 20  1 41 30.0000000  0  8G10G30G04G12G05G25G29G02
 117450138.485 7  91519715.08844  22350008.938                    22350016.344
 114039599.205 8  88862108.72245  21701020.203                    21701028.434
 127155660.766 6  99082441.84643  24196905.250                    24196915.266
 109706302.100 8  85485470.425 7  20876411.406                    20876418.508
 106624529.333 8  83084125.791 8  20289958.250                    20289965.285
 114812158.921 8  89464139.282 7  21848045.805                    21848055.207
 124417817.680 7  96949048.264 6  23675934.438                    23675942.930
 111296808.133 8  86724888.07446  21179060.039                    21179065.375
 11  8 20  1 42  0.0000000  0  8G10G30G04G12G05G25G29G02
 117537149.492 7  91587515.88344  22366566.617                    22366574.273
 114015933.537 8  88843667.93445  21696516.563                    21696524.863
 127235416.084 6  99144588.78643  24212081.883                    24212092.043
 109733869.779 8  85506951.731 7  20881657.148                    20881664.527
 106612839.620 8  83075016.949 8  20287733.695                    20287740.738
 114773466.360 8  89433989.238 7  21840682.617                    21840692.875
 124334812.979 7  96884369.345 6  23660138.883                    23660147.941
 111328488.442 8  86749574.03346  21185088.602                    21185093.723
 11  8 20  1 42 30.0000000  0  8G10G30G04G12G05G25G29G02
 117624512.920 7  91655591.27044  22383191.297                    22383198.699
 113992869.978 8  88825696.34145  21692127.805                    21692135.719
 127315115.517 6  99206692.19743  24227249.570                    24227258.359
 109761996.177 8  85528868.408 7  20887009.539                    20887016.758
 106601727.756 8  83066358.360 8  20285618.945                    20285626.375
 114735320.601 8  89404265.268 7  21833423.609                    21833433.613
 124251782.694 7  96819670.471 6  23644339.211                    23644347.234
 111360284.656 8  86774350.29946  21191139.133                    21191144.406
 11  8 20  1 43  0.0000000  0  8G10G30G04G12G05G25G29G02
 117712225.195 7  91723938.49644  22399882.070                    22399890.027
 113970408.395 8  88808193.81045  21687853.914                    21687861.457
 127394757.956 6  99268751.26543  24242404.813                    24242413.484
 109790679.756 8  85551219.244 7  20892467.609                    20892474.762
 106591192.627 8  83058149.189 8  20283613.992                    20283621.309
 114697722.188 8  89374967.814 7  21826268.938                    21826278.867
 124168727.087 7  96754951.883 6  23628534.016                    23628542.438
 111392195.012 8  86799215.52346  21197211.672                    21197216.855
 11  8 20  1 43 30.0000000  0  9G10G30G04G26G12G05G25G29G02
 117800284.120 7  91792555.85645  22416639.227                    22416646.723
 113948549.966 8  88791161.26645  21683694.156                    21683702.238
 127474343.746 6  99330766.17943  24257549.227                    24257558.289
 130548306.31016 101726009.19353  24842521.914                    24842530.758
 109819920.095 8  85574003.913 7  20898032.320                    20898039.223
 106581235.126 8  83050390.116 8  20281719.313                    20281726.504
 114660673.104 8  89346098.397 7  21819218.969                    21819228.969
 124085648.340 7  96690215.258 6  23612724.484                    23612733.449
 111424220.212 8  86824170.22346  21203305.719                    21203310.703
 11  8 20  1 44  0.0000000  0  9G10G30G04G26G12G05G25G29G02
 117888687.066 7  91861441.27144  22433462.055                    22433469.867
 113927295.377 8  88774599.25145  21679649.906                    21679657.250
 127553872.725 6  99392736.80843  24272682.969                    24272692.082
 130456409.937 6 101654401.82143  24825033.625                    24825044.633
 109849716.023 8  85597221.521 7  20903702.422                    20903709.063
 106571855.275 8  83043081.163 8  20279934.430                    20279941.535
 114624174.655 8  89317658.047 7  21812273.344                    21812282.848
 124002547.739 7  96625461.605 6  23596911.281                    23596919.609
 111456359.502 8  86849213.83146  21209421.750                    21209426.938
 11  8 20  1 44 30.0000000  0  9G10G30G04G26G12G05G25G29G02
 117977431.323 7  91930592.63345  22450349.461                    22450357.047
 113906645.160 8  88758508.18145  21675719.859                    21675727.770
 127633344.718 6  99454663.03043  24287805.766                    24287815.648
 130364377.142 6 101582688.12543  24807520.242                    24807531.145
 109880066.263 7  85620871.048 7  20909477.641                    20909484.711
 106563052.759 8  83036222.083 8  20278259.234                    20278266.441
 114588228.187 8  89289647.810 7  21805432.711                    21805442.918
 123919426.626 7  96560691.960 6  23581093.703                    23581102.324
 111488612.223 7  86874345.82746  21215559.063                    21215564.398
 11  8 20  1 45  0.0000000  0  9G10G30G04G26G12G05G25G29G02
 118066513.056 7  92000006.94744  22467300.867                    22467308.633
 113886599.073 8  88742887.85645  21671905.250                    21671913.383
 127712758.561 6  99516543.90643  24302917.977                    24302927.402
 130272209.981 6 101510869.71943  24789981.227                    24789992.227
 109910968.931 8  85644951.058 7  20915358.203                    20915365.363
 106554826.596 8  83029812.114 8  20276694.102                    20276701.227
 114552834.103 8  89262068.013 7  21798697.602                    21798707.742
 123836285.394 7  96495906.623 6  23565272.258                    23565280.652
 111520977.001 8  86899565.14146  21221717.789                    21221723.422
 11  8 20  1 45 30.0000000  0  9G10G30G04G26G12G05G25G29G02
 118155929.601 7  92069682.18344  22484315.852                    22484324.461
 113867157.794 8  88727738.79745  21668205.586                    21668213.598
 127792114.139 6  99578379.43443  24318018.367                    24318028.141
 130179911.354 6 101438948.91743  24772417.438                    24772428.227
 109942423.032 7  85669460.741 7  20921343.820                    20921350.559
 106547176.989 8  83023851.408 8  20275238.242                    20275245.324
 114517993.881 8  89234919.789 7  21792067.727                    21792078.008
 123753125.444 7  96431106.717 6  23549447.438                    23549455.902
 111553453.506 7  86924871.51246  21227897.711                    21227902.910
 11  8 20  1 46  0.0000000  0  9G10G30G04G26G12G05G25G29G02
 118245677.872 7  92139615.88544  22501394.891                    22501402.184
 113848321.495 8  88713061.16445  21664621.383                    21664629.094
 127871410.986 7  99640169.22743  24333109.313                    24333117.508
 130087484.003 6 101366927.77043  24754828.672                    24754839.809
 109974426.866 7  85694398.794 7  20927433.625                    20927440.703
 106540103.485 8  83018339.620 8  20273892.219                    20273899.613
 114483708.400 8  89208203.842 7  21785543.469                    21785553.414
 123669947.913 7  96366293.084 6  23533619.445                    23533627.703
 111586040.751 8  86950264.17646  21234099.000                    21234104.398
 11  8 20  1 46 30.0000000  0  9G10G30G04G26G12G05G25G29G02
 118335755.150 7  92209805.95144  22518535.914                    22518544.301
 113830090.661 8  88698855.32645  21661151.906                    21661160.109
 127950648.689 6  99701912.97243  24348187.305                    24348195.906
 129994930.926 6 101294808.65443  24737216.539                    24737227.625
 110006979.465 8  85719764.453 7  20933628.227                    20933635.195
 106533605.880 8  83013276.582 8  20272655.508                    20272662.805
 114449978.947 8  89181921.167 7  21779124.953                    21779135.145
 123586754.057 7  96301466.753 6  23517787.813                    23517796.883
 111618738.376 8  86975742.84446  21240320.977                    21240327.086
 11  8 20  1 47  0.0000000  0  9G10G30G04G26G12G05G25G29G02
 118426158.450 7  92280250.09044  22535738.953                    22535746.758
 113812465.558 8  88685121.47645  21657798.492                    21657806.152
 128029827.180 6  99763610.53543  24363254.391                    24363263.480
 129902254.900 6 101222593.76143  24719580.711                    24719590.996
 110040079.420 8  85745556.622 7  20939926.906                    20939933.996
 106527683.802 8  83008662.012 8  20271528.539                    20271535.707
 114416806.486 7  89156072.500 7  21772812.680                    21772822.469
 123503545.088 7  96236628.631 6  23501954.063                    23501962.402
 111651545.629 8  87001306.94346  21246564.000                    21246569.207
 11  8 20  1 47 30.0000000  0  9G10G30G04G26G12G05G25G29G02
 118516885.136 6  92350946.20444  22553004.000                    22553012.188
 113795446.504 8  88671859.87545  21654559.742                    21654567.676
 128108946.156 6  99825261.64443  24378309.641                    24378319.465
 129809458.596 6 101150285.11443  24701922.266                    24701932.445
 110073725.530 7  85771774.375 7  20946329.742                    20946336.746
 106522336.884 8  83004495.616 8  20270511.367                    20270518.441
 114384192.124 8  89130658.718 7  21766606.125                    21766615.930
 123420322.438 6  96171779.853 6  23486116.984                    23486125.832
 111684462.024 7  87026956.09746  21252828.047                    21252833.664
 11  8 20  1 48  0.0000000  0  9G10G30G04G26G12G05G25G29G02
 118607932.198 7  92421891.95544  22570329.789                    22570337.578
 113779033.713 8  88659070.69345  21651436.344                    21651443.949
 128188005.308 6  99886866.15543  24393354.172                    24393364.027
 129716545.363 6 101077885.36143  24684241.078                    24684251.172
 110107915.970 8  85798416.268 7  20952836.148                    20952842.852
 106517564.986 8  83000777.298 8  20269603.328                    20269610.203
 114352136.823 8  89105680.569 7  21760506.305                    21760516.129
 123337087.110 7  96106921.216 6  23470277.430                    23470286.578
 111717486.876 7  87052689.74346  21259112.367                    21259117.828
 11  8 20  1 48 30.0000000  0  9G10G30G04G26G12G05G25G29G02
 118699296.824 6  92493085.13044  22587715.883                    22587723.840
 113763227.657 8  88646754.28745  21648428.492                    21648436.336
 128267004.239 6  99948423.73743  24408387.758                    24408396.598
 129623517.908 6 101005396.59743  24666538.164                    24666548.527
 110142650.025 7  85825481.771 7  20959445.641                    20959452.504
 106513368.004 8  82997506.956 8  20268804.445                    20268811.703
 114320641.839 8  89081139.026 7  21754513.109                    21754522.859
 123253840.776 6  96042053.970 6  23454436.344                    23454444.953
 111750619.662 7  87078507.51146  21265417.398                    21265422.621
 11  8 20  1 49  0.0000000  0  9G10G30G04G26G12G05G25G29G02
 118790976.060 6  92564523.50244  22605161.406                    22605169.801
 113748028.193 8  88634910.54545  21645536.180                    21645544.016
 128345942.678 6 100009934.28443  24423408.977                    24423418.137
 129530378.990 6 100932821.00743  24648814.836                    24648825.363
 110177925.456 8  85852969.124 7  20966158.359                    20966165.133
 106509744.822 8  82994683.736 8  20268114.719                    20268122.160
 114289707.769 8  89057034.562 7  21748626.102                    21748636.449
 123170584.285 7  95977178.856 6  23438593.555                    23438601.699
 111783859.501 7  87104408.68246  21271742.703                    21271748.004
 11  8 20  1 49 30.0000000  0  9G10G30G04G26G12G05G25G29G02
 118882967.096 7  92636204.83544  22622666.875                    22622674.313
 113733435.859 8  88623539.89645  21642759.172                    21642767.188
 128424820.240 6 100071397.38043  24438419.070                    24438428.195
 129437131.704 6 100860160.92343  24631070.453                    24631080.324
 110213741.238 8  85880877.526 7  20972973.602                    20972980.668
 106506695.571 8  82992307.731 8  20267534.844                    20267541.762
 114259335.970 8  89033368.224 7  21742846.805                    21742856.680
 123087319.259 7  95912297.049 6  23422748.102                    23422757.125
 111817206.194 7  87130393.11546  21278088.414                    21278093.496
 11  8 20  1 50  0.0000000  0  9G10G30G04G26G12G05G25G29G02
 118975266.729 7  92708126.62744  22640231.578                    22640239.477
 113719450.573 8  88612642.27045  21640098.039                    21640106.074
 128503636.912 6 100132812.98443  24453416.844                    24453426.078
 129343778.865 6 100787418.66042  24613304.969                    24613315.391
 110250095.759 8  85909205.725 7  20979891.922                    20979898.867
 106504219.513 7  82990378.376 8  20267063.375                    20267070.508
 114229527.068 8  89010140.519 7  21737174.313                    21737184.402
 123004046.770 7  95847409.437 6  23406901.563                    23406911.039
 111850658.899 8  87156460.15546  21284454.125                    21284459.438
 11  8 20  1 50 30.0000000  0  9G10G30G04G26G12G05G25G29G02
 119067872.678 6  92780287.13444  22657853.828                    22657861.047
 113706072.572 8  88602217.85445  21637552.391                    21637560.336
 128582392.140 6 100194180.70543  24468403.758                    24468412.746
 129250323.487 6 100714596.43942  24595520.703                    24595531.680
 110286987.754 8  85937952.736 7  20986912.094                    20986919.105
 106502316.280 8  82988895.377 8  20266701.188                    20266708.594
 114200282.228 8  88987352.342 7  21731609.313                    21731618.969
 122920768.299 7  95782517.165 6  23391055.320                    23391064.086
 111884217.070 8  87182609.38246  21290839.859                    21290845.035
 11  8 20  1 51  0.0000000  0  9G10G30G04G26G12G05G25G29G02
 119160781.595 7  92852683.70444  22675532.625                    22675541.629
 113693301.960 8  88592266.73945  21635122.086                    21635129.941
 128661085.816 6 100255500.49743  24483378.406                    24483387.316
 129156768.645 6 100641696.71642  24577717.563                    24577728.922
 110324415.060 8  85967116.871 7  20994034.578                    20994041.020
 106500985.397 8  82987858.361 8  20266448.086                    20266454.957
 114171602.204 8  88965004.278 7  21726151.695                    21726161.652
 122837484.939 7  95717621.074 6  23375206.430                    23375215.109
 111917880.198 8  87208840.38946  21297245.773                    21297251.211
 11  8 20  1 51 30.0000000  0  9G10G30G04G26G12G05G25G29G02
 119253990.763 7  92925314.23244  22693270.578                    22693278.207
 113681138.861 8  88582789.00445  21632807.516                    21632815.512
 128739717.67217 100316772.16353  24498342.305                    24498350.215
 129063117.246 6 100568721.72142  24559896.922                    24559907.430
 110362376.728 8  85996697.388 7  21001258.094                    21001265.371
 106500226.432 8  82987266.990 8  20266303.641                    20266310.660
 114143487.947 8  88943097.071 7  21720801.586                    21720811.133
 122754198.482 7  95652722.587 6  23359357.742                    23359366.168
 111951647.925 7  87235152.91446  21303671.875                    21303676.926
 11  8 20  1 52  0.0000000  0  9G10G30G04G26G12G05G25G29G02
 119347497.010 7  92998176.22444  22711063.805                    22711071.797
 113669583.085 8  88573784.50545  21630608.430                    21630616.469
 128818287.339 7 100377995.33843  24513293.664                    24513302.145
 128969371.924 6 100495673.59142  24542058.039                    24542068.313
 110400870.869 8  86026692.823 7  21008583.352                    21008590.246
 106500038.470 8  82987120.564 8  20266267.945                    20266274.922
 114115940.064 8  88921631.196 7  21715559.328                    21715569.441
 122670909.866 7  95587822.421 6  23343508.313                    23343516.586
 111985519.161 8  87261546.09446  21310117.438                    21310122.777
 11  8 20  1 52 30.0000000  0  9G10G30G04G26G12G05G25G29G02
 119441297.435 6  93071267.48244  22728913.570                    22728921.184
 113658634.733 8  88565253.32645  21628525.039                    21628532.867
 128896794.773 6 100439169.96143  24528231.922                    24528241.945
 128875535.850 6 100422554.70142  24524201.898                    24524211.578
 110439895.913 8  86057101.948 7  21016009.430                    21016016.289
 106500421.144 8  82987418.785 8  20266340.313                    20266347.617
 114088959.485 8  88900607.370 7  21710425.141                    21710435.168
 122587620.504 7  95522921.662 6  23327658.563                    23327667.590
 112019493.679 8  87288019.74546  21316582.266                    21316587.695
 11  8 20  1 53  0.0000000  0  9G10G30G04G26G12G05G25G29G02
 119535389.330 7  93144585.85744  22746818.859                    22746826.738
 113648293.855 8  88557195.49545  21626557.094                    21626565.551
 128975239.505 6 100500295.72343  24543159.445                    24543169.281
 128781612.107 6 100349367.51843  24506327.742                    24506338.047
 110479450.420 8  86087923.636 7  21023536.828                    21023543.633
 106501373.627 8  82988161.011 8  20266521.695                    20266528.957
 114062547.007 8  88880026.220 7  21705399.281                    21705409.180
 122504331.817 7  95458021.436 6  23311810.164                    23311817.961
 112053570.913 8  87314573.43846  21323067.086                    21323072.301
 11  8 20  1 53 30.0000000  0  9G10G30G04G26G12G05G25G29G02
 119629769.590 7  93218128.93644  22764778.742                    22764786.230
 113638560.304 8  88549610.90745  21624704.883                    21624712.930
 129053621.604 5 100561372.61143  24558075.797                    24558085.113
 128687603.760 6 100276114.36942  24488438.703                    24488448.785
 110519532.889 8  86119156.727 7  21031164.000                    21031170.988
 106502895.662 8  82989347.044 8  20266811.328                    20266818.148
 114036703.418 8  88859888.372 7  21700481.313                    21700491.184
 122421045.142 7  95393122.761 6  23295960.273                    23295969.141
 112087750.283 8  87341206.71846  21329571.109                    21329576.395
 11  8 20  1 54  0.0000000  0  9G10G30G04G26G12G05G25G29G02
 119724435.521 6  93291894.58744  22782792.414                    22782800.539
 113629434.207 8  88542499.66445  21622968.398                    21622976.297
 129131940.934 5 100622400.62043  24572977.477                    24572988.637
 128593513.743 6 100202797.57543  24470533.734                    24470544.359
 110560141.468 8  86150799.773 7  21038891.430                    21038898.453
 106504986.460 7  82990976.262 8  20267209.172                    20267216.230
 114011429.520 8  88840194.453 7  21695671.758                    21695681.711
 122337762.030 6  95328226.882 6  23280112.086                    23280120.742
 112122031.412 8  87367919.30346  21336094.656                    21336099.684
 11  8 20  1 54 30.0000000  0  9G10G30G04G26G12G05G25G29G02
 119819384.077 7  93365880.47444  22800860.625                    22800869.629
 113620915.403 8  88535861.62745  21621347.422                    21621355.629
 129210197.124 5 100683379.37543  24587870.031                    24587879.973
 128499345.082 6 100129419.52443  24452614.094                    24452624.398
 110601274.331 8  86182851.347 7  21046718.828                    21046725.832
 106507645.420 7  82993048.212 8  20267715.297                    20267722.012
 113986726.045 8  88820945.004 7  21690970.586                    21690980.613
 122254483.834 6  95263334.818 6  23264264.727                    23264272.840
 112156413.790 8  87394710.78646  21342637.664                    21342642.570
 11  8 20  1 55  0.0000000  0  9G10G30G04G26G12G05G25G29G02
 119914612.475 7  93440084.40144  22818982.852                    22818990.023
 113613003.768 8  88529696.71245  21619841.609                    21619850.137
 129288389.989 6 100744308.86243  24602750.523                    24602759.539
 128405100.954 6 100055982.67943  24434680.016                    24434690.199
 110642929.449 8  86215309.874 7  21054645.727                    21054652.844
 106510871.904 7  82995562.379 8  20268329.398                    20268336.238
 113962593.633 7  88802140.543 7  21686378.719                    21686388.234
 122171211.812 6  95198447.570 6  23248418.461                    23248426.758
 112190896.729 7  87421580.63246  21349199.172                    21349204.477
 11  8 20  1 55 30.0000000  0  9G10G30G04G26G12G05G25G29G02
 120010117.691 6  93514504.01844  22837156.719                    22837164.785
 113605699.020 8  88524004.70545  21618451.578                    21618459.441
 129366519.188 7 100805188.73043  24617618.492                    24617627.094
 128310784.367 6  99982489.33743  24416732.070                    24416742.328
 110685105.424 8  86248174.266 7  21062671.531                    21062678.832
 106514664.932 8  82998518.004 8  20269050.883                    20269058.156
 113939032.874 8  88783781.535 7  21681895.258                    21681904.859
 122087947.144 7  95133566.063 6  23232573.344                    23232582.281
 112225479.620 7  87448528.35546  21355780.055                    21355785.359
 11  8 20  1 56  0.0000000  0  9G10G30G04G26G12G05G25G29G02
 120105896.971 6  93589137.23544  22855382.516                    22855390.320
 113599001.235 8  88518785.64745  21617177.148                    21617185.293
 129444584.813 7 100866019.09643  24632473.984                    24632482.750
 128216398.195 6  99908941.80343  24398770.984                    24398781.531
 110727800.924 8  86281443.479 7  21070796.313                    21070803.125
 106519024.032 8  83001914.727 8  20269880.625                    20269887.734
 113916044.597 8  88765868.608 7  21677520.547                    21677530.305
 122004691.740 6  95068691.743 6  23216730.984                    23216738.918
 112260162.434 7  87475553.93746  21362380.102                    21362385.340
 11  8 20  1 56 30.0000000  0  9G10G30G04G26G12G05G25G29G02
 120201947.425 7  93663981.70644  22873661.047                    22873668.617
 113592909.878 8  88514039.14745  21616018.039                    21616026.211
 129522586.434 7 100926799.54343  24647317.313                    24647325.531
 128121945.640 6  99835342.52943  24380796.906                    24380807.273
 110771013.657 8  86315115.731 7  21079019.211                    21079026.238
 106523948.077 8  83005751.659 8  20270817.438                    20270824.250
 113893629.117 8  88748402.022 7  21673255.180                    21673264.746
 121921446.605 6  95003825.455 6  23200889.789                    23200898.695
 112294944.140 7  87502656.58046  21368998.625                    21369004.211
 11  8 20  1 57  0.0000000  0  9G10G30G04G26G12G05G25G29G02
 120298265.948 6  93739035.10744  22891989.102                    22891996.699
 113587424.821 8  88509765.08945  21614974.359                    21614982.227
 129600523.922 7 100987530.02643  24662148.531                    24662157.430
 128027429.712 6  99761693.86643  24362811.484                    24362821.230
 110814741.649 8  86349189.487 7  21087340.406                    21087347.586
 106529436.457 8  83010028.339 8  20271861.883                    20271868.531
 113871787.160 8  88731382.339 7  21669098.555                    21669108.379
 121838213.526 6  94938968.510 6  23185050.984                    23185059.469
 112329824.342 7  87529835.97346  21375636.422                    21375641.242
 11  8 20  1 57 30.0000000  0  9G10G30G04G26G12G05G25G29G02
 120394850.253 7  93814295.57644  22910368.531                    22910376.723
 113582546.197 8  88505963.56945  21614046.117                    21614054.078
 129678397.551 6 101048210.71343  24676965.906                    24676975.801
 127932853.906 6  99687998.57043  24344813.523                    24344824.125
 110858983.793 8  86383663.867 7  21095759.445                    21095766.844
 106535488.745 8  83014744.417 8  20273013.484                    20273020.672
 113850519.666 8  88714810.283 7  21665051.547                    21665061.285
 121754994.279 7  94874122.378 6  23169215.258                    23169223.277
 112364802.976 8  87557092.07346  21382292.148                    21382297.930
 11  8 20  1 58  0.0000000  0  8G10G30G26G12G05G25G29G02
 120491697.497 7  93889760.94044  22928798.586                    22928805.363
 113578273.805 8  88502634.44245  21613233.070                    21613241.203
 127838221.429 6  99614259.11843  24326805.531                    24326815.645
 110903738.631 8  86418537.765 7  21104276.023                    21104283.316
 106542104.234 8  83019899.359 8  20274272.406                    20274279.379
 113829827.274 8  88698686.369 7  21661113.898                    21661123.582
 121671790.402 7  94809288.198 6  23153381.727                    23153390.227
 112399879.949 8  87584424.80146  21388967.344                    21388972.617
 11  8 20  1 58 30.0000000  0  8G10G30G26G12G05G25G29G02
 120588804.488 6  93965428.64744  22947276.977                    22947285.578
 113574607.067 7  88499777.24445  21612535.281                    21612543.348
 127743535.104 6  99540477.70043  24308787.805                    24308798.207
 110949003.580 8  86453809.146 7  21112889.898                    21112896.805
 106549282.155 8  83025492.555 8  20275638.516                    20275645.055
 113809710.299 8  88683010.836 7  21657285.883                    21657295.672
 121588603.008 7  94744466.856 6  23137552.305                    23137559.859
 112435054.433 7  87611833.50446  21395660.969                    21395666.000
 11  8 20  1 59  0.0000000  0  8G10G30G26G12G05G25G29G02
 120686167.978 7  94041296.33944  22965804.797                    22965812.484
 113571545.289 8  88497391.45945  21611952.758                    21611960.266
 127648797.766 6  99466656.52743  24290759.797                    24290769.504
 110994776.465 8  86489476.323 7  21121599.789                    21121606.789
 106557020.597 8  83031522.525 8  20277110.633                    20277117.902
 113790168.808 8  88667783.723 7  21653567.078                    21653576.730
 121505433.187 7  94679659.228 6  23121724.672                    23121733.313
 112470325.598 8  87639317.54646  21402372.820                    21402377.570
 11  8 20  1 59 30.0000000  0  8G10G30G26G12G05G25G29G02
 120783784.974 7  94117361.44944  22984381.359                    22984389.480
 113569087.946 8  88495476.65945  21611484.789                    21611492.648
 127554012.741 6  99392798.22643  24272721.664                    24272732.336
 111041055.517 8  86525537.924 7  21130406.953                    21130413.680
 106565318.836 8  83037988.701 8  20278690.172                    20278696.801
 113771203.138 8  88653005.307 7  21649958.313                    21649967.809
 121422282.387 7  94614866.407 6  23105902.547                    23105910.422
 112505692.680 8  87666876.31846  21409102.852                    21409107.906
 11  8 20  2  0  0.0000000  0  8G10G30G26G12G05G25G29G02
 120881653.001 6  94193622.23244  23003004.109                    23003012.129
 113567235.062 7  88494032.87345  21611132.281                    21611140.531
 127459183.057 6  99318905.13743  24254676.492                    24254686.770
 111087838.806 8  86561992.434 7  21139309.289                    21139316.363
 106574176.363 8  83044890.688 8  20280375.500                    20280382.148
 113752814.142 8  88638676.242 7  21646458.898                    21646468.477
 121339152.578 7  94550089.972 6  23090083.008                    23090091.504
 112541155.685 8  87694509.82946  21415850.945                    21415856.336
 11  8 20  2  0 30.0000000  0  8G10G30G26G12G05G25G29G02
 120979768.972 7  94270076.17944  23021675.094                    23021683.480
 113565985.803 7  88493059.43645  21610894.359                    21610902.359
 127364311.668 6  99244979.52143  24236623.445                    24236633.516
 111135124.234 8  86598838.220 7  21148307.180                    21148314.578
 106583591.888 8  83052227.484 8  20282167.156                    20282174.160
 113735001.933 8  88624796.621 7  21643068.859                    21643078.746
 121256045.124 7  94485330.952 6  23074268.469                    23074275.762
 112576714.007 8  87722217.61446  21422617.648                    21422622.852
 11  8 20  2  1  0.0000000  0  8G10G30G26G12G05G25G29G02
 121078130.156 6  94346721.21944  23040393.289                    23040399.965
 113565340.009 7  88492556.24045  21610771.625                    21610779.289
 127269402.066 6  99171024.11643  24218562.477                    24218571.965
 111182910.122 8  86636073.972 7  21157400.586                    21157407.930
 106593564.748 8  83059998.570 8  20284065.086                    20284071.824
 113717767.102 8  88611366.904 7  21639789.242                    21639799.531
 121172961.420 7  94420590.454 6  23058458.039                    23058466.172
 112612367.385 8  87749999.47246  21429402.172                    21429407.102
 11  8 20  2  1 30.0000000  0  8G10G30G26G12G05G25G29G02
 121176733.361 6  94423554.85544  23059156.117                    23059164.277
 113565296.943 7  88492522.70145  21610763.617                    21610771.344
 127174457.394 6  99097041.40543  24200494.586                    24200505.188
 111231194.482 8  86673698.148 7  21166588.500                    21166595.738
 106604093.691 8  83068202.962 8  20286068.648                    20286075.461
 113701109.811 8  88598387.221 7  21636619.734                    21636629.035
 121089903.270 7  94355869.873 6  23042652.445                    23042660.625
 112648115.295 8  87777854.99446  21436204.953                    21436210.145
 11  8 20  2  2  0.0000000  0  8G10G30G26G12G05G25G29G02
 121275576.345 7  94500575.35544  23077965.719                    23077973.098
 113565856.331 7  88492958.61245  21610869.859                    21610877.633
 127079480.889 6  99023033.86843  24182420.797                    24182430.703
 111279975.385 8  86711709.243 7  21175871.398                    21175878.797
 106615177.834 8  83076839.990 8  20288177.773                    20288184.574
 113685030.653 8  88585858.027 7  21633560.141                    21633569.477
 121006871.913 7  94291170.185 7  23026851.891                    23026859.973
 112683957.621 8  87805784.08246  21443025.742                    21443030.258
 11  8 20  2  2 30.0000000  0  8G10G30G26G12G05G25G29G02
 121374655.854 6  94577780.08244  23096820.523                    23096828.375
 113567017.447 7  88493863.39045  21611090.844                    21611098.961
 126984475.523 6  98949003.84443  24164342.477                    24164352.293
 111329250.598 8  86750105.514 7  21185248.477                    21185255.461
 106626816.102 8  83085908.804 8  20290392.180                    20290399.102
 113669529.701 8  88573779.388 7  21630610.047                    21630620.059
 120923869.183 7  94226492.821 7  23011057.063                    23011065.582
 112719893.567 8  87833786.12046  21449864.078                    21449869.207
 11  8 20  2  3  0.0000000  0  8G10G30G26G12G05G25G29G02
 121473968.930 6  94655166.90044  23115718.328                    23115726.355
 113568779.980 8  88495236.81245  21611426.172                    21611434.113
 126889444.952 6  98874954.19443  24146258.805                    24146267.969
 111379018.363 8  86788885.596 7  21194718.570                    21194725.480
 106639007.756 7  83095408.825 8  20292712.406                    20292719.043
 113654607.534 8  88562151.740 7  21627770.430                    21627780.266
 120840896.600 7  94161838.949 6  22995268.047                    22995276.137
 112755923.010 8  87861861.01346  21456719.797                    21456725.426
 11  8 20  2  3 30.0000000  0  8G10G30G26G12G05G25G29G02
 121573513.090 7  94732733.68644  23134660.984                    23134669.133
 113571143.119 8  88497078.24045  21611875.984                    21611883.969
 126794392.051 7  98800887.09143  24128170.891                    24128179.594
 111429276.426 8  86828047.724 7  21204282.781                    21204290.000
 106651751.502 8  83105339.051 8  20295137.336                    20295144.352
 113640264.268 8  88550975.192 7  21625041.133                    21625050.598
 120757955.846 7  94097209.887 6  22979484.180                    22979492.750
 112792045.702 8  87890008.57446  21463593.969                    21463599.121
 11  8 20  2  4  0.0000000  0  8G10G30G26G12G05G25G29G02
 121673285.404 6  94810478.32143  23153647.023                    23153654.898
 113574106.385 7  88499387.28645  21612439.617                    21612448.137
 126699320.000 7  98726805.08143  24110078.508                    24110088.238
 111480022.649 8  86867590.240 7  21213939.242                    21213946.250
 106665046.210 8  83115698.601 8  20297667.414                    20297674.027
 113626500.096 8  88540249.880 7  21622421.898                    21622431.496
 120675048.377 7  94032606.775 6  22963707.938                    22963715.883
 112828260.990 8  87918228.29446  21470485.711                    21470490.672
 11  8 20  2  4 30.0000000  0  8G10G30G26G12G05G25G29G02
 121773282.744 7  94888398.30144  23172675.820                    23172684.406
 113577668.890 7  88502163.27745  21613117.648                    21613125.539
 126604232.122 6  98652710.72243  24091983.805                    24091993.359
 111531255.050 8  86907511.585 7  21223688.750                    21223695.570
 106678890.364 8  83126486.278 8  20300301.430                    20300308.320
 113613315.234 8  88529975.980 7  21619912.922                    21619922.699
 120592175.594 7  93968030.674 6  22947937.180                    22947945.609
 112864568.481 8  87946519.85546  21477394.484                    21477399.855
 11  8 20  2  5  0.0000000  0  8G10G30G26G12G05G25G29G02
 121873502.543 7  94966491.66743  23191747.773                    23191754.332
 113581830.252 8  88505405.91745  21613909.641                    21613917.684
 126509131.875 6  98578606.71343  24073887.375                    24073896.641
 111582971.781 8  86947810.339 7  21233529.656                    21233536.988
 106693283.344 8  83137701.621 8  20303040.539                    20303047.512
 113600710.023 8  88520153.744 7  21617514.234                    21617524.059
 120509339.321 7  93903483.039 6  22932174.305                    22932182.281
 112900968.169 8  87974883.25746  21484321.242                    21484326.316
 11  8 20  2  5 30.0000000  0  8G10G30G26G12G05G25G29G02
 121973941.668 7  95044755.90444  23210858.984                    23210868.707
 113586589.528 7  88509114.46545  21614814.867                    21614823.070
 126414022.241 6  98504495.41543  24055788.609                    24055797.902
 111635170.342 8  86988484.543 7  21243462.711                    21243469.965
 106708223.926 8  83149343.668 8  20305883.797                    20305890.203
 113588684.411 8  88510783.163 7  21615225.461                    21615235.508
 120426541.321 7  93838965.189 6  22916418.008                    22916425.820
 112937459.363 8  88003317.97846  21491265.305                    21491270.090
 11  8 20  2  6  0.0000000  0  8G10G30G26G12G05G25G29G02
 122074597.549 7  95123189.03444  23230014.391                    23230021.766
 113591946.039 8  88513288.39045  21615834.398                    21615841.832
 126318906.687 6  98430379.49843  24037688.102                    24037697.883
 111687848.849 8  87029532.731 7  21253487.133                    21253494.469
 106723710.676 8  83161411.293 8  20308830.516                    20308837.586
 113577238.585 8  88501864.356 7  21613047.367                    21613057.172
 120343782.818 7  93774478.126 6  22900669.531                    22900677.695
 112974041.868 8  88031823.85246  21498226.789                    21498231.977
 11  8 20  2  6 30.0000000  0  8G10G30G26G12G05G25G29G02
 122175467.273 6  95201788.74444  23249209.164                    23249217.746
 113597898.897 8  88517927.00845  21616967.195                    21616975.301
 126223788.310 6  98356261.38343  24019587.578                    24019597.402
 111741004.680 8  87070952.852 7  21263602.461                    21263609.465
 106739742.355 8  83173903.540 8  20311881.328                    20311888.051
 113566372.571 8  88493397.360 7  21610979.656                    21610989.457
 120261065.706 7  93710023.333 6  22884929.297                    22884936.949
 113010715.338 8  88060400.59546  21505205.453                    21505210.602
 11  8 20  2  7  0.0000000  0  8G10G30G26G12G05G25G29G02
 122276547.717 7  95280552.72543  23268444.133                    23268452.586
 113604447.277 8  88523029.67345  21618213.430                    21618221.277
 126128670.450 6  98282143.65443  24001487.289                    24001496.906
 111794635.742 8  87112743.298 7  21273808.227                    21273815.070
 106756317.725 8  83186819.437 8  20315035.750                    20315042.547
 113556086.392 8  88485382.162 7  21609022.258                    21609032.430
 120178391.573 7  93645602.021 6  22869196.609                    22869204.512
 113047479.028 8  88089047.64646  21512200.969                    21512206.000
 11  8 20  2  7 30.0000000  0  8G10G30G26G12G05G25G29G02
 122377836.585 7  95359479.07344  23287719.547                    23287727.375
 113611590.631 8  88528595.93645  21619573.016                    21619580.738
 126033556.413 6  98208028.91743  23983388.016                    23983397.527
 111848740.178 8  87154902.597 7  21284103.852                    21284110.914
 106773435.896 8  83200158.301 8  20318292.727                    20318299.813
 113546380.344 8  88477819.033 7  21607175.438                    21607185.133
 120095762.294 7  93581215.632 6  22853472.453                    22853480.730
 113084333.196 8  88117765.19346  21519214.398                    21519219.578
 11  8 20  2  8  0.0000000  0  8G10G30G26G12G05G25G29G02
 122479330.560 7  95438565.27344  23307032.234                    23307040.656
 113619327.640 7  88534624.79645  21621044.961                    21621052.805
 125938449.464 6  98133919.69343  23965289.797                    23965298.977
 111903315.370 8  87197428.714 7  21294489.438                    21294496.227
 106791095.032 8  83213918.684 8  20321653.219                    20321660.328
 113537254.025 8  88470707.629 7  21605438.461                    21605448.371
 120013179.105 7  93516865.158 6  22837757.531                    22837765.832
 113121277.090 8  88146552.65746  21526244.578                    21526249.719
 11  8 20  2  8 30.0000000  0  8G10G30G26G12G05G25G29G02
 122581027.380 7  95517809.56144  23326385.328                    23326392.648
 113627658.014 7  88541116.01145  21622630.172                    21622637.840
 125843353.012 6  98059818.62943  23947192.727                    23947202.492
 111958359.677 8  87240320.377 7  21304963.945                    21304971.000
 106809294.473 8  83228100.100 8  20325116.492                    20325123.461
 113528707.953 8  88464048.377 7  21603812.680                    21603822.395
 119930644.080 7  93452552.217 7  22822051.969                    22822059.730
 113158310.889 8  88175410.17346  21533291.766                    21533296.840
 11  8 20  2  9  0.0000000  0  8G10G30G26G12G05G25G29G02
 122682924.020 6  95597209.50443  23345774.453                    23345782.809
 113636580.504 8  88548068.62345  21624327.805                    21624336.160
 125748270.383 6  97985728.35743  23929099.266                    23929109.281
 112013870.426 8  87283575.506 7  21315526.992                    21315534.039
 106828032.524 8  83242701.195 8  20328682.328                    20328689.238
 113520741.850 8  88457841.045 7  21602296.547                    21602306.063
 119848158.711 7  93388277.945 7  22806355.461                    22806362.949
 113195434.190 8  88204337.43646  21540356.023                    21540361.121
 11  8 20  2  9 30.0000000  0  8G10G30G26G12G05G25G29G02
 122785017.680 7  95676763.02343  23365202.688                    23365210.195
 113646094.329 7  88555482.00245  21626138.148                    21626145.996
 125653204.918 6  97911651.44743  23911009.266                    23911018.551
 112069845.271 7  87327192.263 7  21326178.633                    21326185.914
 106847308.109 8  83257721.161 7  20332350.297                    20332356.871
 113513355.744 8  88452085.649 7  21600891.086                    21600900.840
 119765724.761 7  93324043.756 6  22790668.289                    22790677.121
 113232646.488 8  88233334.05045  21547437.547                    21547442.469
 11  8 20  2 10  0.0000000  0  8G10G30G26G12G05G25G29G02
 122887305.550 6  95756467.74843  23384668.242                    23384676.117
 113656198.469 7  88563355.37245  21628060.898                    21628068.922
 125558159.978 6  97837590.53243  23892922.844                    23892932.113
 112126282.442 8  87371169.278 7  21336918.313                    21336925.453
 106867119.822 8  83273158.875 7  20336120.234                    20336127.305
 113506549.552 8  88446782.135 7  21599596.039                    21599605.723
 119683344.093 7  93259851.075 7  22774992.547                    22775000.035
 113269947.447 8  88262399.74045  21554535.438                    21554540.961
 11  8 20  2 10 30.0000000  0  8G10G30G26G12G05G25G29G02
 122989784.514 7  95836321.52543  23404169.031                    23404176.582
 113666891.843 7  88571687.88745  21630095.859                    21630103.887
 125463138.797 6  97763548.13443  23874840.172                    23874850.004
 112183178.921 8  87415504.193 7  21347745.242                    21347752.402
 106887465.873 8  83289012.967 7  20339992.133                    20339999.094
 113500322.967 8  88441930.258 7  21598411.094                    21598420.742
 119601017.980 7  93195700.905 6  22759326.000                    22759333.766
 113307336.931 8  88291534.41145  21561650.352                    21561655.434
 11  8 20  2 11  0.0000000  0  8G10G30G26G12G05G25G29G02
 123092451.971 7  95916322.10044  23423706.414                    23423714.672
 113678173.538 8  88580478.83045  21632242.609                    21632250.551
 125368144.832 6  97689526.92943  23856763.891                    23856773.246
 112240532.990 7  87460195.667 7  21358659.422                    21358666.301
 106908345.199 8  83305282.581 8  20343965.469                    20343972.102
 113494676.048 8  88437530.065 7  21597336.430                    21597346.051
 119518748.555 7  93131594.902 7  22743670.227                    22743678.656
 113344814.779 8  88320737.94245  21568782.664                    21568787.270
 11  8 20  2 11 30.0000000  0  8G10G30G26G12G05G25G29G02
 123195305.168 7  95996467.46243  23443278.031                    23443286.691
 113690042.407 8  88589727.29345  21634501.070                    21634509.289
 125273181.551 6  97615529.65543  23838692.383                    23838701.969
 112298341.976 7  87505241.629 7  21369660.125                    21369667.477
 106929756.379 8  83321966.633 7  20348039.953                    20348046.547
 113489608.544 8  88433581.367 7  21596371.844                    21596381.777
 119436537.442 7  93067534.344 6  22728025.930                    22728034.051
 113382380.560 8  88350009.99745  21575930.602                    21575936.117
 11  8 20  2 12  0.0000000  0  8G10G30G26G12G05G25G29G02
 123298341.592 7  96076755.56044  23462886.016                    23462894.320
 113702497.437 8  88599432.51445  21636871.453                    21636879.625
 125178252.286 6  97541558.88843  23820628.289                    23820637.551
 112356603.491 8  87550640.206 7  21380746.969                    21380754.320
 106951698.167 8  83339064.148 8  20352215.133                    20352221.980
 113485120.266 8  88430084.012 7  21595517.523                    21595527.609
 119354386.247 7  93003520.473 6  22712393.141                    22712401.188
 113420034.141 8  88379350.45545  21583095.648                    21583101.160
 11  8 20  2 12 30.0000000  0  8G10G30G26G12G05G25G29G02
 123401557.955 6  96157183.85143  23482526.070                    23482535.246
 113715537.497 8  88609593.60345  21639352.633                    21639360.887
 125083360.208 6  97467617.09543  23802570.875                    23802579.965
 112415315.373 7  87596389.711 7  21391919.594                    21391926.855
 106974168.547 8  83356573.550 8  20356491.094                    20356497.953
 113481210.952 8  88427037.803 7  21594773.859                    21594783.723
 119272296.838 7  92939554.747 7  22696772.031                    22696780.457
 113457775.195 8  88408759.08545  21590277.820                    21590282.910
 11  8 20  2 13  0.0000000  0  8G10G30G26G12G05G25G29G02
 123504951.693 6  96237750.45343  23502201.742                    23502209.766
 113729161.427 8  88620209.64845  21641945.781                    21641953.789
 124988508.911 6  97393707.07544  23784521.320                    23784530.445
 112474475.017 7  87642488.127 7  21403177.641                    21403184.785
 106997166.292 8  83374493.884 8  20360867.336                    20360874.090
 113477880.375 8  88424442.554 7  21594140.156                    21594150.258
 119190271.078 7  92875638.624 7  22681162.898                    22681171.191
 113495603.404 8  88438235.62946  21597476.531                    21597481.387
 11  8 20  2 13 30.0000000  0  8G10G30G26G12G05G25G29G02
 123608520.213 6  96318453.20443  23521910.602                    23521917.793
 113743367.946 8  88631279.64945  21644649.180                    21644656.473
 124893701.332 6  97319831.10643  23766479.727                    23766488.969
 112534079.909 7  87688933.499 7  21414519.617                    21414526.668
 107020689.749 8  83392823.870 8  20365343.539                    20365350.688
 113475128.069 7  88422297.903 7  21593616.398                    21593626.086
 119108310.469 7  92811773.266 7  22665566.383                    22665574.234
 113533517.892 8  88467779.40646  21604691.164                    21604696.355
 11  8 20  2 14  0.0000000  0  8G10G30G26G12G05G25G29G02
 123712260.846 7  96399290.11643  23541652.445                    23541659.145
 113758156.248 8  88642803.00745  21647463.148                    21647470.633
 124798941.470 6  97245992.34543  23748447.836                    23748456.527
 112594127.898 8  87735724.131 7  21425946.555                    21425953.445
 107044737.827 8  83411562.653 8  20369919.891                    20369926.695
 113472954.116 8  88420603.926 7  21593202.531                    21593212.633
 119026416.985 7  92747960.219 7  22649982.313                    22649990.500
 113571519.674 8  88497391.20346  21611922.875                    21611927.848
 11  8 20  2 14 30.0000000  0  9G10G30G15G26G12G05G25G29G02
 123816170.741 7  96480258.86444  23561425.055                    23561433.477
 113773525.096 8  88654778.73245  21650387.781                    21650395.625
 129466772.61316 100883267.29116  24636714.266                    24636723.957
 124704232.824 6  97172193.52343  23730424.922                    23730434.078
 112654616.799 8  87782858.341 7  21437457.336                    21437464.152
 107069309.194 8  83430709.182 8  20374595.602                    20374602.586
 113471358.147 8  88419360.321 7  21592898.898                    21592908.848
 118944592.442 7  92684200.885 7  22634411.945                    22634419.445
 113609608.049 8  88527070.47145  21619170.391                    21619175.285
 11  8 20  2 15  0.0000000  0  9G10G30G15G26G12G05G25G29G02
 123920246.875 7  96561357.16444  23581230.141                    23581237.961
 113789473.005 8  88667205.66145  21653422.523                    21653430.023
 129373850.404 6 100810860.557 5  24619031.969                    24619041.078
 124609578.354 7  97098436.89343  23712413.406                    23712421.668
 112715543.645 8  87830333.799 7  21449051.148                    21449058.148
 107094401.727 8  83450261.827 8  20379370.664                    20379377.426
 113470339.598 7  88418566.651 7  21592705.391                    21592715.172
 118862838.693 7  92620496.728 6  22618854.664                    22618862.191
 113647782.859 8  88556817.08046  21626435.461                    21626440.617
 11  8 20  2 15 30.0000000  0  9G10G30G15G26G12G05G25G29G02
 124024486.670 6  96642582.96743  23601066.438                    23601074.684
 113805998.771 8  88680082.87145  21656567.211                    21656575.160
 129280795.791 6 100738350.668 5  24601324.008                    24601333.660
 124514981.720 7  97024725.33743  23694411.789                    23694420.598
 112776906.203 7  87878148.779 7  21460728.094                    21460735.309
 107120013.833 8  83470219.336 8  20384244.305                    20384251.070
 113469898.178 7  88418222.696 7  21592621.008                    21592630.777
 118781157.293 7  92556848.936 7  22603310.828                    22603319.039
 113686043.844 8  88586630.85645  21633715.664                    21633720.836
 11  8 20  2 16  0.0000000  0  9G10G30G15G26G12G05G25G29G02
 124128887.587 6  96723934.27843  23620932.148                    23620941.500
 113823101.054 8  88693409.31645  21659821.828                    21659829.637
 129187610.949 7 100665739.252 6  24583591.836                    24583601.113
 124420446.225 7  96951061.41943  23676421.805                    23676431.047
 112838701.904 8  87926301.280 7  21472487.117                    21472494.750
 107146143.941 8  83490580.478 8  20389216.883                    20389223.535
 113470033.380 8  88418328.060 7  21592646.742                    21592656.641
 118699550.232 7  92493259.092 7  22587782.008                    22587789.543
 113724390.547 8  88616511.41446  21641013.055                    21641018.016
 11  8 20  2 16 30.0000000  0  9G10G30G15G26G12G05G25G29G02
 124233446.692 7  96805408.91243  23640829.875                    23640837.523
 113840778.466 8  88707183.92445  21663185.695                    21663193.395
 129094298.717 6 100593028.624 6  24565835.383                    24565844.070
 124325975.215 7  96877447.74744  23658444.555                    23658454.047
 112900928.087 7  87974789.209 7  21484328.758                    21484335.797
 107172790.397 8  83511343.975 8  20394287.555                    20394294.313
 113470744.693 8  88418882.348 7  21592782.117                    21592791.648
 118618019.316 7  92429728.575 7  22572267.469                    22572274.480
 113762822.830 8  88646458.67345  21648325.984                    21648331.145
 11  8 20  2 17  0.0000000  0  9G10G30G15G26G12G05G25G29G02
 124338161.531 7  96887004.91143  23660756.344                    23660764.754
 113859030.170 8  88721406.03145  21666658.898                    21666666.672
 129000861.660 6 100520220.742 6  24548054.117                    24548064.152
 124231572.558 6  96803887.35243  23640479.906                    23640489.043
 112963582.800 8  88023611.060 7  21496251.570                    21496258.719
 107199952.242 8  83532509.074 8  20399455.875                    20399462.953
 113472032.160 8  88419885.599 7  21593027.211                    21593036.918
 118536566.459 7  92366258.890 7  22556766.898                    22556774.535
 113801340.996 8  88676472.83945  21655656.398                    21655661.301
 11  8 20  2 17 30.0000000  0  9G10G30G15G26G12G05G25G29G02
 124443029.311 7  96968720.09443  23680712.414                    23680719.590
 113877854.580 8  88736074.40545  21670241.320                    21670249.066
 128907302.106 6 100447317.447 6  24530249.828                    24530259.930
 124137241.581 6  96730382.78643  23622529.461                    23622538.828
 113026663.272 8  88072764.683 7  21508254.859                    21508262.609
 107227627.441 8  83554074.186 8  20404722.547                    20404729.449
 113473894.989 8  88421337.174 7  21593381.641                    21593391.449
 118455193.536 7  92302851.487 7  22541281.859                    22541289.328
 113839944.348 8  88706553.39046  21663001.914                    21663007.223
 11  8 20  2 18  0.0000000  0  9G10G30G15G26G12G05G25G29G02
 124548047.346 7  97050552.36643  23700696.344                    23700703.961
 113897250.435 8  88751188.07145  21673931.711                    21673939.738
 128813622.769 6 100374320.811 6  24512422.867                    24512433.281
 124042985.864 6  96656936.86743  23604593.242                    23604602.164
 113090167.144 7  88122248.213 7  21520339.523                    21520346.820
 107255814.466 8  83576038.131 8  20410086.422                    20410093.027
 113476332.888 8  88423236.861 7  21593845.859                    21593855.039
 118373902.405 7  92239507.811 7  22525812.680                    22525820.316
 113878633.250 8  88736700.60545  21670364.516                    21670369.262
 11  8 20  2 18 30.0000000  0  9G10G30G15G26G12G05G25G29G02
 124653212.809 7  97132499.44343  23720709.445                    23720716.895
 113917216.138 8  88766745.76645  21677731.070                    21677739.184
 128719825.935 6 100301232.625 6  24494573.133                    24494583.512
 123948808.804 6  96583552.23943  23586671.859                    23586680.418
 113154091.526 8  88172059.415 7  21532503.914                    21532511.148
 107284511.406 8  83598399.402 8  20415546.961                    20415553.813
 113479345.122 8  88425584.083 7  21594418.633                    21594428.570
 118292694.914 7  92176229.314 7  22510359.594                    22510366.969
 113917406.928 8  88766913.87745  21677742.703                    21677747.520
 11  8 20  2 19  0.0000000  0  9G10G30G15G26G12G05G25G29G02
 124758523.084 6  97214559.39743  23740748.531                    23740756.680
 113937750.194 8  88782746.35045  21681638.844                    21681646.797
 128625914.267 6 100228054.902 6  24476701.922                    24476712.426
 123854713.589 6  96510231.38244  23568766.164                    23568774.781
 113218434.043 8  88222196.443 7  21544748.086                    21544754.945
 107313716.611 8  83621156.728 8  20421104.641                    20421111.570
 113482931.074 8  88428378.346 7  21595100.820                    21595110.777
 118211572.832 7  92113017.380 7  22494922.219                    22494929.824
 113956265.575 8  88797193.35345  21685137.320                    21685142.508
 11  8 20  2 19 30.0000000  0  9G10G30G15G26G12G05G25G29G02
 124863975.504 6  97296730.05843  23760815.766                    23760824.277
 113958851.360 8  88799188.82845  21685654.117                    21685662.152
 128531890.352 6 100154789.734 5  24458811.336                    24458820.188
 123760704.068 6  96436977.30444  23550876.039                    23550885.051
 113283192.369 8  88272657.475 7  21557070.867                    21557078.031
 107343428.709 8  83644309.034 8  20426758.852                    20426765.488
 113487090.363 8  88431619.374 7  21595892.953                    21595902.293
 118130538.274 7  92049873.631 7  22479502.563                    22479509.629
 113995209.263 8  88827539.10545  21692547.641                    21692552.957
 11  8 20  2 20  0.0000000  0  9G10G30G15G26G12G05G25G29G02
 124969567.078 6  97379009.19843  23780908.883                    23780917.648
 113980518.135 8  88816072.04945  21689776.961                    21689785.387
 128437756.722 6 100081439.022 5  24440897.297                    24440906.965
 123666783.761 6  96363792.75844  23533004.047                    23533013.406
 113348363.514 8  88323440.180 7  21569472.969                    21569479.996
 107373645.781 8  83667854.834 8  20432508.609                    20432515.152
 113491822.303 8  88435306.622 7  21596793.039                    21596802.805
 118049593.085 7  91986799.528 7  22464098.734                    22464106.496
 114034237.781 8  88857950.94245  21699974.773                    21699979.973
 11  8 20  2 20 30.0000000  0  9G10G30G15G26G12G05G25G29G02
 125075295.451 6  97461394.92043  23801028.797                    23801037.117
 114002748.801 8  88833394.66945  21694007.375                    21694014.867
 128343515.671 6 100008004.561 5  24422964.164                    24422972.484
 123572955.984 7  96290680.29344  23515148.953                    23515158.352
 113413944.972 8  88374542.607 7  21581952.289                    21581959.836
 107404365.897 8  83691792.612 8  20438354.586                    20438361.715
 113497126.149 8  88439439.510 7  21597802.219                    21597812.043
 117968738.960 7  91923796.378 7  22448712.523                    22448719.887
 114073350.799 8  88888428.63345  21707418.063                    21707423.258
 11  8 20  2 21  0.0000000  0  9G10G30G15G26G12G05G25G29G02
 125181157.921 7  97543885.17843  23821173.242                    23821181.832
 114025541.696 8  88851155.38945  21698344.719                    21698352.344
 128249169.641 6  99934488.367 6  24405010.016                    24405019.383
 123479224.037 7  96217642.51244  23497312.422                    23497321.875
 113479933.843 8  88425962.499 7  21594509.328                    21594516.801
 107435586.961 8  83716120.732 8  20444295.367                    20444302.461
 113503001.013 8  88444017.343 7  21598919.883                    21598929.672
 117887977.664 7  91860865.562 7  22433343.406                    22433351.629
 114112547.743 7  88918971.73045  21714877.023                    21714881.867
 11  8 20  2 21 30.0000000  0  9G10G30G15G26G12G05G25G29G02
 125287152.140 6  97626478.09643  23841343.656                    23841351.617
 114048895.585 8  88869353.25145  21702788.938                    21702797.066
 128154721.349 6  99860892.503 6  24387036.508                    24387046.871
 123385591.796 7  96144682.39244  23479494.688                    23479503.703
 113546327.932 8  88477698.146 7  21607143.984                    21607151.074
 107467307.649 8  83740838.172 8  20450331.852                    20450338.527
 113509446.531 8  88449039.849 7  21600146.945                    21600156.535
 117807311.330 7  91798008.738 7  22417993.742                    22418001.340
 114151829.260 8  88949580.71945  21722351.641                    21722356.594
 11  8 20  2 22  0.0000000  0  9G10G30G15G26G12G05G25G29G02
 125393275.390 6  97709171.54343  23861538.141                    23861545.770
 114072808.864 8  88887986.99845  21707339.500                    21707347.074
 128060173.563 6  99787219.112 6  24369044.844                    24369054.660
 123292062.927 6  96071802.83244  23461696.391                    23461705.578
 113613124.598 8  88529747.491 7  21619855.273                    21619862.574
 107499526.399 8  83765943.710 8  20456462.898                    20456469.879
 113516462.049 8  88454506.514 7  21601481.969                    21601491.598
 117726741.986 7  91735227.485 7  22402662.148                    22402669.543
 114191195.092 7  88980255.40245  21729842.813                    21729847.914
 11  8 20  2 22 30.0000000  0  9G10G30G15G26G12G05G25G29G02
 125499524.609 6  97791963.11643  23881756.320                    23881764.867
 114097279.610 7  88907055.13445  21711995.844                    21712003.813
 127965528.576 6  99713469.910 6  24351034.492                    24351044.414
 123198640.622 7  95999006.33044  23443919.414                    23443928.027
 113680320.956 7  88582108.283 7  21632641.977                    21632649.531
 107532241.037 8  83791435.658 8  20462688.336                    20462694.996
 113524046.478 8  88460416.460 7  21602925.086                    21602934.930
 117646271.512 7  91672523.263 7  22387348.531                    22387356.352
 114230644.801 7  89010995.43845  21737349.664                    21737354.547
 11  8 20  2 23  0.0000000  0  9G10G30G15G26G12G05G25G29G02
 125605897.011 6  97874850.70943  23901998.836                    23902006.629
 114122306.328 8  88926556.48945  21716758.211                    21716766.422
 127870789.251 7  99639647.171 6  24333006.336                    24333015.328
 123105328.368 6  95926295.54944  23426162.148                    23426171.039
 113747914.359 7  88634778.466 7  21645504.547                    21645511.871
 107565449.614 8  83817312.485 8  20469007.680                    20469014.527
 113532199.068 8  88466769.145 7  21604476.344                    21604486.000
 117565901.810 7  91609897.560 7  22372055.156                    22372062.703
 114270178.359 8  89041800.82145  21744872.813                    21744877.930
 11  8 20  2 23 30.0000000  0  9G10G30G15G26G12G05G25G29G02
 125712390.416 6  97957832.58043  23922263.195                    23922271.289
 114147887.256 7  88946489.70445  21721625.641                    21721634.133
 127775957.763 7  99565752.602 6  24314960.500                    24314969.281
 123012129.789 7  95853673.36844  23408427.391                    23408436.309
 113815901.840 7  88687755.715 7  21658442.227                    21658449.316
 107599150.347 8  83843572.819 8  20475420.820                    20475427.691
 113540919.148 8  88473564.028 7  21606135.789                    21606145.324
 117485634.654 7  91547351.757 7  22356780.680                    22356788.176
 114309795.796 8  89072671.57045  21752411.875                    21752416.617
 11  8 20  2 24  0.0000000  0  9G10G30G15G26G12G05G25G29G02
 125819002.218 7  98040906.65943  23942551.289                    23942559.480
 114174020.841 7  88966853.55345  21726599.258                    21726606.988
 127681037.094 6  99491788.561 6  24296897.641                    24296906.621
 122919048.367 7  95781142.47644  23390714.688                    23390723.090
 113884281.346 8  88741038.433 7  21671454.852                    21671461.641
 107633341.454 8  83870215.253 8  20481927.188                    20481933.547
 113550205.829 8  88480800.419 7  21607903.125                    21607912.199
 117405472.138 7  91484887.494 7  22341525.875                    22341533.824
 114349496.815 8  89103607.44745  21759966.477                    21759971.418
 11  8 20  2 24 30.0000000  0  9G10G30G15G26G12G05G25G29G02
 125925729.967 6  98124071.12243  23962860.578                    23962868.832
 114200705.678 7  88987646.93845  21731677.414                    21731685.141
 127586030.136 6  99417757.265 6  24278818.000                    24278827.367
 122826088.115 6  95708705.96744  23373023.852                    23373033.070
 113953049.929 7  88794624.341 7  21684541.023                    21684547.691
 107668021.624 8  83897238.772 8  20488526.508                    20488533.152
 113560058.566 8  88488477.880 7  21609777.797                    21609787.367
 117325416.233 7  91422506.294 7  22326292.094                    22326299.996
 114389281.639 8  89134608.61445  21767537.523                    21767542.238
 11  8 20  2 25  0.0000000  0  9G10G30G15G26G12G05G25G29G02
 126032570.809 7  98207323.70943  23983191.805                    23983200.105
 114227939.683 8  89008868.25745  21736859.813                    21736867.379
 127490938.914 6  99343660.309 6  24260723.023                    24260732.074
 122733252.208 6  95636366.39843  23355358.523                    23355366.988
 114022204.647 7  88848511.126 7  21697700.383                    21697707.305
 107703188.345 8  83924641.428 8  20495218.570                    20495225.313
 113570476.252 8  88496595.552 7  21611760.547                    21611770.176
 117245468.982 7  91360209.765 7  22311078.672                    22311085.617
 114429150.249 8  89165675.07445  21775123.914                    21775129.230
 11  8 20  2 25 30.0000000  0  9G10G30G15G26G12G05G25G29G02
 126139522.028 6  98290662.30143  24003543.695                    24003552.277
 114255721.258 7  89030516.24545  21742146.055                    21742153.910
 127395766.491 6  99269500.125 6  24242611.906                    24242621.164
 122640544.298 6  95564126.53743  23337716.422                    23337725.203
 114091743.058 8  88902696.892 7  21710933.133                    21710940.473
 107738839.845 8  83952421.828 8  20502002.445                    20502009.656
 113581458.073 8  88505152.833 7  21613850.078                    21613859.277
 117165632.447 7  91297999.501 7  22295885.969                    22295893.398
 114469102.461 7  89196806.67545  21782727.102                    21782731.816
 11  8 20  2 26  0.0000000  0  9G10G30G15G26G12G05G25G29G02
 126246581.274 6  98374085.11742  24023917.102                    24023924.992
 114284048.541 7  89052589.45745  21747536.867                    21747544.523
 127300515.694 6  99195278.861 6  24224486.328                    24224495.430
 122547968.007 6  95491989.24044  23320099.953                    23320108.438
 114161662.412 7  88957179.500 7  21724238.078                    21724245.602
 107774974.347 8  83980578.596 8  20508878.961                    20508885.492
 113593003.021 8  88514148.901 7  21616046.883                    21616056.617
 117085908.338 7  91235876.855 7  22280714.844                    22280722.332
 114509138.284 8  89228003.42845  21790345.578                    21790350.324
 11  8 20  2 26 30.0000000  0  9G10G30G15G26G12G05G25G29G02
 126353745.833 7  98457589.98543  24044309.977                    24044317.496
 114312919.614 7  89075086.40545  21753030.836                    21753038.777
 127205188.734 6  99120998.237 6  24206345.984                    24206355.418
 122455526.735 6  95419957.15544  23302508.281                    23302517.227
 114231959.847 7  89011956.701 7  21737615.500                    21737622.855
 107811589.489 8  84009109.892 7  20515846.289                    20515853.379
 113605110.006 8  88523582.908 7  21618351.094                    21618360.773
 117006298.759 7  91173843.444 7  22265565.680                    22265573.074
 114549257.457 7  89259265.12145  21797979.898                    21797984.879
 11  8 20  2 27  0.0000000  0  9G10G30G15G26G12G05G25G29G02
 126461013.084 6  98541174.85643  24064721.867                    24064730.094
 114342332.729 7  89098005.72545  21758627.625                    21758635.750
 127109788.367 6  99046660.416 6  24188192.289                    24188201.070
 122363224.137 6  95348033.12344  23284943.844                    23284952.309
 114302632.523 7  89067026.309 7  21751064.094                    21751071.535
 107848683.595 8  84038014.406 8  20522905.320                    20522912.043
 113617778.171 8  88533454.215 7  21620761.609                    21620771.059
 116926805.928 7  91111901.020 7  22250438.977                    22250446.441
 114589460.012 7  89290591.78745  21805630.086                    21805634.770
 11  8 20  2 27 30.0000000  0  9G10G30G15G26G12G05G25G29G02
 126568380.590 6  98624837.90943  24085153.563                    24085160.992
 114372286.068 7  89121345.99145  21764328.000                    21764335.664
 127014317.225 6  98972267.462 6  24170023.922                    24170034.215
 122271063.904 6  95276220.02844  23267406.719                    23267415.102
 114373677.795 7  89122386.250 7  21764583.547                    21764590.855
 107886254.753 7  84067290.656 8  20530054.758                    20530061.141
 113631006.477 8  88543761.984 7  21623278.984                    21623288.262
 116847431.766 7  91050051.052 7  22235334.570                    22235342.051
 114629745.770 7  89321983.28045  21813296.188                    21813301.297
 11  8 20  2 28  0.0000000  0  9G10G30G15G26G12G05G25G29G02
 126675845.978 6  98708577.16143  24105603.313                    24105611.074
 114402777.795 8  89145105.78345  21770130.172                    21770137.766
 126918777.888 6  98897821.380 6  24151844.227                    24151852.656
 122179049.716 6  95204520.73844  23249896.352                    23249905.195
 114445093.040 7  89178034.487 7  21778173.367                    21778180.762
 107924300.841 7  84096936.974 8  20537294.516                    20537301.238
 113644793.989 8  88554505.490 7  21625902.422                    21625912.133
 116768178.282 7  90988295.143 7  22220252.750                    22220260.070
 114670114.944 7  89353439.78145  21820978.367                    21820983.270
 11  8 20  2 28 30.0000000  0  9G10G30G15G26G12G05G25G29G02
 126783406.482 6  98792390.53943  24126070.633                    24126079.391
 114433806.056 7  89169283.64745  21776035.102                    21776042.781
 126823173.526 6  98823324.602 6  24133650.539                    24133659.211
 122087184.969 6  95132937.89444  23232414.727                    23232424.254
 114516875.393 7  89233968.772 7  21791833.500                    21791840.453
 107962820.081 8  84126951.988 8  20544624.352                    20544631.340
 113659139.655 8  88565683.927 7  21628632.477                    21628642.027
 116689047.347 7  90926634.724 7  22205194.813                    22205202.086
 114710567.508 8  89384961.25945  21828675.648                    21828680.953
 11  8 20  2 29  0.0000000  0  9G10G30G15G26G12G05G25G29G02
 126891059.644 6  98876276.10143  24146557.164                    24146565.582
 114465368.955 8  89193878.11845  21782041.148                    21782048.656
 126727506.659 6  98748779.112 6  24115445.227                    24115454.824
 121995473.447 7  95061474.48244  23214962.867                    23214971.973
 114589021.985 7  89290186.882 7  21805562.477                    21805569.344
 108001810.666 8  84157334.279 8  20552044.133                    20552050.930
 113674042.431 8  88577296.474 7  21631468.555                    21631478.051
 116610041.459 7  90865071.751 7  22190160.500                    22190167.813
 114751103.676 7  89416547.88445  21836389.859                    21836394.824
 11  8 20  2 29 30.0000000  0  9G10G30G15G26G12G05G25G29G02
 126998802.872 6  98960231.84042  24167058.680                    24167068.691
 114497464.814 7  89218887.88145  21788148.758                    21788156.441
 126631780.051 6  98674187.059 6  24097229.609                    24097238.828
 121903919.142 7  94990133.52544  23197540.219                    23197549.543
 114661530.362 7  89346686.901 7  21819360.047                    21819367.113
 108041270.813 8  84188082.472 8  20559553.406                    20559559.805
 113689501.525 8  88589342.522 7  21634409.898                    21634419.496
 116531162.707 7  90803607.865 7  22175150.297                    22175158.477
 114791723.480 7  89448199.67245  21844119.680                    21844124.840
 11  8 20  2 30  0.0000000  0  9G10G30G15G26G12G05G25G29G02
 127106633.516 6  99044255.63443  24187579.453                    24187587.566
 114530091.037 7  89244310.90245  21794357.047                    21794365.141
 126535995.982 6  98599550.238 6  24079001.438                    24079011.313
 121812524.688 7  94918917.13944  23180149.125                    23180157.480
 114734396.945 7  89403466.040 7  21833226.031                    21833233.445
 108081197.316 8  84219194.049 8  20567150.906                    20567157.840
 113705515.018 8  88601820.560 7  21637457.461                    21637467.066
 116452412.536 7  90742244.169 7  22160164.406                    22160172.191
 114832426.212 7  89479916.08745  21851864.773                    21851869.723
 11  8 20  2 30 30.0000000  0  9G10G30G15G26G12G05G25G29G02
 127214549.455 6  99128346.07442  24208115.258                    24208122.969
 114563245.974 8  89270145.92245  21800666.781                    21800673.512
 126440157.585 6  98524871.093 6  24060764.578                    24060773.406
 121721294.218 7  94847828.53244  23162788.438                    23162797.000
 114807619.489 7  89460522.553 7  21847160.344                    21847167.277
 108121589.078 8  84250668.169 8  20574836.969                    20574843.898
 113722082.185 8  88614730.042 7  21640610.094                    21640619.582
 116373793.255 7  90680982.454 7  22145203.805                    22145211.363
 114873212.287 7  89511697.44145  21859626.188                    21859631.449
 11  8 20  2 31  0.0000000  0  9G10G30G15G26G12G05G25G29G02
 127322547.995 6  99212500.75742  24228666.234                    24228674.547
 114596927.561 8  89296391.31445  21807075.773                    21807083.453
 126344267.296 7  98450151.483 6  24042517.648                    24042525.469
 121630231.414 7  94776870.58444  23145460.094                    23145468.297
 114881194.939 7  89517854.067 7  21861161.156                    21861168.152
 108162443.570 8  84282502.852 8  20582611.773                    20582618.723
 113739201.833 8  88628070.027 7  21643867.758                    21643877.441
 116295306.814 7  90619824.262 7  22130267.898                    22130275.684
 114914081.753 8  89543543.77945  21867403.594                    21867408.547
 11  8 20  2 31 30.0000000  0  9G10G30G15G26G12G05G25G29G02
 127430626.623 6  99296717.87143  24249233.203                    24249240.871
 114631134.146 7  89323045.77745  21813585.141                    21813593.000
 126248328.209 7  98375393.831 5  24024261.125                    24024269.098
 121539340.028 7  94706046.19844  23128163.688                    23128172.461
 114955120.771 7  89575458.604 7  21875228.477                    21875235.719
 108203759.376 7  84314696.998 8  20590473.359                    20590480.484
 113756873.060 8  88641839.803 7  21647230.531                    21647240.266
 116216955.821 7  90558771.599 7  22115358.313                    22115365.844
 114955034.851 8  89575455.29845  21875196.859                    21875201.746
 11  8 20  2 32  0.0000000  0  9G10G30G15G26G12G05G25G29G02
 127538782.645 6  99380995.28943  24269814.789                    24269822.668
 114665863.031 8  89350107.24045  21820193.414                    21820201.629
 126152342.765 7  98300600.050 6  24005995.563                    24006003.191
 121448623.174 7  94635357.81544  23110900.570                    23110909.102
 115029393.514 7  89633333.446 7  21889362.219                    21889369.477
 108245533.486 8  84347248.265 8  20598423.367                    20598429.852
 113775094.031 8  88656037.955 7  21650697.758                    21650707.406
 116138741.716 7  90497825.615 7  22100474.633                    22100482.348
 114996070.962 8  89607431.49445  21883005.453                    21883010.531
 11  8 20  2 32 30.0000000  0  9G10G30G15G26G12G05G25G29G02
 127647014.043 6  99465331.44442  24290410.461                    24290418.125
 114701112.527 8  89377574.37445  21826901.477                    21826909.453
 126056313.857 7  98225772.432 6  23987721.641                    23987730.152
 121358084.854 7  94564808.56344  23093671.641                    23093680.238
 115104010.977 7  89691476.915 7  21903561.703                    21903568.594
 108287764.272 8  84380155.374 8  20606459.219                    20606466.082
 113793863.796 8  88670663.743 7  21654269.734                    21654279.035
 116060666.883 7  90436988.141 7  22085617.633                    22085625.098
 115037190.674 8  89639472.83445  21890830.328                    21890835.156
 11  8 20  2 33  0.0000000  0  9G10G30G15G26G12G05G25G29G02
 127755318.204 6  99549724.39043  24311019.836                    24311027.695
 114736880.499 8  89405445.50645  21833708.086                    21833715.516
 125960244.346 7  98150913.162 6  23969441.203                    23969448.492
 121267728.595 7  94494401.15944  23076477.984                    23076485.887
 115178969.897 7  89749886.449 7  21917826.047                    21917832.676
 108330449.890 8  84413416.902 8  20614582.117                    20614588.781
 113813181.104 8  88685716.185 7  21657945.563                    21657955.344
 115982733.351 7  90376260.783 7  22070787.117                    22070794.781
 115078393.765 7  89671579.15545  21898671.219                    21898675.926
 11  8 20  2 33 30.0000000  0  9G10G30G15G26G12G05G25G29G02
 127863692.621 5  99634171.93543  24331643.289                    24331651.090
 114773165.022 8  89433719.16045  21840613.133                    21840620.148
 125864137.036 7  98076024.444 6  23951150.773                    23951159.750
 121177558.330 7  94424138.69744  23059318.266                    23059326.668
 115254267.553 7  89808559.943 7  21932154.492                    21932161.359
 108373588.281 8  84447031.241 8  20622790.859                    20622797.496
 113833044.807 8  88701194.402 7  21661725.461                    21661734.793
 115904943.591 7  90315645.442 7  22055984.313                    22055991.590
 115119680.656 7  89703750.77545  21906527.891                    21906532.824
 11  8 20  2 34  0.0000000  0  9G10G30G15G26G12G05G25G29G02
 127972134.898 6  99718672.35543  24352279.953                    24352287.020
 114809963.729 8  89462393.48445  21847614.953                    21847623.148
 125767994.479 7  98001108.272 6  23932856.180                    23932864.660
 121087577.465 7  94354023.82444  23042196.219                    23042204.379
 115329901.306 7  89867495.325 7  21946547.141                    21946554.277
 108417176.715 7  84480996.266 8  20631085.969                    20631092.590
 113853453.370 8  88717097.176 7  21665609.055                    21665618.590
 115827299.313 7  90255143.462 7  22041209.352                    22041216.867
 115161051.135 7  89735987.53045  21914400.320                    21914405.305
 11  8 20  2 34 30.0000000  0  9G10G30G15G26G12G05G25G29G02
 128080642.493 6  99803223.75743  24372927.461                    24372935.281
 114847274.566 7  89491466.84445  21854715.203                    21854723.234
 125671819.645 6  97926166.949 6  23914554.313                    23914563.414
 120997789.812 7  94284059.50644  23025109.602                    23025118.270
 115405867.714 7  89926689.916 7  21961003.031                    21961010.086
 108461213.503 8  84515310.655 8  20639465.609                    20639472.402
 113874405.455 8  88733423.479 7  21669596.258                    21669605.887
 115749802.785 7  90194756.607 7  22026461.609                    22026469.250
 115202505.273 7  89768289.47745  21922288.344                    21922293.547
 11  8 20  2 35  0.0000000  0  9G10G30G15G26G12G05G25G29G02
 128189213.247 6  99887824.41643  24393587.047                    24393595.445
 114885095.533 8  89520937.73945  21861912.586                    21861919.867
 125575615.321 6  97851202.663 6  23896246.547                    23896255.723
 120908199.035 7  94214248.58344  23008060.938                    23008068.711
 115482164.360 7  89986141.837 7  21975521.563                    21975528.867
 108505696.680 8  84549972.876 8  20647930.516                    20647937.074
 113895899.928 8  88750172.417 7  21673686.398                    21673696.160
 115672456.272 7  90134486.643 7  22011743.328                    22011750.734
 115244043.275 8  89800656.77745  21930193.344                    21930197.984
 11  8 20  2 35 30.0000000  0  9G10G30G15G26G12G05G25G29G02
 128297844.477 6  99972472.16743  24414258.750                    24414267.418
 114923424.405 7  89550804.39245  21869206.125                    21869213.230
 125479384.351 6  97776217.597 6  23877934.047                    23877943.398
 120818808.645 7  94144593.81044  22991050.516                    22991058.391
 115558788.227 7  90045848.739 7  21990102.844                    21990109.723
 108550623.961 8  84584981.162 8  20656479.719                    20656486.668
 113917935.363 8  88767342.882 7  21677879.813                    21677889.371
 115595262.000 7  90074335.311 7  21997053.492                    21997061.258
 115285665.044 8  89833089.34545  21938113.250                    21938118.453
 11  8 20  2 36  0.0000000  0  9G10G30G15G26G12G05G25G29G02
 128406533.919 6 100057165.24543  24434942.164                    24434950.184
 114962258.687 8  89581064.86845  21876596.375                    21876603.922
 125383129.400 6  97701213.881 6  23859618.117                    23859626.570
 120729622.258 7  94075097.99544  22974079.211                    22974087.164
 115635735.971 7  90105808.004 7  22004745.289                    22004752.555
 108595992.841 8  84620333.543 8  20665113.328                    20665119.629
 113940510.021 8  88784933.532 7  21682175.469                    21682185.203
 115518221.758 7  90014303.993 7  21982393.234                    21982400.613
 115327370.580 8  89865587.19045  21946049.414                    21946054.695
 11  8 20  2 36 30.0000000  0  9G10G30G15G26G12G05G25G29G02
 128515279.211 6 100141901.93243  24455636.125                    24455643.020
 115001596.399 8  89611717.63745  21884081.602                    21884089.508
 125286853.279 6  97626193.656 6  23841297.000                    23841305.996
 120640643.472 7  94005763.94644  22957147.063                    22957154.973
 115713005.101 7  90166017.696 7  22019449.516                    22019456.398
 108641801.401 8  84656028.542 8  20673830.320                    20673837.344
 113963622.679 8  88802943.408 7  21686573.797                    21686583.266
 115441337.927 7  89954394.560 7  21967763.000                    21967770.555
 115369160.296 8  89898150.62945  21954001.813                    21954006.859
 11  8 20  2 37  0.0000000  0  9G10G30G15G26G12G05G25G29G02
 128624077.996 5 100226680.23543  24476338.555                    24476347.211
 115041435.160 7  89642760.82945  21891663.016                    21891670.215
 125190558.867 7  97551159.210 6  23822973.172                    23822981.676
 120551876.312 7  93936594.79544  22940255.023                    22940263.004
 115790592.569 7  90226475.457 7  22034213.992                    22034220.582
 108688047.461 7  84692064.445 7  20682630.719                    20682637.543
 113987271.811 8  88821371.309 7  21691073.992                    21691083.293
 115364612.540 7  89894608.589 7  21953162.414                    21953169.902
 115411034.069 8  89930779.56045  21961970.281                    21961975.430
 11  8 20  2 37 30.0000000  0  9G10G30G15G26G12G05G25G29G02
 128732927.895 5 100311498.28142  24497051.125                    24497060.875
 115081772.804 7  89674192.77545  21899338.938                    21899346.410
 125094249.176 7  97476112.818 6  23804645.719                    23804654.023
 120463324.070 7  93867593.09544  22923404.273                    22923411.820
 115868495.654 7  90287179.164 7  22049038.242                    22049045.258
 108734728.722 8  84728439.465 8  20691513.703                    20691520.434
 114011455.982 8  88840216.132 7  21695675.859                    21695685.848
 115288047.782 7  89834947.777 7  21938592.594                    21938600.152
 115452991.952 8  89963474.05245  21969954.672                    21969959.957
 11  8 20  2 38  0.0000000  0 10G10G30G15G26G12G05G25G29G21G02
 128841826.487 6 100396354.25242  24517775.586                    24517783.273
 115122606.892 7  89706011.54145  21907109.047                    21907116.516
 124997926.908 7  97401056.634 6  23786316.336                    23786324.781
 120374990.469 7  93798761.78544  22906595.258                    22906602.707
 115946711.180 7  90348126.322 7  22063921.961                    22063929.559
 108781843.048 8  84765151.945 8  20700479.289                    20700486.219
 114036173.563 8  88859476.583 7  21700379.555                    21700389.203
 115211645.729 7  89775413.753 7  21924053.594                    21924060.703
 132312193.95316 103100479.21353  25178182.055                    25178190.934
 115495034.032 8  89996234.13445  21977954.961                    21977959.754
 11  8 20  2 38 30.0000000  0 10G10G30G15G26G12G05G25G29G21G02
 128950771.441 6 100481246.46442  24538507.227                    24538514.813
 115163935.208 7  89738215.43645  21914973.828                    21914981.129
 124901594.879 6  97325992.855 6  23767984.500                    23767993.430
 120286879.316 7  93730103.78044  22889827.297                    22889835.781
 116025236.088 7  90409314.563 7  22078865.102                    22078872.180
 108829388.170 8  84802200.101 8  20709526.664                    20709533.645
 114061423.021 8  88879151.497 7  21705184.555                    21705194.148
 115135408.760 7  89716008.367 7  21909546.484                    21909553.895
 132255983.389 6 103056678.85443  25167485.617                    25167493.668
 115537160.427 8  90029059.92745  21985971.023                    21985976.031
 11  8 20  2 39  0.0000000  0 10G10G30G15G26G12G05G25G29G21G02
 129059760.269 7 100566172.88143  24559247.883                    24559254.668
 115205755.476 7  89770802.66245  21922931.813                    21922939.684
 124805256.007 6  97250923.728 6  23749652.156                    23749660.145
 120198994.157 7  93661621.90344  22873103.227                    22873111.773
 116104067.720 8  90470741.804 7  22093866.055                    22093873.305
 108877361.823 8  84839582.174 8  20718656.078                    20718662.445
 114087202.928 8  88899239.739 7  21710090.273                    21710099.559
 115059338.891 7  89656733.186 7  21895070.688                    21895078.059
 132199782.065 6 103012885.69943  25156790.414                    25156798.668
 115579371.700 8  90061951.84645  21994003.773                    21994008.965
 11  8 20  2 39 30.0000000  0 10G10G30G15G26G12G05G25G29G21G02
 129168790.722 7 100651131.73143  24579994.797                    24580002.555
 115248065.178 7  89803771.26145  21930983.203                    21930990.855
 124708913.042 7  97175851.396 6  23731318.547                    23731326.285
 120111338.701 7  93593319.02544  22856423.203                    22856430.992
 116183202.830 7  90532405.526 7  22108924.828                    22108932.324
 108925761.460 8  84877296.192 8  20727865.836                    20727872.879
 114113511.518 8  88919739.952 7  21715096.703                    21715106.254
 114983438.283 7  89597589.880 7  21880627.156                    21880634.430
 132143589.482 6 102969099.28343  25146097.359                    25146106.227
 115621667.189 7  90094909.39345  22002052.180                    22002056.691
 11  8 20  2 40  0.0000000  0  9G30G15G26G12G05G25G29G21G02
 115290863.610 8  89837120.68945  21939127.172                    21939134.973
 124612570.113 7  97100779.122 6  23712985.211                    23712992.906
 120023917.966 7  93525199.03944  22839787.672                    22839794.949
 116262640.026 8  90594304.631 7  22124041.773                    22124048.727
 108974587.014 8  84915342.085 8  20737157.563                    20737163.969
 114140348.790 8  88940652.113 7  21720203.617                    21720213.277
 114907710.845 7  89538581.537 7  21866216.969                    21866223.953
 132087406.486 6 102925320.43143  25135406.234                    25135415.000
 115664048.949 7  90127934.17045  22010117.094                    22010121.988
 11  8 20  2 40 30.0000000  0  9G30G15G26G12G05G25G29G21G02
 115334146.769 7  89870847.82445  21947363.922                    21947371.719
 124516228.998 7  97025708.237 6  23694651.500                    23694659.641
 119936734.178 7  93457263.67544  22823196.898                    22823205.223
 116342374.924 7  90656435.718 7  22139214.430                    22139221.348
 109023834.490 8  84953716.753 8  20746528.828                    20746535.355
 114167711.586 8  88961973.773 7  21725410.281                    21725419.727
 114832157.143 7  89479708.560 7  21851839.648                    21851846.547
 132031231.180 6 102881547.56443  25124716.180                    25124724.438
 115706515.571 7  90161025.06545  22018197.875                    22018203.512
 11  8 20  2 41  0.0000000  0  9G30G15G26G12G05G25G29G21G02
 115377912.017 8  89904950.61745  21955692.352                    21955699.914
 124419892.088 7  96950640.600 6  23676319.148                    23676327.164
 119849790.823 7  93389515.67644  22806652.234                    22806660.340
 116422404.322 7  90718796.288 7  22154443.477                    22154450.453
 109073501.008 8  84992417.943 8  20755980.227                    20755986.285
 114195597.909 8  88983703.383 7  21730717.000                    21730726.469
 114756779.156 8  89420972.517 7  21837495.172                    21837502.691
 131975062.823 6 102837780.06442  25114027.914                    25114035.551
 115749066.818 7  90194181.91045  22026295.453                    22026300.316
 11  8 20  2 41 30.0000000  0  9G30G15G26G12G05G25G29G21G02
 115422157.130 8  89939427.32545  21964111.664                    21964119.516
 124323562.541 7  96875578.702 6  23657988.023                    23657995.969
 119763091.965 7  93321958.19044  22790153.742                    22790162.109
 116502725.087 7  90781383.896 7  22169728.047                    22169735.492
 109123584.823 8  85031444.298 8  20765510.750                    20765517.379
 114224006.412 8  89005839.878 7  21736123.305                    21736132.934
 114681579.277 8  89362375.256 7  21823185.266                    21823192.320
 131918900.644 6 102794017.40942  25103340.469                    25103348.711
 115791703.048 7  90227404.95945  22034408.875                    22034413.879
 11  8 20  2 42  0.0000000  0  9G30G15G26G12G05G25G29G21G02
 115466879.956 8  89974276.27945  21972621.664                    21972629.926
 124227243.627 6  96800525.093 6  23639659.234                    23639667.496
 119676641.170 7  93254593.98744  22773702.578                    22773710.734
 116583334.632 7  90844196.532 7  22185067.453                    22185074.660
 109174083.691 8  85070794.068 7  20775120.328                    20775126.988
 114252935.537 8  89028382.057 7  21741628.078                    21741637.867
 114606559.917 8  89303918.647 7  21808909.805                    21808917.016
 131862744.248 6 102750259.28642  25092653.266                    25092662.766
 115834424.520 7  90260694.43045  22042538.438                    22042542.891
 11  8 20  2 42 30.0000000  0  9G30G15G26G12G05G25G29G21G02
 115512077.911 7  90009495.45745  21981222.688                    21981230.715
 124130937.893 6  96725481.752 6  23621332.680                    23621340.828
 119590442.195 7  93187426.01944  22757299.570                    22757307.645
 116664229.804 7  90907231.726 7  22200461.266                    22200468.586
 109224995.295 8  85110465.455 8  20784808.609                    20784815.176
 114282383.449 8  89051328.488 7  21747231.977                    21747241.352
 114531723.333 7  89245604.472 7  21794668.586                    21794675.664
 131806593.016 6 102706505.22442  25081968.203                    25081978.020
 115877231.499 7  90294050.52345  22050684.727                    22050689.699
 11  8 20  2 43  0.0000000  0  9G30G15G26G12G05G25G29G21G02
 115557748.511 7  90045082.92445  21989913.914                    21989921.895
 124034648.331 6  96650451.003 6  23603009.484                    23603017.727
 119504498.502 7  93120456.99244  22740944.836                    22740952.965
 116745407.892 7  90970487.373 7  22215908.852                    22215916.133
 109276317.258 8  85150456.605 8  20794574.609                    20794581.539
 114312348.517 8  89074677.897 7  21752933.594                    21752943.504
 114457071.683 8  89187434.382 7  21780462.688                    21780470.113
 131750446.510 6 102662754.69242  25071283.914                    25071293.371
 115920124.175 7  90327473.40145  22058846.859                    22058851.816
 11  8 20  2 43 30.0000000  0  9G30G15G26G12G05G25G29G21G02
 115603889.065 7  90081036.61045  21998694.023                    21998701.641
 123938377.741 6  96575435.043 6  23584689.961                    23584697.762
 119418813.821 7  93053689.76544  22724639.703                    22724647.926
 116826865.498 7  91033960.829 7  22231409.820                    22231417.172
 109328047.120 8  85190765.590 8  20804418.195                    20804425.059
 114342828.674 8  89098428.660 7  21758733.805                    21758743.875
 114382606.854 8  89129409.892 7  21766292.641                    21766299.898
 131694304.022 5 102619007.43942  25060599.641                    25060609.688
 115963102.568 7  90360963.06945  22067024.820                    22067029.734
 11  8 20  2 44  0.0000000  0  9G30G15G26G12G05G25G29G21G02
 115650497.367 7  90117354.75845  22007563.039                    22007571.430
 123842129.364 6  96500436.378 6  23566374.203                    23566382.195
 119333391.988 7  92987127.35744  22708383.953                    22708392.461
 116908599.710 7  91097649.824 7  22246963.266                    22246970.832
 109380182.858 8  85231390.852 8  20814339.555                    20814346.363
 114373822.444 8  89122579.657 7  21764632.039                    21764641.605
 114308331.807 7  89071533.267 7  21752158.516                    21752165.434
 131638164.758 5 102575262.72242  25049917.156                    25049927.148
 116006166.981 7  90394519.76345  22075219.969                    22075224.473
 11  8 20  2 44 30.0000000  0  9G30G15G26G12G05G25G29G21G02
 115697570.836 7  90154035.38845  22016521.578                    22016528.902
 123745905.785 7  96425457.048 6  23548063.594                    23548071.563
 119248236.578 7  92920772.54644  22692180.000                    22692187.699
 116990607.514 7  91161552.001 7  22262569.227                    22262576.387
 109432722.192 8  85272330.601 8  20824337.438                    20824343.902
 114405327.993 8  89147129.436 7  21770627.508                    21770637.164
 114234248.130 7  89013805.771 7  21738060.977                    21738068.176
 131582028.695 6 102531520.29842  25039235.617                    25039244.621
 116049317.510 7  90428143.54845  22083431.188                    22083436.051
 11  8 20  2 45  0.0000000  0  9G30G15G26G12G05G25G29G21G02
 115745106.784 7  90191076.39545  22025567.266                    22025574.746
 123649710.086 7  96350499.427 6  23529758.023                    23529766.070
 119163351.110 7  92854628.07344  22676026.523                    22676035.043
 117072885.878 7  91225665.008 7  22278226.109                    22278233.094
 109485662.523 8  85313582.813 7  20834411.297                    20834417.984
 114437343.288 8  89172076.428 7  21776719.930                    21776729.148
 114160358.078 7  88956229.149 7  21723999.906                    21724007.328
 131525894.915 6 102487779.83742  25028552.477                    25028562.289
 116092553.994 7  90461834.31345  22091658.258                    22091663.801
 11  8 20  2 45 30.0000000  0  9G30G15G26G12G05G25G29G21G02
 115793102.926 7  90228475.98945  22034700.398                    22034708.004
 123553545.271 7  96275565.892 6  23511458.320                    23511466.547
 119078739.622 7  92788697.09144  22659925.258                    22659933.457
 117155432.102 7  91289986.726 7  22293934.281                    22293941.313
 109539001.855 8  85355145.942 7  20844561.781                    20844568.395
 114469866.803 8  89197419.437 7  21782908.500                    21782917.613
 114086664.380 8  88898805.516 7  21709976.406                    21709983.484
 131469762.908 6 102444040.71542  25017871.539                    25017880.301
 116135877.107 7  90495592.58345  22099903.188                    22099907.965
 11  8 20  2 46  0.0000000  0  9G30G15G26G12G05G25G29G21G02
 115841556.361 7  90266231.92245  22043920.273                    22043928.633
 123457414.035 7  96200658.507 6  23493164.898                    23493173.445
 118994405.311 7  92722982.09744  22643877.289                    22643885.250
 117238242.631 7  91354514.396 7  22309692.680                    22309699.766
 109592737.360 8  85397017.782 8  20854787.492                    20854794.109
 114502896.289 8  89223156.698 7  21789193.984                    21789203.379
 114013168.953 7  88841536.390 7  21695991.031                    21695998.074
 131413631.798 6 102400302.35842  25007189.570                    25007198.574
 116179286.988 7  90529418.45945  22108163.648                    22108168.391
 11  8 20  2 46 30.0000000  0  9G30G15G26G12G05G25G29G21G02
 115890464.590 7  90304342.24445  22053227.953                    22053235.711
 123361319.561 7  96125779.784 6  23474879.391                    23474887.145
 118910351.996 7  92657486.04044  22627882.336                    22627890.313
 117321314.594 7  91419245.788 7  22325500.430                    22325507.703
 109646866.524 8  85439196.360 7  20865087.828                    20865094.637
 114536429.962 8  89249286.849 7  21795575.227                    21795584.559
 113939873.968 7  88784423.439 7  21682043.289                    21682050.496
 131357501.065 6 102356564.22943  24996509.039                    24996517.477
 116222783.612 7  90563311.92445  22116440.813                    22116445.688
 11  8 20  2 47  0.0000000  0  9G30G15G26G12G05G25G29G21G02
 115939825.366 7  90342805.18745  22062620.914                    22062628.770
 123265265.023 7  96050932.175 6  23456600.383                    23456608.539
 118826583.794 7  92592212.15544  22611941.773                    22611949.441
 117404645.333 7  91484178.828 7  22341357.922                    22341364.934
 109701388.135 8  85481680.746 7  20875462.766                    20875469.035
 114570466.301 8  89275808.675 7  21802052.109                    21802061.938
 113866782.210 8  88727468.859 7  21668133.992                    21668141.531
 131301370.537 6 102312826.31243  24985827.516                    24985835.820
 116266367.540 7  90597273.41345  22124734.727                    22124739.898
 11  8 20  2 47 30.0000000  0  9G30G15G26G12G05G25G29G21G02
 115989635.812 7  90381618.53045  22072099.313                    22072107.016
 123169253.076 7  95976117.760 6  23438329.609                    23438337.988
 118743104.138 7  92527163.11144  22596056.148                    22596064.230
 117488231.608 7  91549310.965 7  22357263.828                    22357271.246
 109756299.228 8  85524468.626 7  20885912.320                    20885918.746
 114605003.121 8  89302720.484 7  21808624.258                    21808633.922
 113793895.793 8  88670674.282 7  21654264.414                    21654271.496
 131245239.469 6 102269087.94843  24975145.820                    24975154.348
 116310038.906 8  90631303.03945  22133044.813                    22133049.305
 11  8 20  2 48  0.0000000  0  9G30G15G26G12G05G25G29G21G02
 116039893.431 7  90420780.32645  22081662.906                    22081671.180
 123073286.842 7  95901338.982 6  23420067.719                    23420075.781
 118659916.499 7  92462341.61644  22580226.109                    22580233.680
 117572070.536 7  91614639.976 7  22373217.688                    22373225.086
 109811597.591 8  85567558.276 7  20896434.852                    20896441.891
 114640038.537 8  89330020.815 7  21815291.055                    21815301.016
 113721217.088 8  88614041.569 7  21640434.086                    21640440.992
 131189107.321 6 102225348.75543  24964463.906                    24964472.969
 116353798.100 7  90665401.10145  22141372.031                    22141376.871
 11  8 20  2 48 30.0000000  0  9G30G15G26G12G05G25G29G21G02
 116090595.522 7  90460288.45945  22091311.023                    22091318.855
 122977369.228 7  95826598.059 6  23401815.391                    23401823.277
 118577024.859 7  92397750.77144  22564452.500                    22564460.246
 117656158.744 7  91680163.254 7  22389219.250                    22389226.367
 109867280.423 8  85610947.507 7  20907031.102                    20907037.688
 114675570.561 8  89357708.101 7  21822052.672                    21822062.305
 113648748.293 8  88557572.412 7  21626643.844                    21626651.465
 131132973.392 6 102181608.10643  24953781.977                    24953790.375
 116397644.807 7  90699567.34745  22149715.492                    22149720.586
 11  8 20  2 49  0.0000000  0  9G30G15G26G12G05G25G29G21G02
 116141739.084 7  90500140.58545  22101043.516                    22101051.652
 122881503.262 7  95751897.404 6  23383572.594                    23383580.492
 118494432.464 7  92333393.10144  22548735.945                    22548742.934
 117740493.185 7  91745878.380 7  22405267.391                    22405275.066
 109923345.024 8  85654634.214 7  20917699.898                    20917706.449
 114711596.902 8  89385780.586 7  21828908.398                    21828917.949
 113576491.324 8  88501268.326 7  21612893.484                    21612900.672
 131076836.827 6 102137865.43543  24943099.266                    24943107.457
 116441579.374 7  90733802.06345  22158076.836                    22158081.180
 11  8 20  2 49 30.0000000  0  9G30G15G26G12G05G25G29G21G02
 116193321.948 7  90540335.02645  22110859.516                    22110867.293
 122785692.222 7  95677239.546 6  23365340.523                    23365348.340
 118412143.482 7  92269271.87944  22533076.477                    22533084.277
 117825071.174 7  91811783.291 7  22421362.469                    22421369.293
 109979790.022 8  85698617.345 8  20928441.047                    20928447.512
 114748116.049 8  89414237.068 7  21835857.281                    21835866.844
 113504449.183 8  88445131.629 7  21599184.516                    21599191.898
 131020697.573 6 102094120.62643  24932416.539                    24932424.422
 116485602.293 7  90768105.62645  22166453.938                    22166458.770
 11  8 20  2 50  0.0000000  0  9G30G15G26G12G05G25G29G21G02
 116245341.528 7  90580869.76645  22120758.313                    22120765.961
 122689938.873 6  95602626.621 6  23347118.844                    23347126.906
 118330161.409 7  92205389.79044  22517475.656                    22517483.109
 117909889.740 7  91877875.684 7  22437502.406                    22437510.000
 110036612.912 8  85742894.925 8  20939254.117                    20939260.457
 114785125.935 8  89443075.942 7  21842900.398                    21842910.016
 113432623.985 8  88389163.981 7  21585516.672                    21585523.789
 130964555.101 6 102050373.32543  24921732.930                    24921741.238
 116529714.016 7  90802478.38545  22174847.656                    22174852.508
 11  8 20  2 50 30.0000000  0  9G30G15G26G12G05G25G29G21G02
 116297794.678 7  90621742.35345  22130740.289                    22130748.047
 122594246.000 7  95528060.871 6  23328908.859                    23328916.090
 118248489.762 7  92141749.59944  22501934.148                    22501941.805
 117994945.311 7  91944152.722 7  22453688.281                    22453695.430
 110093810.699 8  85787464.631 7  20950137.891                    20950144.980
 114822624.248 8  89472295.399 7  21850035.625                    21850045.125
 113361017.563 8  88333366.813 7  21571890.242                    21571897.348
 130908408.490 6 102006622.72843  24911048.609                    24911056.582
 116573914.423 7  90836920.26445  22183258.930                    22183264.207
 11  8 20  2 51  0.0000000  0  9G30G15G26G12G05G25G29G21G02
 116350678.855 7  90662950.79745  22140803.734                    22140811.559
 122498616.907 7  95453544.755 6  23310711.258                    23310719.031
 118167132.407 7  92078354.31845  22486451.602                    22486459.801
 118080235.197 7  92010612.361 7  22469918.070                    22469925.594
 110151381.236 8  85832324.797 7  20961093.656                    20961100.070
 114860609.044 8  89501893.935 7  21857264.711                    21857273.953
 113289632.581 8  88277742.191 7  21558306.063                    21558313.324
 130852257.344 6 101962868.71143  24900363.539                    24900371.777
 116618203.957 8  90871431.58445  22191687.023                    22191691.645
 11  8 20  2 51 30.0000000  0  9G30G15G26G12G05G25G29G21G02
 116403991.117 7  90704492.82445  22150948.453                    22150956.426
 122403054.227 7  95379080.420 6  23292526.703                    23292534.215
 118086092.356 7  92015206.27545  22471030.602                    22471038.414
 118165755.832 7  92077251.813 7  22486192.305                    22486199.965
 110209321.869 8  85877473.336 7  20972119.602                    20972126.016
 114899077.975 8  89531869.715 7  21864584.844                    21864594.309
 113218471.126 8  88222291.749 7  21544764.594                    21544771.672
 130796100.981 6 101919110.59343  24889677.508                    24889685.180
 116662582.737 8  90906012.45145  22200131.922                    22200137.188
 11  8 20  2 52  0.0000000  0  9G30G15G26G12G05G25G29G21G02
 116457729.008 7  90746366.50945  22161174.609                    22161182.156
 122307561.412 7  95304670.516 6  23274354.234                    23274362.184
 118005373.986 7  91952308.89645  22455670.297                    22455678.090
 118251504.699 7  92144069.119 7  22502509.797                    22502516.844
 110267630.661 8  85922908.760 7  20983215.336                    20983221.730
 114938029.277 8  89562221.369 7  21871996.867                    21872006.707
 113147535.809 8  88167017.508 7  21531266.047                    21531272.883
 130739939.164 6 101875348.23743  24878989.336                    24878998.258
 116707050.898 7  90940662.94445  22208593.945                    22208599.492
 11  8 20  2 52 30.0000000  0  9G30G15G26G12G05G25G29G21G02
 116511889.814 7  90788569.73845  22171480.859                    22171488.684
 122212141.346 7  95230317.311 6  23256197.008                    23256204.352
 117924980.650 7  91889664.79345  22440371.805                    22440379.969
 118337478.741 7  92211061.872 7  22518869.844                    22518877.461
 110326305.153 8  85968629.145 7  20994380.477                    20994387.297
 114977460.869 8  89592947.274 7  21879500.359                    21879509.938
 113076828.974 8  88111921.311 7  21517810.820                    21517817.836
 130683771.404 6 101831581.24343  24868300.289                    24868309.703
 116751608.908 7  90975383.46745  22217072.664                    22217077.770
 11  8 20  2 53  0.0000000  0  9G30G15G26G12G05G25G29G21G02
 116566470.530 7  90831100.15645  22181867.469                    22181874.629
 122116796.894 7  95156023.001 6  23238053.219                    23238060.648
 117844916.011 7  91827276.83445  22425135.898                    22425144.078
 118423674.614 7  92278227.489 7  22535272.695                    22535279.883
 110385342.632 8  86014632.383 7  21005615.281                    21005621.656
 115017370.364 8  89624045.571 7  21887095.266                    21887104.445
 113006352.983 8  88057004.978 7  21504399.570                    21504406.512
 130627596.717 6 101787808.88143  24857611.656                    24857620.266
 116796257.088 8  91010174.25945  22225569.617                    22225574.602
 11  8 20  2 53 30.0000000  0  9G30G15G26G12G05G25G29G21G02
 116621468.445 7  90873955.67545  22192333.125                    22192340.559
 122021530.919 7  95081789.860 6  23219924.742                    23219932.391
 117765183.566 7  91765147.70445  22409963.461                    22409971.363
 118510089.105 7  92345563.449 7  22551716.828                    22551724.129
 110444740.621 8  86060916.527 7  21016918.047                    21016924.711
 115057755.570 8  89655514.553 7  21894780.352                    21894789.535
 112936109.868 8  88002270.110 7  21491032.836                    21491040.020
 130571414.708 6 101744030.80243  24846920.023                    24846928.543
 116840995.496 7  91045035.34645  22234082.727                    22234087.809
 11  8 20  2 54  0.0000000  0  9G30G15G26G12G05G25G29G21G02
 116676880.853 7  90917134.16845  22202877.695                    22202885.344
 121926347.002 7  95007620.643 6  23201811.531                    23201819.707
 117685787.245 7  91703280.50945  22394855.016                    22394862.934
 118596719.463 7  92413067.621 7  22568202.164                    22568209.242
 110504497.024 8  86107479.960 7  21028289.680                    21028295.777
 115098614.486 8  89687352.647 7  21902555.211                    21902564.688
 112866101.949 8  87947718.515 7  21477710.594                    21477717.758
 130515224.831 6 101700246.62843  24836227.188                    24836235.859
 116885824.546 7  91079967.08445  22242613.367                    22242618.313
 11  8 20  2 54 30.0000000  0  9G30G15G26G12G05G25G29G21G02
 116732704.671 7  90960633.23945  22213500.250                    22213508.637
 121831247.715 7  94933517.372 6  23183714.469                    23183722.664
 117606730.224 7  91641677.68045  22379810.953                    22379818.875
 118683562.491 7  92480737.505 7  22584727.797                    22584734.918
 110564608.974 8  86154320.433 7  21039728.266                    21039735.137
 115139944.702 8  89719558.001 7  21910420.477                    21910430.223
 112796331.635 8  87893352.064 7  21464433.805                    21464440.789
 130459026.506 6 101656455.90043  24825533.141                    24825541.461
 116930744.411 7  91114969.57245  22251161.195                    22251166.281
 11  8 20  2 55  0.0000000  0  9G30G15G26G12G05G25G29G21G02
 116788937.358 7  91004450.90845  22224201.188                    22224209.250
 121736236.302 7  94859482.582 6  23165634.758                    23165642.090
 117528016.588 7  91580342.44245  22364832.156                    22364840.293
 118770615.363 7  92548570.913 7  22601293.352                    22601300.914
 110625074.216 8  86201436.201 7  21051234.406                    21051241.270
 115181744.234 7  89752129.050 7  21918374.406                    21918384.254
 112726801.611 8  87839172.852 7  21451202.836                    21451209.352
 130402819.228 6 101612658.19542  24814836.984                    24814845.559
 116975755.456 7  91150043.12845  22259726.844                    22259731.344
 11  8 20  2 55 30.0000000  0  9G30G15G26G12G05G25G29G21G02
 116845576.001 7  91048584.90245  22234979.227                    22234987.426
 121641315.803 7  94785518.624 6  23147572.273                    23147579.773
 117449649.762 7  91519277.43745  22349919.234                    22349927.102
 118857874.695 7  92616565.196 7  22617898.461                    22617905.613
 110685890.415 8  86248825.448 7  21062807.305                    21062814.063
 115224010.735 8  89785063.961 7  21926417.375                    21926426.977
 112657513.967 8  87785182.508 7  21438017.664                    21438024.457
 130346602.479 6 101568853.11943  24804139.703                    24804148.023
 117020858.005 7  91185187.97145  22268309.203                    22268314.516
 11  8 20  2 56  0.0000000  0  9G30G15G26G12G05G25G29G21G02
 116902617.773 7  91093033.01945  22245834.117                    22245842.117
 121546489.503 7  94711628.072 6  23129527.266                    23129535.379
 117371633.431 7  91458485.54445  22335073.367                    22335081.063
 118945337.750 7  92684718.238 7  22634542.055                    22634549.129
 110747055.252 8  86296486.356 7  21074447.039                    21074453.207
 115266742.006 8  89818361.036 7  21934549.141                    21934558.789
 112588470.890 8  87731382.727 7  21424879.125                    21424886.535
 130290375.711 6 101525040.25043  24793439.461                    24793447.777
 117066052.467 7  91220404.43545  22276909.453                    22276914.855
 11  8 20  2 56 30.0000000  0  9G30G15G26G12G05G25G29G21G02
 116960059.787 7  91137793.00645  22256764.930                    22256772.770
 121451760.120 7  94637813.056 6  23111500.508                    23111508.250
 117293971.015 7  91397969.43345  22320294.430                    22320302.430
 119033001.002 7  92753027.253 6  22651223.508                    22651231.000
 110808566.009 8  86344416.822 7  21086151.781                    21086158.535
 115309935.762 8  89852018.482 7  21942768.789                    21942778.344
 112519674.794 8  87677775.407 7  21411787.766                    21411794.648
 130234138.282 6 101481219.03043  24782737.828                    24782746.133
 117111338.983 7  91255692.63345  22285527.414                    22285532.242
 11  8 20  2 57  0.0000000  0  9G30G15G26G12G05G25G29G21G02
 117017899.329 7  91182862.76445  22267771.461                    22267779.074
 121357130.881 7  94564076.048 6  23093492.391                    23093500.762
 117216666.374 7  91337732.09845  22305583.781                    22305591.422
 119120861.639 7  92821490.096 7  22667942.672                    22667950.141
 110870420.678 8  86392615.268 7  21097922.250                    21097928.941
 115353589.792 8  89886034.599 7  21951075.594                    21951085.188
 112451128.089 8  87624362.409 7  21398743.523                    21398750.941
 130177889.906 6 101437389.33843  24772033.750                    24772042.457
 117156717.907 7  91291052.82045  22294162.938                    22294168.109
 11  8 20  2 57 30.0000000  0  9G30G15G26G12G05G25G29G21G02
 117076133.422 7  91228239.95745  22278853.211                    22278861.234
 121262604.830 7  94490419.443 6  23075505.172                    23075513.020
 117139723.023 7  91277776.29545  22290942.227                    22290949.531
 119208916.622 7  92890104.367 7  22684699.180                    22684706.391
 110932616.481 8  86441079.530 7  21109757.680                    21109764.457
 115397701.764 8  89920407.549 7  21959469.953                    21959479.488
 112382833.307 8  87571145.731 7  21385747.563                    21385754.355
 130121629.969 6 101393550.57443  24761328.031                    24761335.988
 117202189.561 7  91326485.26745  22302815.586                    22302820.625
 11  8 20  2 58  0.0000000  0  9G30G15G26G12G05G25G29G21G02
 117134759.288 7  91273922.44945  22290009.141                    22290016.820
 121168185.218 7  94416845.796 6  23057537.469                    23057545.488
 117063144.575 7  91218104.83945  22276369.695                    22276377.391
 119297162.919 7  92958867.719 7  22701491.898                    22701499.563
 110995151.284 8  86489807.953 7  21121657.656                    21121664.469
 115442269.481 8  89955135.628 7  21967950.672                    21967960.840
 112314793.176 8  87518127.462 7  21372799.883                    21372806.949
 130065358.101 6 101349702.54043  24750620.250                    24750627.957
 117247754.285 7  91361990.24445  22311486.500                    22311491.340
 11  8 20  2 58 30.0000000  0  9G30G15G26G12G05G25G29G21G02
 117193773.807 7  91319907.76145  22301239.203                    22301246.559
 121073874.704 7  94343357.146 6  23039590.922                    23039598.680
 116986934.456 7  91158720.38545  22261867.313                    22261874.594
 119385597.176 7  93027777.521 7  22718320.555                    22718327.590
 111058022.238 8  86538798.311 7  21133621.914                    21133628.457
 115487290.414 8  89990216.862 7  21976518.016                    21976527.301
 112247009.297 8  87465308.886 7  21359901.063                    21359907.961
 130009073.319 6 101305844.40943  24739908.906                    24739916.867
 117293412.461 7  91397568.03845  22320175.016                    22320179.973
 11  8 20  2 59  0.0000000  0  9G30G15G26G12G05G25G29G21G02
 117253174.027 7  91366193.63845  22312542.773                    22312549.848
 120979676.458 7  94269955.966 6  23021665.547                    23021672.902
 116911096.240 7  91099625.72345  22247435.797                    22247443.613
 119474216.458 7  93096831.507 7  22735184.016                    22735191.668
 111121226.676 8  86588048.526 7  21145649.305                    21145655.430
 115532762.009 8  90025649.270 7  21985171.164                    21985180.617
 112179484.009 8  87412691.806 7  21347051.484                    21347058.430
 129952775.123 6 101261975.83943  24729195.664                    24729204.379
 117339164.335 7  91433218.85745  22328881.094                    22328885.531
 11  8 20  2 59 30.0000000  0  9G30G15G26G12G05G25G29G21G02
 117312957.101 7  91412777.84845  22323919.008                    22323926.844
 120885593.772 7  94196644.842 6  23003762.391                    23003769.586
 116835633.372 7  91040823.53545  22233075.578                    22233083.129
 119563017.600 7  93166027.208 7  22752082.898                    22752089.715
 111184762.624 8  86637557.059 7  21157739.320                    21157746.137
 115578682.184 8  90061431.219 7  21993909.313                    21993919.332
 112112220.064 8  87360278.374 7  21334251.016                    21334258.621
 129896463.149 6 101218096.54643  24718479.688                    24718487.719
 117385010.343 7  91468943.01345  22337605.508                    22337610.582
 11  8 20  3  0  0.0000000  0  9G30G15G26G12G05G25G29G21G02
 117373120.449 7  91459658.35345  22335367.359                    22335375.359
 120791629.752 7  94123426.196 6  22985881.828                    22985888.977
 116760549.977 7  90982317.04545  22218787.500                    22218795.203
 119651997.888 7  93235362.495 7  22769014.578                    22769022.203
 111248627.765 8  86687322.116 7  21169893.094                    21169899.133
 115625048.711 8  90097560.975 7  22002732.953                    22002742.488
 112045220.008 8  87308070.570 7  21321501.594                    21321508.629
 129840137.195 6 101174206.31443  24707761.039                    24707769.121
 117430950.780 7  91504740.73345  22346347.664                    22346352.527
 11  8 20  3  0 30.0000000  0 10G18G30G15G26G12G05G25G29G21G02
 129711186.69716 101073702.47652  24683224.727                    24683231.672
 117433660.874 7  91506832.70145  22346887.797                    22346896.086
 120697787.532 7  94050302.442 6  22968023.984                    22968031.250
 116685849.287 7  90924108.76245  22204572.648                    22204580.023
 119741154.174 7  93304834.915 7  22785980.813                    22785987.742
 111312819.438 8  86737341.607 7  21182107.844                    21182114.539
 115671859.110 8  90134036.605 7  22011640.547                    22011649.754
 111978486.035 8  87256070.106 7  21308803.164                    21308809.609
 129783796.535 6 101130304.61243  24697040.219                    24697047.324
 117476985.972 7  91540612.33245  22355107.852                    22355112.656
 11  8 20  3  1  0.0000000  0 10G18G30G15G26G12G05G25G29G21G02
 129621556.523 6 101003860.86442  24666167.406                    24666176.641
 117494574.777 7  91554298.06845  22358479.727                    22358487.238
 120604069.582 7  93977275.505 6  22950190.539                    22950197.395
 116611534.217 7  90866200.96245  22190430.898                    22190437.980
 119830482.323 7  93374441.276 7  22802979.836                    22802986.406
 111377334.347 8  86787612.972 7  21194384.844                    21194391.336
 115719110.184 8  90170855.615 7  22020631.898                    22020641.578
 111912019.826 8  87204278.296 7  21296154.352                    21296161.563
 129727440.042 6 101086390.51643  24686316.000                    24686323.148
 117523115.836 7  91576557.64145  22363886.281                    22363891.301
 11  8 20  3  1 30.0000000  0 10G18G30G15G26G12G05G25G29G21G02
 129532089.912 6 100934146.68542  24649143.648                    24649152.113
 117555860.069 7  91602052.83045  22370142.070                    22370149.555
 120510479.588 7  93904348.281 6  22932380.156                    22932387.680
 116537609.054 7  90808596.98545  22176363.258                    22176371.094
 119919980.476 7  93444180.107 6  22820010.266                    22820017.559
 111442171.110 8  86838135.137 7  21206722.805                    21206729.336
 115766800.446 8  90208016.862 7  22029707.328                    22029716.754
 111845824.571 8  87152697.618 7  21283557.547                    21283565.090
 129671068.174 6 101042464.50643  24675588.195                    24675595.602
 117569341.084 7  91612577.32845  22372681.727                    22372686.879
 11  8 20  3  2  0.0000000  0 10G18G30G15G26G12G05G25G29G21G02
 129442788.103 6 100864560.98442  24632149.375                    24632158.871
 117617513.484 7  91650094.45245  22381874.352                    22381882.117
 120417020.623 7  93831523.158 6  22914595.977                    22914603.191
 116464077.139 7  90751299.42445  22162370.758                    22162377.879
 120009645.385 7  93514048.883 6  22837073.398                    22837079.973
 111507326.805 8  86888905.816 7  21219121.719                    21219127.965
 115814927.074 8  90245518.125 7  22038865.305                    22038875.066
 111779902.349 8  87101329.693 7  21271013.242                    21271020.117
 129614679.763 6 100998525.58643  24664857.508                    24664865.266
 117615662.143 7  91648671.65845  22381496.797                    22381502.094
 11  8 20  3  2 30.0000000  0 10G18G30G15G26G12G05G25G29G21G02
 129353652.694 6 100795104.99742  24615187.398                    24615196.508
 117679532.072 7  91698420.62345  22393676.633                    22393683.945
 120323695.587 7  93758802.420 7  22896837.039                    22896844.070
 116390942.023 7  90694311.06445  22148453.375                    22148460.656
 120099473.713 7  93584044.996 6  22854166.977                    22854174.195
 111572799.125 8  86939923.225 7  21231580.328                    21231586.629
 115863487.717 8  90283357.583 7  22048106.109                    22048115.961
 111714255.669 8  87050176.476 7  21258521.445                    21258528.383
 129558274.632 6 100954573.59543  24654123.641                    24654131.469
 117662079.293 7  91684840.87345  22390329.500                    22390335.094
 11  8 20  3  3  0.0000000  0 10G18G30G15G26G12G05G25G29G21G02
 129264684.995 5 100725779.62842  24598258.109                    24598266.395
 117741913.091 7  91747029.19745  22405546.859                    22405554.363
 120230508.013 7  93686188.777 6  22879102.875                    22879110.785
 116318207.446 7  90637634.80545  22134612.484                    22134620.027
 120189462.763 7  93654166.347 7  22871291.320                    22871298.570
 111638585.853 8  86991185.612 7  21244099.133                    21244105.629
 115912480.100 8  90321533.467 7  22057428.836                    22057438.492
 111648887.085 8  86999239.955 7  21246082.117                    21246088.980
 129501852.364 6 100910608.34843  24643387.305                    24643394.508
 117708593.029 7  91721085.34545  22399181.531                    22399185.941
 11  8 20  3  3 30.0000000  0 10G18G30G15G26G12G05G25G29G21G02
 129175886.122 5 100656585.83142  24581358.945                    24581368.355
 117804653.066 7  91795917.48545  22417485.938                    22417493.770
 120137460.616 7  93613684.358 6  22861397.172                    22861404.473
 116245876.437 7  90581273.01445  22120848.141                    22120855.406
 120279608.828 7  93724410.038 7  22888445.430                    22888452.922
 111704684.074 8  87042690.723 7  21256677.086                    21256683.609
 115961901.322 7  90360043.514 7  22066833.539                    22066843.137
 111583798.622 8  86948521.706 7  21233696.156                    21233703.398
 129445412.029 6 100866628.91243  24632647.039                    24632654.156
 117755203.588 7  91757405.27745  22408050.805                    22408056.371
 11  8 20  3  4  0.0000000  0 10G18G30G15G26G12G05G25G29G21G02
 129087257.216 6 100587524.49242  24564493.797                    24564502.777
 117867748.907 7  91845083.06845  22429492.414                    22429500.613
 120044556.223 7  93541291.389 7  22843718.227                    22843725.156
 116173952.481 7  90525228.40345  22107161.477                    22107168.992
 120369909.057 7  93794773.842 7  22905628.336                    22905636.398
 111771091.107 8  87094436.472 7  21269314.352                    21269320.789
 116011748.722 8  90398885.646 7  22076319.125                    22076328.676
 111518992.383 8  86898023.366 7  21221363.828                    21221370.750
 129388953.066 6 100822635.03043  24621903.320                    24621910.457
 117801911.228 7  91793800.82045  22416939.086                    22416943.957
 11  8 20  3  4 30.0000000  0 10G18G30G15G26G12G05G25G29G21G02
 128998799.654 5 100518596.66342  24547660.180                    24547669.488
 117931197.666 7  91894523.64845  22441566.438                    22441574.254
 119951798.041 7  93469012.346 6  22826066.406                    22826074.031
 116102439.088 7  90469503.71345  22093552.742                    22093560.563
 120460360.586 7  93865255.550 7  22922841.039                    22922848.535
 111837804.505 8  87146420.926 7  21282009.023                    21282015.875
 116062019.852 8  90438057.964 7  22085885.555                    22085894.992
 111454470.987 8  86847746.984 7  21209085.930                    21209092.625
 129332475.398 6 100778626.52343  24611155.242                    24611163.012
 117848716.190 7  91830272.24445  22425845.852                    22425849.914
 11  8 20  3  5  0.0000000  0 10G18G30G15G26G12G05G25G29G21G02
 128910515.025 6 100449803.62642  24530859.953                    24530869.055
 117994996.765 7  91944237.23244  22453706.594                    22453714.938
 119859189.690 7  93396850.063 7  22808443.930                    22808451.410
 116031340.232 7  90414102.04645  22080023.320                    22080031.125
 120550960.124 7  93935852.594 7  22940081.797                    22940088.953
 111904822.461 8  87198642.714 7  21294762.289                    21294768.715
 116112712.635 8  90477558.829 7  22095531.852                    22095541.719
 111390237.237 8  86797694.741 7  21196862.422                    21196869.656
 129275978.700 6 100734603.21643  24600405.148                    24600411.883
 117895619.071 7  91866819.94045  22434770.844                    22434775.996
 11  8 20  3  5 30.0000000  0 10G18G30G15G26G12G05G25G29G21G02
 128822404.435 6 100381146.26942  24514092.898                    24514102.395
 118059142.996 7  91994221.31145  22465913.523                    22465921.375
 119766733.901 7  93324806.641 7  22790850.055                    22790857.414
 115960659.138 7  90359025.89345  22066573.031                    22066580.773
 120641704.756 7  94006562.715 6  22957349.570                    22957357.340
 111972142.078 8  87251099.546 7  21307572.781                    21307579.434
 116163824.311 8  90517386.116 7  22105258.234                    22105267.574
 111326293.390 8  86747868.385 7  21184694.633                    21184701.500
 129219462.147 6 100690564.44243  24589649.555                    24589656.961
 117942620.418 7  91903444.35445  22443715.547                    22443719.973
 11  8 20  3  6  0.0000000  0 10G18G30G15G26G12G05G25G29G21G02
 128734468.977 6 100312625.24243  24497359.320                    24497368.129
 118123633.018 7  92044473.28045  22478185.555                    22478192.902
 119674433.744 7  93252884.511 6  22773285.750                    22773292.840
 115890398.808 7  90304277.62645  22053203.133                    22053210.652
 120732591.253 7  94077383.378 6  22974645.070                    22974652.141
 112039760.603 8  87303789.302 7  21320440.359                    21320446.672
 116215352.064 8  90557537.618 7  22115063.727                    22115073.219
 111262641.376 8  86698269.434 7  21172581.813                    21172588.438
 129162925.220 6 100646509.81543  24578890.586                    24578898.609
 117989720.267 7  91940145.56245  22452677.648                    22452682.000
 11  8 20  3  6 30.0000000  0 10G18G30G15G26G12G05G25G29G21G02
 128646709.954 6 100244241.78342  24480659.789                    24480667.652
 118188463.912 7  92094990.86145  22490522.484                    22490530.281
 119582292.462 7  93181086.150 7  22755752.328                    22755759.238
 115820563.149 7  90249860.25945  22039913.852                    22039921.254
 120823616.647 7  94148312.261 7  22991966.227                    22991974.066
 112107676.149 8  87356710.506 7  21333363.883                    21333370.164
 116267293.476 8  90598011.458 7  22124947.844                    22124957.238
 111199283.572 7  86648899.730 7  21160525.375                    21160532.098
 129106367.630 6 100602439.08943  24568127.922                    24568136.102
 118036919.105 7  91976923.87745  22461659.609                    22461664.781
 11  8 20  3  7  0.0000000  0 10G18G30G15G26G12G05G25G29G21G02
 128559128.745 6 100175996.87043  24463993.008                    24464001.609
 118253632.881 7  92145771.89245  22502923.781                    22502931.563
 119490313.589 7  93109414.348 7  22738248.563                    22738256.238
 115751155.572 7  90195776.45745  22026705.953                    22026713.465
 120914778.108 7  94219347.171 7  23009313.797                    23009321.020
 112175886.474 8  87409861.399 7  21346343.820                    21346350.605
 116319646.168 8  90638805.761 7  22134909.852                    22134919.754
 111136222.957 8  86599761.606 7  21148525.148                    21148531.801
 129049788.915 6 100558351.88743  24557361.836                    24557368.891
 118084217.529 7  92013779.81245  22470660.063                    22470664.762
 11  8 20  3  7 30.0000000  0 10G18G30G15G26G12G05G25G29G21G02
 128471726.714 6 100107891.61243  24447361.211                    24447369.824
 118319136.668 7  92196813.81145  22515388.813                    22515396.512
 119398499.675 7  93037871.090 6  22720777.195                    22720784.156
 115682179.611 7  90142028.99545  22013580.367                    22013587.715
 121006072.365 7  94290485.571 7  23026686.484                    23026693.949
 112244388.304 8  87463239.449 7  21359379.430                    21359386.078
 116372407.275 8  90679918.322 7  22144950.398                    22144959.891
 111073461.772 8  86550856.803 7  21136582.023                    21136588.848
 128993188.582 6 100514247.81643  24546590.836                    24546598.176
 118131615.780 7  92050713.49945  22479680.156                    22479684.426
 11  8 20  3  8  0.0000000  0 10G18G30G15G26G12G05G25G29G21G02
 128384504.639 6 100039926.49443  24430763.289                    24430772.074
 118384972.141 7  92248114.19845  22527916.805                    22527924.836
 119306853.938 7  92966458.858 6  22703337.680                    22703344.695
 115613638.395 7  90088620.29245  22000536.961                    22000544.055
 121097496.117 7  94361724.849 6  23044083.969                    23044091.164
 112313179.539 8  87516843.006 7  21372470.008                    21372476.832
 116425574.258 8  90721347.141 7  22155067.805                    22155077.406
 111011001.929 8  86502186.816 7  21124696.359                    21124703.227
 128936566.147 6 100470126.50043  24535816.195                    24535822.930
 118179114.124 7  92087725.19845  22488718.156                    22488723.875
 11  8 20  3  8 30.0000000  0 10G18G30G15G26G12G05G25G29G21G02
 128297463.894 6  99972102.67943  24414200.281                    24414207.781
 118451136.405 7  92299670.77145  22540507.461                    22540515.398
 119215379.436 7  92895180.065 6  22685930.156                    22685937.648
 115545535.454 7  90035553.09245  21987577.734                    21987585.148
 121189046.657 7  94433062.939 7  23061506.211                    23061513.125
 112382257.782 8  87570670.208 7  21385615.422                    21385621.859
 116479144.515 8  90763090.198 7  22165261.461                    22165271.203
 110948846.045 8  86453753.684 7  21112868.258                    21112875.234
 128879921.171 6 100425987.64143  24525036.836                    24525043.992
 118226713.152 7  92124815.31745  22497775.922                    22497781.043
 11  8 20  3  9  0.0000000  0 10G18G30G15G26G12G05G25G29G21G02
 128210605.732 6  99904421.16343  24397671.609                    24397679.797
 118517626.086 7  92351480.91845  22553160.031                    22553167.625
 119124079.368 7  92824037.189 6  22668557.156                    22668563.961
 115477873.942 7  89982829.87545  21974702.430                    21974709.559
 121280720.744 7  94504497.298 6  23078950.703                    23078957.551
 112451620.219 8  87624718.855 7  21398814.344                    21398820.719
 116533115.247 8  90805145.312 7  22175531.555                    22175541.648
 110886996.470 8  86405559.223 7  21101098.758                    21101105.547
 128823252.993 6 100381830.70543  24514253.414                    24514260.020
 118274413.134 7  92161984.15345  22506853.234                    22506858.328
 11  8 20  3  9 30.0000000  0 10G18G30G15G26G12G05G25G29G21G02
 128123931.198 6  99836882.75142  24381176.891                    24381185.148
 118584437.897 7  92403542.08245  22565873.813                    22565881.883
 119032956.756 7  92753032.598 6  22651217.086                    22651223.766
 115410657.074 7  89930453.12245  21961910.875                    21961918.566
 121372515.065 7  94576025.350 6  23096418.484                    23096424.898
 112521264.234 8  87678986.916 7  21412067.555                    21412074.219
 116587483.466 8  90847510.149 7  22185877.797                    22185887.762
 110825455.145 8  86357604.957 7  21089387.797                    21089394.746
 128766561.091 6 100337655.26443  24503464.844                    24503472.316
 118322214.342 7  92199231.81745  22515949.156                    22515954.813
 11  8 20  3 10  0.0000000  0 10G18G30G15G26G12G05G25G29G21G02
 128037441.768 6  99769488.56742  24364718.797                    24364726.570
 118651569.214 7  92455852.19845  22578648.594                    22578656.641
 118942014.982 7  92682168.916 7  22633910.695                    22633918.414
 115343888.812 7  89878425.93745  21949205.586                    21949213.199
 121464427.011 7  94647645.080 6  23113909.133                    23113915.684
 112591187.777 8  87733472.795 7  21425373.313                    21425379.242
 116642247.037 8  90890183.054 7  22196299.141                    22196308.418
 110764225.036 8  86309893.200 7  21077736.227                    21077743.043
 128709845.303 6 100293461.24143  24492672.641                    24492679.418
 118370117.431 7  92236558.89945  22525065.008                    22525069.813
 11  8 20  3 10 30.0000000  0 10G18G30G15G26G12G05G25G29G21G02
 127951138.520 6  99702239.43942  24348295.914                    24348303.344
 118719016.781 7  92508408.74345  22591483.367                    22591491.938
 118851256.916 7  92611448.377 6  22616639.594                    22616647.145
 115277572.295 7  89826750.76045  21936585.758                    21936593.332
 121556453.347 7  94719353.937 6  23131420.797                    23131427.523
 112661388.443 8  87788174.604 7  21438732.352                    21438738.656
 116697403.122 8  90933161.817 7  22206794.898                    22206804.492
 110703308.417 8  86262425.723 7  21066143.945                    21066151.004
 128653105.271 7 100249248.28243  24481875.430                    24481881.805
 118418122.611 7  92273965.53044  22534200.063                    22534204.828
 11  8 20  3 11  0.0000000  0 10G18G30G15G26G12G05G25G29G21G02
 127865023.001 6  99635136.55142  24331908.281                    24331915.895
 118786777.877 7  92561209.59745  22604378.445                    22604386.023
 118760686.308 7  92540873.921 6  22599405.273                    22599412.000
 115211711.114 7  89775430.40045  21924053.039                    21924060.324
 121648591.426 6  94791149.855 6  23148953.883                    23148961.090
 112731864.023 8  87843090.636 7  21452143.391                    21452149.996
 116752949.423 7  90976444.655 7  22217364.906                    22217374.078
 110642708.295 8  86215204.857 7  21054612.406                    21054619.234
 128596340.536 6 100205016.08243  24471072.852                    24471079.477
 118466230.740 7  92311452.35445  22543355.273                    22543359.918
 11  8 20  3 11 30.0000000  0 10G18G30G15G26G12G05G25G29G21G02
 127779096.061 6  99568180.60743  24315556.539                    24315564.738
 118854848.988 7  92614252.03045  22617331.469                    22617339.215
 118670305.949 7  92470447.705 7  22582206.102                    22582213.230
 115146308.280 7  89724467.18445  21911607.023                    21911614.523
 121740837.933 7  94863030.268 6  23166507.352                    23166514.848
 112802611.819 8  87898218.780 7  21465606.195                    21465612.758
 116808882.879 8  91020029.160 7  22228009.063                    22228018.375
 110582426.233 8  86168231.844 7  21043140.828                    21043147.996
 128539550.644 6 100160764.28143  24460266.430                    24460272.742
 118514441.780 7  92349019.39445  22552529.000                    22552533.250
 11  8 20  3 12  0.0000000  0 10G18G30G15G26G12G05G25G29G21G02
 127693358.690 6  99501372.41743  24299241.773                    24299249.422
 118923226.427 7  92667533.15045  22630343.273                    22630351.004
 118580118.182 7  92400171.572 6  22565044.164                    22565051.051
 115081366.559 7  89673863.28545  21899248.945                    21899256.555
 121833189.320 7  94934992.380 6  23184082.094                    23184088.801
 112873628.584 8  87953556.530 7  21479120.078                    21479126.715
 116865200.194 7  91063912.777 7  22238725.781                    22238735.262
 110522464.101 8  86121508.119 7  21031730.469                    21031737.383
 128482734.451 6 100116492.01843  24449454.789                    24449461.137
 118562756.000 7  92386666.83345  22561723.086                    22561727.383
 11  8 20  3 12 30.0000000  0 10G18G30G15G26G12G05G25G29G21G02
 127607812.083 6  99434712.86743  24282962.594                    24282969.965
 118991907.827 7  92721051.16344  22643412.945                    22643420.480
 118490127.057 7  92330048.652 7  22547919.016                    22547926.301
 115016890.012 7  89623621.86045  21886979.617                    21886987.145
 121925643.083 7  95007034.297 7  23201675.047                    23201682.750
 112944912.699 8  88009102.579 7  21492685.102                    21492691.445
 116921899.332 7  91108093.930 7  22249515.055                    22249524.699
 110462825.214 8  86075036.278 7  21020381.555                    21020388.203
 128425892.365 6 100072199.55443  24438637.461                    24438645.020
 118611174.394 7  92424395.43345  22570937.344                    22570942.348
 11  8 20  3 13  0.0000000  0 10G18G30G15G26G12G05G25G29G21G02
 127522457.372 6  99368202.82543  24266719.617                    24266727.949
 119060889.995 7  92774803.51444  22656539.406                    22656547.113
 118400335.192 7  92260081.010 7  22530832.711                    22530839.676
 114952881.964 7  89573745.48745  21874799.047                    21874805.949
 122018196.220 7  95079153.618 6  23219287.516                    23219294.926
 113016461.728 8  88064855.063 7  21506300.219                    21506307.188
 116978977.568 7  91152570.476 7  22260376.500                    22260386.176
 110403511.615 8  86028817.900 7  21009094.523                    21009101.672
 128369024.177 6 100027886.79643  24427815.313                    24427823.195
 118659696.846 7  92462205.14244  22580170.031                    22580174.809
 11  8 20  3 13 30.0000000  0 10G18G30G15G26G12G05G25G29G21G02
 127437295.972 6  99301843.45043  24250513.461                    24250522.266
 119130169.638 7  92828787.66544  22669723.367                    22669730.637
 118310746.164 7  92190271.425 7  22513784.594                    22513791.570
 114889345.431 7  89524236.53645  21862708.422                    21862715.770
 122110845.628 7  95151347.970 6  23236918.344                    23236925.574
 113088272.958 8  88120811.861 7  21519965.352                    21519971.871
 117036431.930 7  91197340.096 7  22271310.195                    22271319.840
 110344525.743 8  85982854.904 7  20997870.016                    20997876.961
 128312128.699 6  99983552.75943  24416988.828                    24416995.945
 118708324.321 7  92500096.69045  22589423.813                    22589428.555
 11  8 20  3 14  0.0000000  0 10G18G30G15G26G12G05G25G29G21G02
 127352328.765 6  99235635.37443  24234345.781                    24234353.461
 119199743.467 7  92883001.05044  22682962.773                    22682970.113
 118221362.689 7  92120622.015 7  22496775.188                    22496782.273
 114826283.536 7  89475097.43045  21850708.078                    21850715.344
 122203588.139 7  95223614.870 6  23254566.188                    23254573.309
 113160343.846 8  88176970.978 7  21533680.070                    21533686.648
 117094259.546 7  91242400.578 7  22282314.172                    22282323.609
 110285869.529 7  85937148.774 7  20986708.086                    20986714.902
 128255205.659 6  99939197.29943  24406157.367                    24406163.492
 118757056.822 7  92538070.05545  22598696.609                    22598702.777
 11  8 20  3 14 30.0000000  0 10G18G30G15G26G12G05G25G29G21G02
 127267557.111 6  99169579.71743  24218213.273                    24218221.406
 119269608.620 7  92937441.44145  22696257.242                    22696265.266
 118132188.354 7  92051135.557 7  22479806.164                    22479813.207
 114763699.802 7  89426330.92745  21838799.125                    21838805.906
 122296421.131 7  95295952.268 6  23272232.156                    23272239.223
 113232672.141 8  88233330.684 7  21547443.719                    21547450.164
 117152457.904 7  91287749.938 7  22293388.781                    22293398.727
 110227546.205 8  85891702.049 7  20975609.430                    20975616.133
 128198254.970 6  99894820.25943  24395319.250                    24395326.301
 118805895.109 7  92576125.84545  22607990.594                    22607995.805
 11  8 20  3 15  0.0000000  0 10G18G30G15G26G12G05G25G29G21G02
 127182982.258 6  99103677.38643  24202119.531                    24202127.082
 119339761.941 7  92992106.36944  22709606.898                    22709614.766
 118043226.310 7  91981814.532 7  22462876.656                    22462883.898
 114701597.547 7  89377939.59245  21826981.398                    21826988.395
 122389341.073 7  95368357.441 6  23289913.492                    23289920.551
 113305255.514 8  88289889.147 7  21561256.141                    21561262.723
 117211024.276 7  91333386.062 7  22304533.695                    22304543.555
 110169557.798 8  85846516.296 7  20964574.555                    20964581.273
 128141276.370 6  99850421.45943  24384476.500                    24384484.242
 118854839.389 7  92614264.24845  22617304.359                    22617309.516
 11  8 20  3 15 30.0000000  0 10G18G30G15G26G12G05G25G29G21G02
 127098604.747 6  99037928.82743  24186063.180                    24186070.273
 119410199.945 7  93046993.12244  22723010.820                    22723019.234
 117954478.994 7  91912660.828 6  22445988.695                    22445995.672
 114639979.522 7  89329925.57745  21815255.734                    21815263.156
 122482345.266 7  95440828.256 6  23307611.891                    23307618.953
 113378091.191 8  88346644.215 7  21575116.047                    21575122.730
 117269955.406 7  91379306.417 7  22315748.273                    22315757.559
 110111906.044 7  85801592.874 7  20953603.805                    20953610.711
 128084268.966 6  99806000.22844  24373628.695                    24373635.891
 118903889.833 7  92652485.34545  22626638.617                    22626644.109
 11  8 20  3 16  0.0000000  0 10G18G30G15G26G12G05G25G29G21G02
 127014425.854 6  98972335.04443  24170043.406                    24170051.457
 119480919.465 7  93102099.25444  22736468.227                    22736476.699
 117865949.606 7  91843676.923 7  22429141.883                    22429149.336
 114578848.887 7  89282291.34345  21803622.906                    21803630.289
 122575430.529 7  95513362.261 6  23325325.922                    23325332.453
 113451176.724 8  88403593.975 7  21589023.734                    21589030.406
 117329248.608 7  91425508.914 7  22327031.102                    22327040.707
 110054593.644 8  85756933.890 7  20942697.547                    20942704.492
 128027232.280 6  99761556.13344  24362774.906                    24362781.867
 118953047.176 7  92690789.76145  22635992.969                    22635997.957
 11  8 20  3 16 30.0000000  0 10G18G30G15G26G12G05G25G29G21G02
 126930446.708 6  98906896.88443  24154063.227                    24154070.961
 119551917.635 6  93157422.49744  22749978.922                    22749987.191
 117777641.944 7  91774865.791 7  22412337.609                    22412344.801
 114518209.119 7  89235039.60445  21792083.359                    21792090.871
 122668593.785 7  95585957.048 6  23343053.984                    23343061.055
 113524509.985 8  88460736.767 7  21602979.086                    21602985.359
 117388901.287 7  91471991.522 7  22338383.125                    22338392.281
 109997623.058 8  85712541.244 7  20931856.648                    20931863.250
 127970166.329 6  99717089.27344  24351915.336                    24351922.301
 119002311.970 7  92729177.94044  22645367.406                    22645372.152
 11  8 20  3 17  0.0000000  0 10G18G30G15G26G12G05G25G29G21G02
 126846668.617 6  98841615.37143  24138120.703                    24138128.504
 119623191.138 7  93212960.29045  22763541.883                    22763550.320
 117689558.666 7  91706229.507 7  22395575.961                    22395583.043
 114458063.653 7  89188173.04945  21780638.617                    21780645.406
 122761831.948 7  95658610.193 6  23360796.266                    23360803.352
 113598088.418 8  88518070.607 7  21616980.203                    21616986.969
 117448910.497 7  91518751.943 7  22349801.656                    22349811.617
 109940996.677 8  85668416.809 7  20921081.070                    20921087.543
 127913070.476 6  99672599.07344  24341049.969                    24341057.359
 119051684.562 7  92767650.07345  22654763.336                    22654768.230
 11  8 20  3 17 30.0000000  0 10G18G30G15G26G12G05G25G29G21G02
 126763092.218 6  98776491.00743  24122216.508                    24122224.531
 119694736.804 7  93268710.15444  22777156.773                    22777164.781
 117601702.877 7  91637770.488 7  22378857.609                    22378864.473
 114398415.432 7  89141693.94245  21769287.266                    21769294.688
 122855142.337 7  95731319.622 6  23378552.625                    23378560.012
 113671909.495 7  88575593.519 7  21631027.938                    21631034.512
 117509273.423 7  91565787.980 7  22361288.617                    22361298.070
 109884716.765 8  85624562.341 7  20910371.086                    20910377.820
 127855944.599 6  99628085.47643  24330179.563                    24330187.109
 119101165.421 7  92806206.57944  22664178.969                    22664184.020
 11  8 20  3 18  0.0000000  0 10G18G30G15G26G12G05G25G29G21G02
 126679718.738 6  98711524.76443  24106350.859                    24106358.535
 119766551.168 7  93324669.39644  22790822.797                    22790830.520
 117514077.672 7  91569491.149 7  22362182.758                    22362189.715
 114339267.040 7  89095604.31145  21758031.555                    21758038.949
 122948521.649 7  95804082.734 6  23396322.859                    23396330.000
 113745970.865 8  88633303.677 7  21645121.156                    21645127.813
 117569986.921 7  91613097.202 7  22372841.883                    22372851.527
 109828785.157 8  85580979.287 7  20899727.945                    20899734.652
 127798787.825 6  99583547.78443  24319302.953                    24319309.824
 119150754.664 7  92844847.54444  22673615.555                    22673619.734
